[[{"header":{"parameterUnit":"m.s-1","parameterCategory":1,"la1":30.6,"la2":28.766,"lo1":-90.7593,"lo2":-88.6598,"dy":0.0162,"dx":0.0183,"nx":116,"ny":114,"refTime":"2023-05-08T00:00:00:Z","depth":0,"parameterNumber":2,"parameterNumberName":"U-component_of_WINDS"},"data":[0.0,0.0,0.0,0.0,0.0,0.0,0.0,0.0,0.0,0.0,0.0,0.0,0.0,0.0,0.0,0.0,0.0,0.0,0.0,0.0,0.0,0.0,0.0,0.0,0.0,0.0,0.0,0.0,0.0,0.0,0.0,0.0,0.0,0.0,0.0,0.0,0.0,0.0,0.0,0.0,0.0,0.0,0.0,0.0,0.0,0.0,0.0,0.0,0.0,0.0,0.0,0.0,0.0,0.0,0.0,0.0,0.0,0.0,0.0,0.0,0.0,0.0,0.0,0.0,0.0,0.0,0.0,0.0,0.0,0.0,0.0,0.0,0.0,0.0,0.0,0.0,0.0,0.0,0.0,0.0,0.0,0.0,0.0,0.0,0.0,0.0,0.0,0.0,0.0,0.0,0.0,0.0,0.0,0.0,0.0,0.0,0.0,0.0,0.0,0.0,0.0,0.0,0.0,0.0,0.0,0.0,0.0,0.0,0.0,0.0,0.0,0.0,0.0,0.0,0.0,0.0,0.0,0.0,0.0,0.0,0.0,0.0,0.0,0.0,0.0,0.0,0.0,0.0,0.0,0.0,0.0,0.0,0.0,0.0,0.0,0.0,0.0,0.0,0.0,0.0,0.0,0.0,0.0,0.0,0.0,0.0,0.0,0.0,0.0,0.0,0.0,0.0,0.0,0.0,0.0,0.0,0.0,0.0,0.0,0.0,0.0,0.0,0.0,0.0,0.0,0.0,0.0,0.0,0.0,0.0,0.0,0.0,0.0,0.0,0.0,0.0,0.0,0.0,0.0,0.0,0.0,0.0,0.0,0.0,0.0,0.0,0.0,0.0,0.0,0.0,0.0,0.0,0.0,0.0,0.0,0.0,0.0,0.0,0.0,0.0,0.0,0.0,0.0,0.0,0.0,0.0,0.0,0.0,0.0,0.0,0.0,0.0,0.0,0.0,0.0,0.0,0.0,0.0,0.0,0.0,0.0,0.0,0.0,0.0,0.0,0.0,0.0,0.0,0.0,0.0,0.0,0.0,0.0,0.0,0.0,0.0,0.0,0.0,0.0,0.0,0.0,0.0,0.0,0.0,0.0,0.0,0.0,0.0,0.0,0.0,0.0,0.0,0.0,0.0,0.0,0.0,0.0,0.0,0.0,0.0,0.0,0.0,0.0,0.0,0.0,0.0,0.0,0.0,0.0,0.0,0.0,0.0,0.0,0.0,0.0,0.0,0.0,0.0,0.0,0.0,0.0,0.0,0.0,0.0,0.0,0.0,0.0,0.0,0.0,0.0,0.0,0.0,0.0,0.0,0.0,0.0,0.0,0.0,0.0,0.0,0.0,0.0,0.0,0.0,0.0,0.0,0.0,0.0,0.0,0.0,0.0,0.0,0.0,0.0,0.0,0.0,0.0,0.0,0.0,0.0,0.0,0.0,0.0,0.0,0.0,0.0,0.0,0.0,0.0,0.0,0.0,0.0,0.0,0.0,0.0,0.0,0.0,0.0,0.0,0.0,0.0,0.0,0.0,0.0,0.0,0.0,0.0,0.0,0.0,0.0,0.0,0.0,0.0,0.0,0.0,0.0,0.0,0.0,0.0,0.0,0.0,0.0,0.0,0.0,0.0,0.0,0.0,0.0,0.0,0.0,0.0,0.0,0.0,0.0,0.0,0.0,0.0,0.0,0.0,0.0,0.0,0.0,0.0,0.0,0.0,0.0,0.0,0.0,0.0,0.0,0.0,0.0,0.0,0.0,0.0,0.0,0.0,0.0,0.0,0.0,0.0,0.0,0.0,0.0,0.0,0.0,0.0,0.0,0.0,0.0,0.0,0.0,0.0,0.0,0.0,0.0,0.0,0.0,0.0,0.0,0.0,0.0,0.0,0.0,0.0,0.0,0.0,0.0,0.0,0.0,0.0,0.0,0.0,0.0,0.0,0.0,0.0,0.0,0.0,0.0,0.0,0.0,0.0,0.0,0.0,0.0,0.0,0.0,0.0,0.0,0.0,0.0,0.0,0.0,0.0,0.0,0.0,0.0,0.0,0.0,0.0,0.0,0.0,0.0,0.0,0.0,0.0,0.0,0.0,0.0,0.0,0.0,0.0,0.0,0.0,0.0,0.0,0.0,0.0,0.0,0.0,0.0,0.0,0.0,0.0,0.0,0.0,0.0,0.0,0.0,0.0,0.0,0.0,0.0,0.0,0.0,0.0,0.0,0.0,0.0,0.0,0.0,0.0,0.0,0.0,0.0,0.0,0.0,0.0,0.0,0.0,0.0,0.0,0.0,0.0,0.0,0.0,0.0,0.0,0.0,0.0,0.0,0.0,0.0,0.0,0.0,0.0,0.0,0.0,0.0,0.0,0.0,0.0,0.0,0.0,0.0,0.0,0.0,0.0,0.0,0.0,0.0,0.0,0.0,0.0,0.0,0.0,0.0,0.0,0.0,0.0,0.0,0.0,0.0,0.0,0.0,0.0,0.0,0.0,0.0,0.0,0.0,0.0,0.0,0.0,0.0,0.0,0.0,0.0,0.0,0.0,0.0,0.0,0.0,0.0,0.0,0.0,0.0,0.0,0.0,0.0,0.0,0.0,0.0,0.0,0.0,0.0,0.0,0.0,0.0,0.0,0.0,0.0,0.0,0.0,0.0,0.0,0.0,0.0,0.0,0.0,0.0,0.0,0.0,0.0,0.0,0.0,0.0,0.0,0.0,0.0,0.0,0.0,0.0,0.0,0.0,0.0,0.0,0.0,0.0,0.0,0.0,0.0,0.0,0.0,0.0,0.0,0.0,0.0,0.0,0.0,0.0,0.0,0.0,0.0,0.0,0.0,0.0,0.0,0.0,0.0,0.0,0.0,0.0,0.0,0.0,0.0,0.0,0.0,0.0,0.0,0.0,0.0,0.0,0.0,0.0,0.0,0.0,0.0,0.0,0.0,0.0,0.0,0.0,0.0,0.0,0.0,0.0,0.0,0.0,0.0,0.0,0.0,0.0,0.0,0.0,0.0,0.0,0.0,0.0,0.0,0.0,0.0,0.0,0.0,0.0,0.0,0.0,0.0,0.0,0.0,0.0,0.0,0.0,0.0,0.0,0.0,0.0,0.0,0.0,0.0,0.0,0.0,0.0,0.0,0.0,0.0,0.0,0.0,0.0,0.0,0.0,0.0,0.0,0.0,0.0,0.0,0.0,0.0,0.0,0.0,0.0,0.0,0.0,0.0,0.0,0.0,0.0,0.0,0.0,0.0,0.0,0.0,0.0,0.0,0.0,0.0,0.0,0.0,0.0,0.0,0.0,0.0,0.0,0.0,0.0,0.0,0.0,0.0,0.0,0.0,0.0,0.0,0.0,0.0,0.0,0.0,0.0,0.0,0.0,0.0,0.0,0.0,0.0,0.0,0.0,0.0,0.0,0.0,0.0,0.0,0.0,0.0,0.0,0.0,0.0,0.0,0.0,0.0,0.0,0.0,0.0,0.0,0.0,0.0,0.0,0.0,0.0,0.0,0.0,0.0,0.0,0.0,0.0,0.0,0.0,0.0,0.0,0.0,0.0,0.0,0.0,0.0,0.0,0.0,0.0,0.0,0.0,0.0,0.0,0.0,0.0,0.0,0.0,0.0,0.0,0.0,0.0,0.0,0.0,0.0,0.0,0.0,0.0,0.0,0.0,0.0,0.0,0.0,0.0,0.0,0.0,0.0,0.0,0.0,0.0,0.0,0.0,0.0,0.0,0.0,0.0,0.0,0.0,0.0,0.0,0.0,0.0,0.0,0.0,0.0,0.0,0.0,0.0,0.0,0.0,0.0,0.0,0.0,0.0,0.0,0.0,0.0,0.0,0.0,0.0,0.0,0.0,0.0,0.0,0.0,0.0,0.0,0.0,0.0,0.0,0.0,0.0,0.0,0.0,0.0,0.0,0.0,0.0,0.0,0.0,0.0,0.0,0.0,0.0,0.0,0.0,0.0,0.0,0.0,0.0,0.0,0.0,0.0,0.0,0.0,0.0,0.0,0.0,0.0,0.0,0.0,0.0,0.0,0.0,0.0,0.0,0.0,0.0,0.0,0.0,0.0,0.0,0.0,0.0,0.0,0.0,0.0,0.0,0.0,0.0,0.0,0.0,0.0,0.0,0.0,0.0,0.0,0.0,0.0,0.0,0.0,0.0,0.0,0.0,0.0,0.0,0.0,0.0,0.0,0.0,0.0,0.0,0.0,0.0,0.0,0.0,0.0,0.0,0.0,0.0,0.0,0.0,0.0,0.0,0.0,0.0,0.0,0.0,0.0,0.0,0.0,0.0,0.0,0.0,0.0,0.0,0.0,0.0,0.0,0.0,0.0,0.0,0.0,0.0,0.0,0.0,0.0,0.0,0.0,0.0,0.0,0.0,0.0,0.0,0.0,0.0,0.0,0.0,0.0,0.0,0.0,0.0,0.0,0.0,0.0,0.0,0.0,0.0,0.0,0.0,0.0,0.0,0.0,0.0,0.0,0.0,0.0,0.0,0.0,0.0,0.0,0.0,0.0,0.0,0.0,0.0,0.0,0.0,0.0,0.0,0.0,0.0,0.0,0.0,0.0,0.0,0.0,0.0,0.0,0.0,0.0,0.0,0.0,0.0,0.0,0.0,0.0,0.0,0.0,0.0,0.0,0.0,0.0,0.0,0.0,0.0,0.0,0.0,0.0,0.0,0.0,0.0,0.0,0.0,0.0,0.0,0.0,0.0,0.0,0.0,0.0,0.0,0.0,0.0,0.0,0.0,0.0,0.0,0.0,0.0,0.0,0.0,0.0,0.0,0.0,0.0,0.0,0.0,0.0,0.0,0.0,0.0,0.0,0.0,0.0,0.0,0.0,0.0,0.0,0.0,0.0,0.0,0.0,0.0,0.0,0.0,0.0,0.0,0.0,0.0,0.0,0.0,0.0,0.0,0.0,0.0,0.0,0.0,0.0,0.0,0.0,0.0,0.0,0.0,0.0,0.0,0.0,0.0,0.0,0.0,0.0,0.0,0.0,0.0,0.0,0.0,0.0,0.0,0.0,0.0,0.0,0.0,0.0,0.0,0.0,0.0,0.0,0.0,0.0,0.0,0.0,0.0,0.0,0.0,0.0,0.0,0.0,0.0,0.0,0.0,0.0,0.0,0.0,0.0,0.0,0.0,0.0,0.0,0.0,0.0,0.0,0.0,0.0,0.0,0.0,0.0,0.0,0.0,0.0,0.0,0.0,0.0,0.0,0.0,0.0,0.0,0.0,0.0,0.0,0.0,0.0,0.0,0.0,0.0,0.0,0.0,0.0,0.0,0.0,0.0,0.0,0.0,0.0,0.0,0.0,0.0,0.0,0.0,0.0,0.0,0.0,0.0,0.0,0.0,0.0,0.0,0.0,0.0,0.0,0.0,0.0,0.0,0.0,0.0,0.0,0.0,0.0,0.0,0.0,0.0,0.0,0.0,0.0,0.0,0.0,0.0,0.0,0.0,0.0,0.0,0.0,0.0,0.0,0.0,0.0,0.0,0.0,0.0,0.0,0.0,0.0,0.0,0.0,0.0,0.0,0.0,0.0,0.0,0.0,0.0,0.0,0.0,0.0,0.0,0.0,0.0,0.0,0.0,0.0,0.0,0.0,0.0,0.0,0.0,0.0,0.0,0.0,0.0,0.0,0.0,0.0,0.0,0.0,0.0,0.0,0.0,0.0,0.0,0.0,0.0,0.0,0.0,0.0,0.0,0.0,0.0,0.0,0.0,0.0,0.0,0.0,0.0,0.0,0.0,0.0,0.0,0.0,0.0,0.0,0.0,0.0,0.0,0.0,0.0,0.0,0.0,0.0,0.0,0.0,0.0,0.0,0.0,0.0,0.0,0.0,0.0,0.0,0.0,0.0,0.0,0.0,0.0,0.0,0.0,0.0,0.0,0.0,0.0,0.0,0.0,0.0,0.0,0.0,0.0,0.0,0.0,0.0,0.0,0.0,0.0,0.0,0.0,0.0,0.0,0.0,0.0,0.0,0.0,0.0,0.0,0.0,0.0,0.0,0.0,0.0,0.0,0.0,0.0,0.0,0.0,0.0,0.0,0.0,0.0,0.0,0.0,0.0,0.0,0.0,0.0,0.0,0.0,0.0,0.0,-1.4023,0.0,0.0,0.0,0.0,0.0,0.0,0.0,0.0,0.0,0.0,0.0,0.0,0.0,0.0,0.0,0.0,0.0,0.0,0.0,0.0,0.0,0.0,0.0,0.0,0.0,0.0,0.0,0.0,0.0,0.0,0.0,0.0,0.0,0.0,0.0,0.0,0.0,0.0,-1.8672,-1.8672,-1.8769,-1.8965,-1.873,-1.8498,-1.8303,0.0,0.0,0.0,0.0,0.0,0.0,0.0,0.0,0.0,0.0,0.0,0.0,0.0,0.0,0.0,0.0,0.0,0.0,0.0,0.0,0.0,0.0,0.0,0.0,0.0,0.0,0.0,0.0,0.0,0.0,0.0,0.0,0.0,0.0,0.0,0.0,0.0,0.0,0.0,0.0,0.0,0.0,0.0,0.0,0.0,0.0,0.0,0.0,0.0,0.0,0.0,0.0,0.0,0.0,0.0,0.0,0.0,0.0,0.0,0.0,0.0,0.0,0.0,0.0,0.0,0.0,0.0,0.0,0.0,0.0,0.0,-1.3893,0.0,0.0,0.0,0.0,0.0,0.0,0.0,0.0,0.0,0.0,0.0,0.0,0.0,0.0,0.0,0.0,0.0,0.0,0.0,0.0,0.0,0.0,0.0,-1.9434,-1.918,-1.918,-1.9102,-1.8906,0.0,0.0,0.0,0.0,0.0,0.0,0.0,-1.7991,-1.803,-1.8108,-1.8203,-1.8401,-1.8715,-1.9121,-1.9102,-1.8715,-1.8715,0.0,0.0,0.0,0.0,0.0,0.0,0.0,0.0,0.0,0.0,0.0,0.0,0.0,0.0,0.0,0.0,0.0,0.0,0.0,0.0,0.0,0.0,0.0,0.0,0.0,0.0,0.0,0.0,0.0,0.0,0.0,0.0,0.0,0.0,0.0,0.0,0.0,0.0,0.0,0.0,0.0,0.0,0.0,0.0,0.0,0.0,0.0,0.0,0.0,0.0,0.0,0.0,0.0,0.0,0.0,0.0,0.0,0.0,0.0,0.0,0.0,0.0,0.0,-1.5435,-1.5396,-1.5376,-1.5059,-1.4674,-1.4289,-1.3633,-1.3216,-1.3059,0.0,0.0,0.0,0.0,0.0,0.0,0.0,0.0,0.0,0.0,0.0,0.0,0.0,0.0,0.0,0.0,0.0,0.0,0.0,0.0,0.0,0.0,-1.8966,-1.8676,-1.8676,-1.8361,-1.8164,-1.8069,0.0,0.0,0.0,0.0,0.0,-1.7991,-1.7991,-1.8166,-1.852,-1.8926,-1.9159,-1.9199,-1.9276,-1.9276,-1.9217,-1.9217,-1.9375,-1.9629,0.0,0.0,0.0,0.0,0.0,0.0,0.0,0.0,0.0,0.0,0.0,0.0,0.0,0.0,0.0,0.0,0.0,0.0,0.0,0.0,0.0,0.0,0.0,0.0,0.0,0.0,0.0,0.0,0.0,0.0,0.0,0.0,0.0,0.0,0.0,0.0,0.0,0.0,0.0,0.0,0.0,-1.5469,-1.587,0.0,0.0,0.0,0.0,0.0,0.0,0.0,0.0,0.0,0.0,0.0,0.0,0.0,0.0,-1.6453,-1.6168,-1.6007,-1.6007,-1.5586,-1.5396,-1.5396,-1.5352,-1.5278,-1.522,-1.5117,0.0,-1.3457,-1.3919,0.0,0.0,0.0,0.0,0.0,0.0,0.0,0.0,0.0,0.0,0.0,0.0,0.0,0.0,0.0,0.0,0.0,0.0,0.0,0.0,0.0,-1.8888,-1.8695,-1.8966,-1.8596,-1.8342,-1.8342,-1.791,0.0,0.0,0.0,-1.7269,-1.7269,-1.7539,-1.7971,-1.8598,-1.9298,-1.9648,-1.9648,-1.9902,-2.0019,-2.0019,-2.0019,-1.9862,-1.9531,-1.9083,0.0,0.0,0.0,0.0,0.0,0.0,0.0,0.0,0.0,0.0,0.0,0.0,0.0,0.0,0.0,0.0,0.0,0.0,0.0,0.0,0.0,0.0,0.0,0.0,0.0,0.0,0.0,0.0,0.0,0.0,0.0,0.0,0.0,0.0,0.0,0.0,0.0,0.0,0.0,-1.6254,-1.6215,-1.6426,-1.6445,-1.6523,0.0,0.0,0.0,0.0,0.0,0.0,0.0,0.0,0.0,-1.6105,-1.6265,-1.6348,-1.6348,-1.6202,-1.6207,-1.6426,-1.6235,-1.6137,-1.6122,-1.5913,-1.5796,-1.5777,-1.5508,-1.5083,-1.4576,-1.4752,-1.4824,-1.4838,0.0,0.0,0.0,0.0,-1.4799,-1.4682,0.0,0.0,0.0,0.0,0.0,0.0,0.0,0.0,0.0,0.0,0.0,0.0,-1.9082,-1.8713,-1.8635,-1.9082,-1.8713,-1.8442,-1.8442,-1.7793,-1.7399,-1.7399,-1.6957,-1.6746,-1.6879,-1.7539,-1.8223,-1.8929,-1.9688,-2.0078,-2.0078,-2.0429,-2.0605,-2.0605,-2.0605,-2.0253,-1.9608,-1.9122,-1.887,-1.8771,0.0,0.0,0.0,0.0,0.0,0.0,0.0,0.0,0.0,0.0,0.0,0.0,0.0,0.0,0.0,0.0,0.0,0.0,0.0,0.0,0.0,0.0,0.0,0.0,0.0,0.0,0.0,0.0,0.0,0.0,0.0,0.0,0.0,0.0,0.0,0.0,0.0,-1.6843,-1.6785,-1.6999,-1.6941,-1.6918,0.0,0.0,0.0,0.0,0.0,0.0,-1.6879,-1.6976,-1.6855,-1.6437,-1.6617,-1.6735,-1.6735,-1.6868,-1.7067,-1.7366,-1.7366,-1.7366,-1.7366,-1.7067,-1.6832,-1.6715,-1.6387,-1.6098,-1.5898,-1.5532,-1.5293,-1.5151,-1.5449,-1.563,-1.5688,-1.5288,-1.5131,-1.5014,0.0,0.0,0.0,0.0,0.0,0.0,0.0,0.0,0.0,0.0,0.0,-1.8617,-1.8637,-1.8283,-1.8186,-1.8598,-1.8264,-1.803,-1.803,-1.7637,-1.7399,-1.7399,-1.6957,-1.6918,-1.736,-1.8572,-1.9414,-1.9825,-2.0332,-2.0566,-2.0566,-2.0586,-2.0605,-2.0605,-2.0605,-2.0586,-2.0507,-2.0039,-1.961,-1.9237,-1.8791,0.0,0.0,0.0,0.0,0.0,0.0,0.0,0.0,0.0,0.0,0.0,0.0,0.0,0.0,0.0,0.0,0.0,0.0,0.0,0.0,0.0,0.0,0.0,0.0,0.0,0.0,0.0,0.0,0.0,0.0,0.0,0.0,0.0,0.0,0.0,0.0,0.0,0.0,-1.7835,-1.7598,0.0,0.0,0.0,0.0,-1.7932,-1.7932,-1.7773,-1.738,-1.7734,-1.7754,-1.7341,-1.8069,-1.8461,-1.8461,-1.8926,-1.9159,-1.9178,-1.9178,-1.9178,-1.9178,-1.9159,-1.8906,-1.8461,-1.8442,-1.801,-1.7204,-1.5937,-1.5644,-1.6041,-1.6046,-1.6304,-1.659,-1.6168,-1.6026,-1.5968,0.0,0.0,0.0,0.0,0.0,0.0,0.0,0.0,-1.8693,-1.8264,-1.8442,-1.8598,-1.8598,-1.8732,-1.8887,-1.9043,-1.8635,-1.8401,-1.8401,-1.7483,-1.709,-1.738,-1.6957,-1.7155,-1.8147,-1.8615,-1.9201,-1.9903,-2.0371,-2.0605,-2.0605,-2.0859,-2.0996,-2.1016,-2.1289,-2.1446,-2.1368,-2.0332,-1.9824,-1.9629,-1.889,-1.8693,0.0,0.0,0.0,0.0,0.0,0.0,0.0,0.0,0.0,0.0,0.0,0.0,0.0,0.0,0.0,0.0,0.0,0.0,0.0,0.0,0.0,0.0,0.0,0.0,0.0,0.0,0.0,0.0,0.0,0.0,0.0,0.0,0.0,0.0,0.0,0.0,0.0,-1.8322,-1.803,0.0,0.0,-1.7991,-1.8108,-1.8381,-1.8401,-1.8459,-1.8611,-1.8768,-1.8769,-1.8631,-1.8906,-1.9062,-1.9062,-1.9219,-1.9315,-1.9315,-1.9315,-1.9315,-1.9315,-1.9315,-1.9199,-1.9062,-1.9062,-1.8887,-1.8592,-1.8105,-1.7184,-1.6085,-1.6085,-1.6011,-1.5844,-1.5703,-1.5644,-1.564,0.0,0.0,0.0,0.0,0.0,0.0,0.0,0.0,-1.8303,-1.803,-1.8244,-1.8442,-1.8578,-1.8769,-1.8906,-1.9062,-1.8654,-1.8401,-1.8401,-1.733,-1.6918,-1.738,-1.723,-1.7601,-1.8578,-1.889,-1.9396,-2.0137,-2.0449,-2.0605,-2.0605,-2.0879,-2.0996,-2.1035,-2.1465,-2.166,-2.1621,-2.0879,-2.0469,-2.0293,-1.9709,-1.9571,-1.9686,0.0,0.0,0.0,0.0,0.0,0.0,0.0,0.0,0.0,0.0,0.0,0.0,0.0,0.0,0.0,0.0,0.0,0.0,0.0,0.0,0.0,0.0,0.0,0.0,0.0,0.0,0.0,0.0,0.0,0.0,0.0,0.0,0.0,0.0,0.0,-1.8576,-1.9005,-1.8674,-1.8437,-1.8437,-1.8437,-1.8555,-1.881,-1.883,-1.8966,-1.9296,-1.9315,-1.9315,-1.9315,-1.9434,-1.9492,-1.9492,-1.9667,-1.9745,-1.9745,-1.9745,-1.9745,-1.9745,-1.9745,-1.9667,-1.9492,-1.9492,-1.9432,-1.9315,-1.9315,-1.8455,-1.7161,-1.7008,-1.666,-1.6274,-1.6274,-1.6274,-1.6274,0.0,0.0,0.0,0.0,0.0,0.0,0.0,-1.8264,-1.7991,-1.7991,-1.801,-1.8186,-1.8539,-1.8264,-1.8186,-1.8559,-1.8225,-1.7991,-1.7971,-1.7191,-1.6937,-1.7419,-1.7812,-1.8225,-1.8656,-1.9474,-2.0137,-2.0605,-2.0605,-2.0605,-2.0605,-2.0625,-2.0625,-2.0644,-2.1035,-2.1229,-2.1268,-2.1719,-2.1659,-2.1249,-2.121,-2.0977,-2.0605,0.0,0.0,0.0,0.0,0.0,0.0,0.0,0.0,0.0,0.0,0.0,0.0,0.0,0.0,0.0,0.0,0.0,0.0,0.0,0.0,0.0,0.0,0.0,0.0,0.0,0.0,0.0,0.0,0.0,0.0,0.0,0.0,0.0,-1.9825,-1.9551,-1.9434,-1.9825,-1.9531,-1.9315,-1.9315,-1.9315,-1.9315,-1.9315,-1.9315,-1.9335,-1.9354,-1.9354,-1.9354,-1.9354,-1.9727,-1.9923,-1.9923,-2.0371,-2.0605,-2.0605,-2.0605,-2.0605,-2.0605,-2.0605,-2.0351,-1.9923,-1.9923,-1.9707,-1.9354,-1.9354,-1.9316,-1.9258,-1.881,-1.8364,-1.803,-1.803,-1.803,-1.803,0.0,0.0,0.0,0.0,0.0,0.0,0.0,-1.8069,-1.7991,-1.7991,-1.8555,-1.875,-1.8225,-1.8633,-1.873,-1.8205,-1.8069,-1.7871,-1.7578,-1.7344,-1.7539,-1.8244,-1.8381,-1.8947,-2.0038,-1.9961,-2.0137,-2.0605,-2.0605,-2.0605,-2.0605,-2.0898,-2.1035,-2.1054,-2.1504,-2.1875,-2.2147,-2.2285,-2.242,-2.2496,-2.1561,-2.1327,-2.1505,0.0,0.0,0.0,0.0,0.0,0.0,0.0,0.0,0.0,0.0,0.0,0.0,0.0,0.0,0.0,0.0,0.0,0.0,0.0,0.0,0.0,0.0,0.0,0.0,0.0,0.0,0.0,0.0,0.0,0.0,0.0,0.0,-2.0058,-1.955,-1.9355,-1.9336,-1.9453,-1.9374,-1.9315,-1.9315,-1.9315,-1.9414,-1.9727,-1.9746,-1.9883,-2.0214,-2.0234,-2.0234,-2.0234,-2.0351,-2.041,-2.041,-2.0546,-2.0605,-2.0605,-2.0605,-2.0605,-2.0605,-2.0605,-2.0546,-2.041,-2.041,-2.0332,-2.0234,-2.0234,-2.0038,-1.9687,-1.9277,-1.9043,-1.8945,-1.8945,-1.8945,-1.8887,0.0,0.0,0.0,0.0,0.0,0.0,0.0,-1.7991,-1.8049,-1.8225,-1.8693,-1.881,-1.8303,-1.8693,-1.8732,-1.8066,-1.7991,-1.7832,-1.7438,-1.7575,-1.7871,-1.8342,-1.8851,-1.9513,-2.0293,-2.0215,-2.0332,-2.0605,-2.0605,-2.0605,-2.0605,-2.084,-2.0957,-2.0977,-2.1426,-2.1737,-2.1971,-2.2168,-2.2362,-2.2537,-2.1971,-2.201,-2.2342,-2.1913,-2.1913,-2.2129,-2.1974,-2.1915,-2.1915,-2.1915,0.0,0.0,0.0,0.0,0.0,0.0,0.0,0.0,0.0,0.0,0.0,0.0,0.0,0.0,0.0,0.0,0.0,0.0,0.0,0.0,0.0,0.0,0.0,0.0,-2.0605,-2.0429,-1.9921,-1.9843,-1.9843,-1.9843,-1.9843,-1.9843,-1.9843,-1.9843,-1.9941,-2.0195,-2.0332,-2.0566,-2.084,-2.1035,-2.1133,-2.1133,-2.1133,-2.1133,-2.1133,-2.0957,-2.084,-2.084,-2.0684,-2.0605,-2.0605,-2.0605,-2.0605,0.0,-2.0605,-2.0605,-2.0605,-2.0605,-2.0429,0.0,0.0,0.0,0.0,0.0,-1.9315,-1.9258,0.0,0.0,0.0,0.0,0.0,0.0,0.0,-1.7991,-1.8147,-1.8539,-1.8637,-1.8656,-1.8617,-1.8637,-1.8498,-1.803,-1.7991,-1.7852,-1.7497,-1.7812,-1.803,-1.8127,-1.9259,-1.9923,-1.998,-2.039,-2.0605,-2.0605,-2.0605,-2.0605,-2.0605,-2.0605,-2.0605,-2.0625,-2.0957,-2.1151,-2.123,-2.1641,-2.1857,-2.1914,-2.2285,-2.2674,-2.3006,-2.2693,-2.2557,-2.2518,-2.2168,-2.2052,-2.2052,-2.2052,0.0,0.0,0.0,0.0,0.0,0.0,0.0,0.0,0.0,0.0,0.0,0.0,0.0,0.0,0.0,0.0,0.0,0.0,0.0,0.0,0.0,0.0,0.0,0.0,-2.0605,-2.0625,-2.0644,-2.0664,-2.0644,-2.0605,-2.0644,-2.0664,-2.0664,-2.0723,-2.0762,-2.0762,-2.1074,-2.1288,-2.1288,0.0,0.0,0.0,0.0,-2.1915,-2.1915,-2.1484,-2.1288,-2.1268,-2.0918,-2.0762,-2.0723,-2.0684,-2.0664,-2.0683,-2.0625,-2.0605,-2.0605,-2.0605,-2.0605,-2.0566,-2.0137,-1.9766,-1.9452,-1.9452,-1.9452,-1.9452,0.0,0.0,0.0,0.0,0.0,0.0,0.0,-1.7991,-1.8147,-1.8539,-1.8927,-1.9023,-1.8637,-1.8927,-1.8848,-1.8069,-1.7991,-1.7969,-1.7891,-1.7969,-1.832,-1.9022,-1.9609,-2.0078,-2.0468,-2.0547,-2.0605,-2.0605,-2.0605,-2.0605,-2.0605,-2.0605,-2.0605,-2.0605,-2.0684,-2.0898,-2.121,-2.1308,-2.1542,-2.1915,-2.1973,-2.2266,-2.2635,-2.2908,-2.2984,-2.2964,-2.2908,-2.2869,-2.2869,-2.2869,-2.2596,-2.2186,-2.1875,-2.1465,0.0,0.0,0.0,0.0,0.0,0.0,0.0,0.0,0.0,0.0,0.0,0.0,0.0,0.0,0.0,0.0,0.0,0.0,0.0,-2.0605,-2.0605,-2.0703,-2.1035,-2.1093,-2.0957,-2.0644,-2.0879,-2.1093,-2.1093,-2.1426,-2.1661,-2.1661,-2.1719,-2.1758,-2.1758,-2.1857,0.0,-2.1915,-2.1915,-2.1915,-2.1915,-2.1797,-2.1758,-2.1758,0.0,0.0,-2.1641,-2.1269,-2.1093,-2.1074,-2.0742,-2.0605,-2.0605,-2.0605,-2.0605,-2.0605,-2.0507,-2.0429,-2.0351,-2.0351,-2.0351,-2.0293,0.0,0.0,0.0,0.0,0.0,0.0,0.0,-1.7991,-1.8147,-1.8539,-1.881,-1.8869,-1.8617,-1.8635,-1.8398,-1.7754,-1.7483,-1.7444,-1.7676,-1.8069,-1.8596,-1.9276,-1.9921,-2.0351,-2.0605,-2.0605,-2.0605,-2.0605,-2.0605,-2.0605,-2.0605,-2.0605,-2.0605,-2.0605,-2.0605,-2.0703,-2.0898,-2.0898,-2.1055,-2.127,-2.1465,-2.1659,-2.1893,-2.2323,-2.2498,-2.2498,-2.2498,-2.2498,-2.2498,-2.2498,-2.2206,-2.1815,-2.1601,-2.125,-2.082,0.0,0.0,0.0,0.0,0.0,0.0,0.0,0.0,0.0,0.0,0.0,0.0,0.0,0.0,-2.0039,0.0,0.0,-2.0683,-2.0859,-2.0898,-2.1055,-2.1504,-2.1542,-2.1484,-2.127,-2.1426,-2.1542,-2.1542,-2.1758,-2.1915,-2.1915,-2.209,-2.2207,-2.2207,-2.2402,-2.2498,-2.2498,-2.2498,-2.2498,-2.2498,-2.2305,-2.2207,-2.2207,-2.2013,-2.1915,-2.1896,-2.166,-2.1542,-2.1543,-2.1348,-2.1114,-2.0879,-2.0684,-2.0605,-2.0605,-2.0605,-2.0605,-2.0605,-2.0605,-2.0605,-2.0566,0.0,0.0,0.0,0.0,0.0,0.0,0.0,-1.7991,-1.8147,-1.8539,-1.8598,-1.8598,-1.8598,-1.8322,-1.7952,-1.7539,-1.7171,-1.7152,-1.7598,-1.8479,-1.9103,-1.9394,-2.0253,-2.0684,-2.0605,-2.0605,-2.0605,-2.0605,-2.0605,-2.0605,-2.0605,-2.0605,-2.0605,-2.0605,-2.0605,-2.0605,-2.0605,-2.0605,-2.0605,-2.0644,-2.0937,-2.1093,-2.1113,-2.1504,-2.1759,-2.1915,-2.1915,-2.1915,-2.1915,-2.1915,-2.166,-2.1327,-2.1229,-2.0996,-2.0625,-2.0176,-1.998,0.0,0.0,0.0,0.0,0.0,0.0,0.0,0.0,0.0,-1.9531,-1.9961,-2.0039,-2.0176,-2.0625,-2.0723,-2.0859,-2.1269,-2.1347,-2.1484,-2.1953,-2.2032,-2.2031,-2.2109,-2.2051,-2.2032,-2.2032,-2.209,-2.2129,-2.2129,-2.242,-2.2615,-2.2615,-2.2906,-2.3101,-2.3101,-2.3101,-2.3101,-2.3101,-2.2791,-2.2615,-2.2615,-2.2285,-2.2129,-2.2129,-2.2051,-2.2032,-2.2012,-2.1914,-2.168,-2.1308,-2.0879,-2.0723,-2.0703,-2.0644,-2.0605,-2.0605,-2.0605,-2.0605,-2.0605,0.0,0.0,0.0,0.0,0.0,0.0,0.0,0.0,-1.8147,-1.8539,-1.8598,-1.8598,-1.8598,-1.8559,-1.8364,-1.7969,-1.7874,-1.803,-1.8442,-1.9668,-2.0214,-1.9863,-2.0664,-2.0977,-2.0625,-2.0605,-2.0605,-2.0605,-2.0605,-2.0605,-2.0605,-2.0605,-2.0605,-2.0605,-2.0605,-2.0605,-2.0605,-2.0605,-2.0605,-2.0605,-2.0644,-2.0683,-2.0664,-2.0742,-2.1231,-2.1915,-2.1915,-2.1915,-2.1915,-2.1915,-2.1876,-2.1738,-2.1347,-2.1171,-2.1054,-2.0644,-2.0234,-1.9883,-1.9863,-1.957,-1.9393,-1.9746,-1.9551,-1.9511,0.0,0.0,-1.9961,-2.0429,-2.0508,-2.0644,-2.1054,-2.1112,-2.1288,-2.1738,-2.1816,-2.1953,-2.2383,-2.242,-2.2557,-2.2906,-2.2654,-2.242,-2.242,-2.2752,-2.2986,-2.2986,-2.3003,-2.3023,-2.3023,-2.3081,-2.3101,-2.3101,-2.3101,-2.3101,-2.3101,-2.3042,-2.3023,-2.3023,-2.3006,-2.2986,-2.2945,-2.2596,-2.242,-2.2401,-2.2072,-2.1876,-2.1777,-2.1327,-2.1112,-2.1093,-2.0742,-2.0605,-2.0605,-2.0605,-2.0605,-2.0605,0.0,0.0,0.0,0.0,0.0,0.0,0.0,0.0,0.0,-1.8225,-1.8264,-1.8264,-1.8264,-1.803,-1.7718,-1.7288,-1.7698,-1.8069,-1.8244,-1.9726,-2.0508,-2.0312,-2.1133,-2.1523,-2.1368,-2.1094,-2.0957,-2.0957,-2.0703,-2.0605,-2.0605,-2.0605,-2.0605,-2.0605,-2.0605,-2.0605,-2.0605,-2.0605,-2.0605,-2.0605,-2.0605,-2.0605,-2.0605,-2.0605,-2.0664,-2.0781,-2.1055,-2.0977,0.0,-2.1055,-2.0977,-2.0742,-2.082,-2.0644,-2.0449,-2.0566,-2.0273,-1.9961,-2.0215,-2.0175,-2.0156,0.0,-2.0527,-2.0586,-2.1211,-2.1387,-2.1484,-2.166,-2.1894,-2.203,-2.1971,-2.1952,-2.201,0.0,-2.2246,-2.2402,-2.2791,-2.2849,-2.2927,-2.3081,-2.2945,-2.2849,-2.2849,-2.2984,-2.3101,-2.3101,-2.3101,-2.3101,-2.3101,-2.3101,-2.3101,-2.3101,-2.3101,-2.3101,-2.3101,-2.3101,-2.3101,-2.3101,-2.3101,-2.3101,-2.3081,-2.2927,-2.2849,-2.283,-2.242,-2.2246,-2.2227,-2.1777,-2.1621,-2.1562,-2.1133,-2.0957,-2.0918,-2.0684,-2.0605,-2.0605,0.0,0.0,0.0,0.0,0.0,0.0,0.0,0.0,0.0,0.0,-1.7991,-1.7991,-1.7991,-1.7637,-1.7305,-1.7077,-1.7737,-1.8225,-1.8359,-1.9999,-2.0899,-2.0781,-2.1582,-2.2012,-2.1915,-2.1582,-2.1386,-2.1386,-2.1114,-2.0977,-2.0977,-2.082,-2.0762,-2.0762,-2.0644,-2.0605,-2.0605,-2.0605,-2.0605,-2.0605,-2.0605,-2.0605,-2.0605,-2.0605,-2.0312,-1.9942,-2.0293,-2.0136,-1.9785,-2.0117,-2.0019,-1.9805,-2.0136,-2.0019,-1.9824,-2.0273,-2.0156,-2.0,-2.0468,-2.0684,0.0,-2.1425,-2.1659,-2.1855,-2.2189,-2.2461,-2.2654,-2.2654,-2.281,-2.2888,-2.2715,-2.2598,-2.2537,-2.2654,-2.2654,-2.2771,-2.3042,-2.3198,-2.3298,-2.3298,-2.3298,-2.3337,-2.3454,-2.3237,-2.314,-2.3279,-2.3298,-2.3337,-2.3432,-2.3474,-2.3474,-2.3474,-2.3474,-2.3415,-2.3298,-2.3298,-2.324,-2.3101,-2.3101,-2.3101,-2.3101,-2.3101,-2.3101,-2.3081,-2.2791,-2.2654,-2.2635,-2.2227,-2.2072,-2.2012,-2.1562,-2.1307,-2.1151,-2.0879,-2.0684,-2.0605,0.0,0.0,0.0,0.0,0.0,0.0,0.0,0.0,0.0,0.0,0.0,0.0,0.0,-1.7637,-1.7539,-1.793,-1.8325,-1.8771,-1.9219,-2.0879,-2.166,-2.119,-2.201,-2.2305,-2.1915,-2.1896,-2.1896,-2.1896,-2.1876,-2.1876,-2.1857,-2.1386,-2.1171,-2.1151,-2.0781,-2.0605,-2.0605,-2.0605,-2.0605,-2.0605,-2.0605,-2.0605,-2.0605,-2.0605,-2.0312,-1.9903,-1.9923,-1.9668,-1.9335,-1.9316,-1.9335,-1.9335,-1.9316,-1.9335,-1.9413,-1.9786,-1.9903,-2.0,-2.0468,0.0,-2.1405,-2.2245,-2.2793,-2.3127,-2.3169,-2.3125,-2.3081,-2.3081,-2.2791,-2.2656,-2.3088,-2.2814,-2.2615,-2.3003,-2.3081,-2.3081,-2.3101,-2.3474,-2.3769,-2.3769,-2.3769,-2.3926,0.0,-2.361,-2.3298,-2.373,-2.3769,-2.3945,-2.4332,-2.4352,-2.4352,-2.4352,-2.4352,-2.418,-2.3769,-2.3769,-2.3555,-2.3101,-2.3101,-2.3101,-2.3101,-2.3101,-2.3101,-2.3101,-2.3081,-2.3081,-2.3042,-2.2654,-2.2479,-2.2441,-2.2052,-2.1602,-2.119,-2.1191,-2.0937,-2.0605,0.0,0.0,0.0,0.0,0.0,0.0,0.0,0.0,0.0,0.0,0.0,0.0,0.0,0.0,0.0,0.0,-1.8381,-1.881,-1.9276,-2.0644,-2.1503,-2.166,-2.2459,-2.283,-2.2693,-2.242,-2.2305,-2.2305,-2.2031,-2.1915,-2.1896,-2.1738,-2.166,-2.166,-2.1524,-2.1466,-2.1466,-2.1466,-2.1269,-2.0996,-2.0996,-2.084,-2.0605,-2.0605,-2.0136,-1.9492,0.0,-1.9201,-1.8888,-1.9199,-1.9102,-1.8888,-1.9199,-1.9082,-1.8927,-1.9375,-1.9687,-2.0137,-2.1192,0.0,-2.1934,-2.3086,-2.3477,-2.3675,-2.3926,-2.3984,-2.3962,-2.3962,-2.3845,-2.373,-2.3616,-2.3457,-2.3301,-2.312,-2.3101,-2.322,-2.3535,-2.3691,-2.3887,-2.418,-2.4199,0.0,0.0,0.0,0.0,-2.418,-2.4199,-2.4277,-2.4391,-2.4391,-2.4391,-2.4391,-2.4391,-2.4355,-2.4199,-2.3926,-2.3711,-2.3574,-2.3259,-2.3101,-2.3101,-2.3101,-2.3101,-2.3101,-2.3101,-2.3101,-2.3081,-2.2945,-2.2908,-2.2869,-2.2461,-2.2186,-2.1991,-2.1405,-2.1113,-2.0977,0.0,0.0,0.0,0.0,0.0,0.0,0.0,0.0,0.0,0.0,0.0,0.0,0.0,0.0,0.0,0.0,0.0,-1.8732,-1.9043,-2.0098,-2.1015,-2.1621,-2.2147,-2.2555,-2.2888,-2.2479,-2.2363,-2.2498,-2.2246,-2.2187,-2.2324,-2.2187,-2.2109,-2.2109,-2.1953,-2.1915,-2.1915,-2.1915,-2.1719,-2.1445,-2.1288,-2.0977,-2.0586,-2.041,-1.9823,0.0,-1.9062,-1.8752,-1.844,-1.873,-1.8652,-1.844,-1.875,-1.8848,-1.8869,-1.9005,-1.9669,-2.0547,-2.1426,-2.1992,-2.2598,-2.373,-2.4004,-2.4121,-2.4551,-2.4531,-2.4391,-2.4391,-2.4157,-2.3903,-2.3809,-2.344,-2.3125,-2.3081,-2.2964,-2.3103,-2.3711,-2.3926,-2.418,-2.4609,-2.4648,0.0,0.0,0.0,0.0,-2.4629,-2.4648,-2.4727,-2.4859,-2.4859,-2.4859,-2.4859,-2.4859,-2.4805,-2.4648,-2.4375,-2.4124,-2.3789,-2.3318,-2.3101,-2.3101,-2.3101,-2.3101,-2.3101,-2.3101,-2.3101,-2.3101,-2.3101,-2.3101,-2.3062,-2.283,-2.2615,-2.242,-2.1874,-2.1484,-2.1152,0.0,0.0,0.0,0.0,0.0,0.0,0.0,0.0,0.0,0.0,0.0,0.0,0.0,0.0,0.0,0.0,0.0,0.0,-1.8598,-1.9396,-2.0254,-2.1093,-2.1171,-2.1601,-2.242,-2.207,-2.209,-2.248,-2.248,-2.2654,-2.3023,-2.2654,-2.248,-2.244,-2.207,-2.1915,-2.1915,-2.1915,-2.1896,-2.1837,-2.1386,-2.0977,-2.0566,-2.0078,-1.9376,-1.8637,-1.8617,-1.8325,-1.7991,-1.801,-1.8066,-1.8066,-1.8066,-1.8652,-1.9238,-1.8849,-1.9923,-2.1249,-2.1327,-2.2204,-2.3357,-2.4176,-2.4391,-2.4531,-2.4965,-2.4687,-2.4352,-2.4332,-2.3669,-2.3201,0.0,0.0,-2.2168,-2.2967,-2.2771,-2.2852,-2.3711,-2.416,-2.459,0.0,0.0,0.0,0.0,0.0,0.0,-2.5121,0.0,-2.5317,-2.5698,-2.5693,-2.5693,-2.5693,-2.5693,-2.5503,-2.5121,-2.5102,-2.4652,-2.3789,-2.3357,-2.312,-2.3101,-2.3101,-2.3101,-2.3101,-2.3101,-2.3101,-2.3101,-2.3101,-2.3101,-2.3101,-2.3101,-2.2869,-2.2518,-2.2519,-2.1971,-2.121,0.0,0.0,0.0,0.0,0.0,0.0,0.0,0.0,0.0,0.0,0.0,0.0,0.0,0.0,0.0,0.0,0.0,0.0,-1.8578,-1.9141,-1.9687,-2.0215,-2.0839,-2.1288,-2.1542,-2.1777,-2.1954,-2.2051,-2.2051,-2.2109,-2.2207,-2.209,-2.2051,-2.2031,-2.1954,-2.1915,-2.1915,-2.1915,-2.1699,-2.1366,-2.1249,-2.0977,-2.0566,-2.0078,-1.959,-1.9082,-1.8732,-1.8325,-1.8066,-1.8361,0.0,0.0,0.0,-1.9316,-1.9844,-2.0372,-2.1093,-2.1934,-2.2871,-2.3379,-2.375,-2.4254,-2.4391,-2.443,-2.4551,-2.4258,-2.3848,-2.3513,-2.3025,-2.2596,0.0,0.0,0.0,-2.2615,-2.283,0.0,-2.4118,-2.4355,0.0,-2.5445,0.0,-2.5581,-2.5698,-2.5601,0.0,0.0,-2.5542,-2.5581,-2.5674,-2.5693,-2.5693,-2.5693,-2.5693,-2.5659,-2.5542,-2.5258,-2.4652,-2.3789,-2.3672,-2.3435,-2.3101,-2.3101,-2.3101,-2.3101,-2.3101,-2.3101,-2.3101,-2.3101,-2.3101,-2.3101,-2.3101,-2.3042,-2.2927,-2.2596,-2.2362,-2.2049,0.0,0.0,0.0,0.0,0.0,0.0,0.0,0.0,0.0,0.0,0.0,0.0,0.0,0.0,0.0,0.0,0.0,0.0,0.0,-1.8594,-1.9004,-1.9609,-2.0117,-2.0566,-2.0937,-2.1172,-2.1426,-2.1581,-2.1581,-2.1699,-2.1915,-2.1915,-2.1915,-2.1915,-2.1915,-2.1915,-2.1915,-2.1915,-2.1738,0.0,0.0,-2.0977,-2.0566,-2.0078,-1.9513,-1.8965,-1.8695,-1.8596,-1.8633,0.0,0.0,-1.9551,-1.9551,-2.0117,-2.0879,-2.1347,0.0,-2.3144,-2.3867,-2.4199,-2.4418,-2.4648,-2.4414,-2.4102,-2.3906,-2.3535,-2.3105,-2.2654,-2.2225,0.0,0.0,0.0,0.0,0.0,0.0,0.0,-2.4254,-2.4391,-2.4723,0.0,-2.5693,0.0,-2.5693,-2.5693,-2.5693,0.0,-2.5693,-2.5693,-2.5693,-2.5693,-2.5693,-2.5693,-2.5693,-2.5693,-2.5693,-2.5293,-2.4848,-2.4378,-2.3965,-2.3652,-2.3396,-2.3179,-2.3101,-2.3101,0.0,-2.3101,-2.3101,-2.3101,-2.3101,-2.3101,-2.3101,-2.3101,-2.3081,-2.3086,-2.2949,-2.2734,0.0,0.0,0.0,0.0,0.0,0.0,0.0,0.0,0.0,0.0,0.0,0.0,0.0,0.0,0.0,0.0,0.0,0.0,0.0,0.0,-1.834,-1.9082,-1.9256,-1.9647,-2.041,-2.0546,-2.0781,-2.1132,-2.1132,-2.1327,-2.1739,-2.1739,-2.1739,-2.1739,-2.1739,-2.1739,-2.1739,-2.1739,-2.1739,-2.17,-2.1269,-2.0918,-2.0566,0.0,-1.9435,-1.8773,-1.8715,-1.8947,0.0,0.0,-1.9981,-2.0,-2.0059,-2.0957,-2.2013,-2.213,-2.3262,-2.4489,-2.4547,-2.4785,-2.5004,-2.5004,-2.4336,-2.3594,-2.3186,-2.2793,-2.2383,-2.1894,0.0,-2.1308,-2.166,-2.1425,-2.1484,-2.2305,0.0,-2.2927,-2.4215,-2.4391,-2.4723,-2.5601,-2.5693,-2.5693,-2.5693,-2.5693,-2.5693,-2.5693,-2.5693,-2.5693,-2.5693,-2.5693,-2.5693,-2.5693,-2.5693,-2.5693,-2.5693,-2.5352,-2.516,-2.5082,-2.4339,-2.3906,-2.3769,-2.3376,-2.3162,-2.3101,0.0,0.0,-2.3101,-2.3101,-2.3101,-2.3101,-2.3159,-2.3179,-2.3259,-2.3711,-2.3655,-2.3342,0.0,0.0,0.0,0.0,0.0,0.0,0.0,0.0,0.0,0.0,-1.9727,-1.9513,0.0,0.0,0.0,0.0,0.0,0.0,0.0,0.0,0.0,-1.8223,-1.8906,-1.9374,-1.953,-2.0214,-2.0625,-2.0703,-2.0703,-2.0762,-2.084,-2.084,-2.084,-2.084,-2.084,-2.084,-2.084,-2.084,-2.084,-2.082,-2.0723,-2.0644,-2.0566,-2.0078,0.0,0.0,-1.9297,-1.9219,-1.9432,-2.0214,-2.0468,-2.0547,-2.0859,-2.162,-2.2539,-2.3262,-2.4183,-2.5063,-2.5386,-2.4996,-2.4531,-2.4531,-2.3864,-2.3123,-2.2693,-2.2559,0.0,0.0,-2.1269,-2.1132,-2.0859,-2.1035,0.0,-2.1914,0.0,0.0,0.0,0.0,-2.4723,0.0,0.0,0.0,0.0,0.0,0.0,0.0,0.0,0.0,-2.5693,-2.5693,-2.5693,-2.5693,-2.5693,-2.5693,-2.5693,-2.564,-2.543,-2.5082,-2.4945,-2.4496,-2.3789,-2.3711,-2.3454,-2.3101,-2.3101,0.0,-2.3101,-2.3101,-2.3101,-2.314,-2.3535,-2.3672,-2.373,-2.4137,-2.4235,-2.4141,0.0,0.0,0.0,0.0,0.0,0.0,0.0,-2.0429,-2.0429,-1.9962,-1.9903,-1.9746,-1.9336,-1.8888,-1.8635,0.0,0.0,0.0,0.0,0.0,0.0,0.0,-1.8828,-1.9315,-1.9315,-2.0156,0.0,0.0,0.0,-2.0605,-2.0605,0.0,0.0,-2.0605,-2.0605,-2.0605,-2.0605,-2.0605,-2.0605,-2.0605,-2.0605,-2.0605,-2.0586,0.0,0.0,0.0,0.0,0.0,-1.9668,-2.0078,-2.0527,-2.1035,-2.1679,-2.2615,-2.3571,-2.3984,-2.5195,-2.629,-2.5834,-2.5686,-2.5479,-2.4634,-2.3923,-2.322,-2.2383,0.0,0.0,0.0,-2.0898,-2.082,-2.0644,0.0,0.0,0.0,0.0,0.0,0.0,0.0,0.0,0.0,0.0,0.0,0.0,0.0,0.0,0.0,0.0,0.0,-2.5693,-2.5693,-2.5693,-2.5693,-2.5693,-2.5693,-2.5693,-2.5693,-2.5601,-2.541,-2.52,-2.4867,-2.4457,-2.4027,-2.3672,-2.3435,-2.322,0.0,-2.3454,-2.3454,-2.3591,-2.3806,-2.4023,-2.4121,-2.416,-2.459,-2.4746,-2.475,0.0,0.0,0.0,0.0,0.0,0.0,0.0,-2.0293,-2.0351,-2.0078,-1.9962,-1.9785,-1.9453,-1.8927,-1.8791,0.0,0.0,0.0,0.0,0.0,0.0,0.0,0.0,0.0,0.0,0.0,0.0,0.0,0.0,0.0,0.0,0.0,0.0,0.0,0.0,0.0,-2.0605,-2.0605,-2.0605,0.0,0.0,0.0,0.0,0.0,0.0,0.0,0.0,0.0,0.0,0.0,-2.0566,-2.121,-2.1971,-2.3103,-2.4137,-2.4235,-2.569,-2.7043,-2.5979,-2.6131,-2.6233,-2.4773,-2.4205,-2.3628,-2.2211,-2.2081,0.0,0.0,-2.0605,-2.0605,-2.0605,0.0,-2.121,0.0,0.0,0.0,0.0,0.0,0.0,0.0,0.0,0.0,0.0,0.0,0.0,0.0,0.0,0.0,-2.5693,-2.5693,-2.5693,-2.5693,-2.5693,-2.5693,-2.5693,-2.5693,-2.5693,-2.5718,-2.5371,-2.5239,-2.52,-2.4339,-2.3965,-2.4066,-2.3474,0.0,0.0,-2.3926,-2.4121,-2.441,-2.4512,-2.4551,-2.4609,-2.5059,-2.5239,-2.5239,0.0,0.0,0.0,0.0,0.0,0.0,0.0,-2.0195,-2.0098,-2.0507,-2.0156,-1.9902,-1.9844,-1.9103,-1.8791,0.0,0.0,0.0,0.0,0.0,0.0,0.0,0.0,0.0,0.0,0.0,0.0,0.0,0.0,0.0,0.0,0.0,0.0,0.0,0.0,0.0,0.0,-2.0605,0.0,0.0,0.0,0.0,0.0,0.0,0.0,0.0,0.0,0.0,0.0,0.0,0.0,-2.0723,-2.1171,-2.2185,-2.3318,-2.373,0.0,0.0,-2.5796,-2.562,-2.5356,-2.4591,-2.4573,-2.4217,-2.232,0.0,0.0,-2.0996,-2.0605,-2.0605,-2.0605,-2.0644,-2.0801,0.0,0.0,-2.2187,0.0,0.0,0.0,0.0,0.0,0.0,0.0,0.0,0.0,0.0,0.0,0.0,0.0,-2.5693,-2.5693,-2.5693,-2.5693,-2.5693,-2.5693,-2.5693,-2.5693,-2.5693,-2.5654,-2.5659,-2.562,-2.4742,-2.457,-2.4926,-2.4105,0.0,0.0,-2.4332,-2.4352,-2.443,-2.4887,-2.5024,-2.5082,-2.5484,-2.5659,-2.5659,0.0,0.0,0.0,0.0,0.0,0.0,-2.0215,-2.0254,-2.0293,-2.0195,-2.0019,-2.0019,-2.0293,-1.9298,-1.8791,-1.9258,0.0,0.0,0.0,0.0,0.0,0.0,0.0,0.0,0.0,0.0,0.0,0.0,0.0,0.0,0.0,0.0,0.0,0.0,0.0,0.0,0.0,0.0,0.0,0.0,0.0,0.0,0.0,0.0,0.0,0.0,0.0,0.0,0.0,0.0,0.0,0.0,-1.9844,-2.0915,0.0,0.0,-2.4403,-2.6174,-2.5372,-2.5588,-2.5829,-2.4877,-2.4215,-2.345,-2.2195,0.0,-2.217,-2.0879,-2.0605,-2.0605,-2.0605,-2.0605,-2.0723,-2.1112,-2.1152,0.0,0.0,0.0,0.0,0.0,0.0,0.0,0.0,0.0,0.0,0.0,0.0,0.0,0.0,-2.5693,-2.5693,-2.5693,-2.5693,-2.5693,-2.5693,-2.5693,-2.5693,-2.5693,-2.5971,-2.6133,-2.6113,-2.5762,-2.5547,-2.543,-2.4848,0.0,0.0,-2.4828,-2.4961,-2.521,-2.5386,-2.5469,-2.5488,-2.564,-2.5693,-2.5693,0.0,0.0,0.0,0.0,0.0,-2.0507,-2.0156,-2.0273,-2.0332,-2.0137,-2.0,-2.0039,-2.0351,-1.9668,-1.9238,-1.9296,-1.916,0.0,0.0,0.0,0.0,0.0,0.0,0.0,0.0,0.0,-2.0644,-2.0781,-2.0781,0.0,0.0,0.0,0.0,0.0,0.0,0.0,0.0,0.0,0.0,0.0,0.0,0.0,0.0,0.0,0.0,0.0,0.0,0.0,0.0,0.0,0.0,0.0,0.0,-1.9773,-2.121,0.0,-2.3838,-2.5963,-2.4661,-2.5271,-2.5912,-2.4617,-2.3951,-2.33,0.0,0.0,-2.2029,-2.084,-2.0605,-2.0605,-2.0605,-2.0605,-2.0684,-2.0977,-2.0879,-2.1055,0.0,0.0,0.0,0.0,0.0,0.0,0.0,0.0,0.0,0.0,0.0,0.0,0.0,-2.5693,-2.5693,-2.5693,-2.5693,-2.5693,-2.5693,-2.5693,-2.5693,-2.5693,-2.6055,-2.6328,-2.6562,-2.6309,-2.623,-2.6245,0.0,0.0,0.0,-2.5336,-2.5449,-2.5693,-2.5693,-2.5693,-2.5693,-2.5693,-2.5693,-2.5693,0.0,0.0,0.0,0.0,0.0,0.0,-2.0605,-2.0195,-2.0078,-2.0546,-2.0176,-1.9903,-1.9903,-2.0312,-2.0214,-1.9355,-1.8869,0.0,0.0,0.0,0.0,0.0,0.0,0.0,0.0,0.0,-2.0801,-2.119,-2.119,-2.119,-2.119,0.0,0.0,0.0,0.0,0.0,0.0,0.0,0.0,0.0,0.0,0.0,0.0,0.0,0.0,0.0,0.0,0.0,0.0,0.0,0.0,0.0,0.0,-1.8927,-1.9569,-2.084,-2.3294,-2.5248,-2.365,-2.4388,-2.5206,-2.3527,-2.3973,-2.4282,0.0,0.0,-2.2912,-2.0996,-2.0605,-2.0605,-2.0605,-2.0605,-2.0605,-2.0605,-2.0937,0.0,0.0,0.0,0.0,0.0,0.0,0.0,0.0,0.0,0.0,0.0,0.0,0.0,0.0,-2.5693,-2.5693,-2.5693,-2.5693,-2.5693,-2.5693,-2.5693,-2.5693,-2.5693,-2.5693,-2.6167,-2.6947,-2.6108,-2.6445,0.0,0.0,0.0,0.0,-2.5893,-2.5718,-2.5693,-2.5693,-2.5693,-2.5693,-2.5693,-2.5693,-2.5693,0.0,0.0,0.0,0.0,0.0,0.0,0.0,-2.0468,-2.0429,-2.0586,-2.0468,-2.0371,-2.0371,-2.0215,-2.0156,-2.0175,-2.0058,0.0,0.0,0.0,0.0,0.0,0.0,0.0,0.0,-2.0859,-2.1074,-2.119,-2.1503,-2.168,-2.168,-2.1347,-2.1132,0.0,0.0,0.0,0.0,0.0,0.0,0.0,0.0,0.0,0.0,0.0,0.0,0.0,0.0,0.0,0.0,0.0,0.0,0.0,0.0,0.0,0.0,-1.9402,-2.1201,0.0,-2.2638,-2.3276,-2.3916,-2.3474,-2.3082,-2.2567,-2.1644,0.0,-2.169,-2.0781,-2.0605,-2.0605,-2.0605,-2.0605,-2.0684,-2.0977,-2.1113,0.0,0.0,0.0,0.0,0.0,0.0,0.0,0.0,0.0,0.0,0.0,0.0,0.0,0.0,-2.5874,-2.5693,-2.5693,-2.5693,-2.5693,-2.5693,-2.5693,-2.5693,-2.5693,-2.6035,-2.6328,-2.6582,-2.6576,0.0,0.0,0.0,0.0,0.0,-2.5776,-2.5693,-2.5693,-2.5693,-2.5693,-2.5693,-2.5693,-2.5693,-2.5693,0.0,0.0,0.0,0.0,0.0,0.0,0.0,-2.0605,-2.0605,-2.0605,-2.0605,-2.0605,-2.0605,-2.0351,-2.0293,-2.0586,-2.0742,0.0,0.0,0.0,0.0,0.0,0.0,0.0,-2.0605,-2.0859,-2.1132,-2.1464,-2.1758,-2.1993,-2.2109,-2.1815,-2.1523,-2.119,-2.0937,-2.0742,0.0,0.0,0.0,0.0,0.0,0.0,-2.0605,0.0,0.0,0.0,0.0,0.0,0.0,0.0,0.0,0.0,0.0,0.0,0.0,0.0,-1.9733,-2.1264,0.0,-2.2312,-2.3033,-2.2939,-2.239,0.0,0.0,-2.119,-2.1093,-2.0684,-2.0605,-2.0605,-2.0605,-2.0605,-2.0684,-2.0937,-2.1113,0.0,0.0,0.0,0.0,0.0,0.0,0.0,0.0,0.0,0.0,0.0,0.0,0.0,0.0,0.0,-2.5693,-2.5693,-2.5693,-2.5693,-2.5693,-2.5693,-2.5693,-2.5693,-2.5991,-2.6309,-2.6641,-2.6894,0.0,0.0,0.0,0.0,0.0,-2.5854,-2.5693,-2.5693,-2.5693,-2.5693,-2.5693,-2.5693,-2.5693,-2.5693,0.0,0.0,0.0,0.0,0.0,0.0,0.0,-2.0605,-2.0605,-2.0605,-2.0605,-2.0605,-2.0605,-2.0625,-2.0625,-2.0625,0.0,0.0,0.0,0.0,0.0,0.0,0.0,0.0,-2.0605,-2.0664,-2.1094,-2.1915,-2.1974,-2.2168,-2.2537,-2.2498,-2.2049,-2.1249,-2.121,-2.0977,-2.0605,-2.0605,-2.0605,-2.0605,-2.0605,-2.0605,0.0,0.0,0.0,0.0,0.0,0.0,0.0,0.0,0.0,0.0,0.0,0.0,0.0,0.0,0.0,0.0,0.0,-2.1524,-2.2463,0.0,0.0,0.0,0.0,-2.1171,0.0,-2.0683,-2.0605,-2.0625,-2.0644,-2.0625,-2.0625,-2.0683,0.0,0.0,0.0,0.0,0.0,0.0,0.0,0.0,0.0,0.0,0.0,0.0,0.0,0.0,0.0,0.0,-2.5693,-2.5693,-2.5693,-2.5693,-2.5693,-2.5693,-2.5693,-2.5693,-2.5713,-2.6186,-2.6973,-2.6986,0.0,0.0,0.0,0.0,0.0,-2.6089,-2.5713,-2.5693,-2.5693,-2.5693,-2.5693,-2.5693,-2.5693,-2.5693,0.0,0.0,0.0,0.0,0.0,0.0,0.0,0.0,0.0,0.0,-2.0605,-2.0605,-2.0605,-2.0879,-2.1054,0.0,0.0,0.0,0.0,0.0,0.0,0.0,0.0,0.0,-2.0605,-2.125,-2.17,-2.1915,-2.2539,-2.2869,-2.2945,-2.2635,-2.2227,-2.1719,-2.1366,-2.0977,-2.0605,-2.0605,-2.0605,-2.0605,-2.0605,-2.0605,0.0,0.0,0.0,0.0,-1.959,-1.916,0.0,0.0,0.0,0.0,0.0,0.0,0.0,0.0,-1.8691,-1.9471,-1.9589,0.0,-2.1451,-2.1017,-2.0918,-2.0879,0.0,0.0,0.0,0.0,0.0,0.0,0.0,0.0,0.0,0.0,0.0,0.0,0.0,0.0,0.0,0.0,0.0,0.0,0.0,0.0,0.0,0.0,0.0,0.0,0.0,0.0,-2.5693,-2.5693,-2.5693,-2.5693,-2.5693,-2.5693,-2.5693,-2.5693,-2.605,-2.6348,-2.6543,-2.6875,0.0,0.0,0.0,0.0,-2.6523,-2.6309,-2.601,-2.5693,-2.5693,-2.5693,-2.5693,-2.5693,-2.5693,-2.5693,0.0,0.0,0.0,0.0,0.0,0.0,0.0,0.0,0.0,0.0,0.0,0.0,0.0,0.0,0.0,0.0,0.0,0.0,0.0,0.0,0.0,0.0,0.0,-2.0605,-2.0605,-2.1055,-2.1505,-2.1915,-2.2344,-2.2732,-2.3081,-2.2888,-2.2459,-2.1876,-2.1211,-2.0801,-2.0605,-2.0605,-2.0605,-2.0605,-2.0605,0.0,0.0,0.0,0.0,0.0,-1.9122,-1.883,0.0,-1.8401,-1.8186,-1.7991,0.0,0.0,0.0,0.0,-1.8613,-1.9315,-1.9315,-2.0117,-2.0859,-2.0644,-2.0605,-2.0605,-2.0605,0.0,0.0,0.0,0.0,0.0,0.0,0.0,0.0,0.0,0.0,0.0,0.0,0.0,0.0,0.0,0.0,0.0,0.0,0.0,0.0,0.0,0.0,0.0,0.0,0.0,-2.5693,-2.5693,-2.5693,-2.5693,-2.5693,-2.5693,-2.5693,-2.5693,-2.5952,-2.6191,-2.6412,-2.6621,-2.6836,0.0,0.0,0.0,-2.6387,-2.6387,-2.6108,-2.5693,-2.5693,-2.5693,-2.5693,-2.5693,-2.5693,-2.5693,0.0,0.0,0.0,0.0,0.0,0.0,0.0,0.0,0.0,0.0,0.0,0.0,0.0,0.0,0.0,0.0,0.0,0.0,0.0,0.0,0.0,0.0,-2.0605,-2.0644,-2.0684,-2.0684,-2.1094,-2.1915,-2.1915,-2.2285,-2.3003,-2.3003,-2.2615,-2.1855,-2.1055,-2.0664,-2.0605,-2.0605,-2.0605,-2.0605,-2.0605,0.0,0.0,0.0,0.0,0.0,0.0,0.0,0.0,-1.8108,-1.7991,-1.7991,-1.7991,0.0,0.0,0.0,0.0,0.0,-1.9315,-1.998,-2.0683,-2.0625,-2.0605,-2.0605,-2.0605,0.0,0.0,0.0,0.0,0.0,0.0,-2.0684,0.0,0.0,0.0,0.0,0.0,0.0,0.0,0.0,0.0,0.0,0.0,0.0,0.0,0.0,0.0,0.0,0.0,0.0,0.0,-2.5693,-2.5693,-2.5693,-2.5693,-2.5693,-2.5693,-2.5693,-2.5776,-2.601,-2.6387,-2.6465,-2.6719,0.0,0.0,0.0,-2.6484,-2.6484,-2.6191,-2.5693,-2.5693,-2.5693,-2.5693,-2.5693,-2.5693,-2.5693,0.0,0.0,0.0,0.0,0.0,0.0,0.0,0.0,0.0,0.0,0.0,0.0,0.0,0.0,0.0,0.0,0.0,0.0,0.0,0.0,0.0,-2.0605,-2.0605,-2.0762,-2.1113,-2.1113,-2.1366,-2.1915,-2.1915,-2.2129,-2.2596,-2.2596,-2.2344,-2.1876,-2.1327,-2.0918,-2.0605,-2.0605,-2.0605,-2.0605,-2.0605,0.0,0.0,0.0,0.0,0.0,0.0,0.0,0.0,-1.801,-1.7991,-1.7991,-1.7991,0.0,0.0,0.0,0.0,0.0,-1.9315,-2.0195,-2.1015,-2.0684,-2.0605,-2.0605,-2.0605,-2.0605,0.0,0.0,0.0,0.0,0.0,0.0,0.0,0.0,0.0,0.0,0.0,0.0,0.0,0.0,0.0,0.0,0.0,0.0,0.0,0.0,0.0,0.0,0.0,0.0,0.0,-2.5693,-2.5693,-2.5693,-2.5693,-2.5693,-2.5693,-2.5693,-2.6113,-2.6328,-2.6406,-2.6758,-2.7148,0.0,0.0,-2.7324,-2.6914,-2.6914,-2.642,-2.5693,-2.5693,-2.5693,-2.5693,-2.5693,-2.5693,-2.5693,0.0,0.0,0.0,0.0,0.0,0.0,0.0,0.0,0.0,0.0,0.0,0.0,0.0,0.0,0.0,0.0,0.0,0.0,0.0,0.0,-2.0684,-2.0918,-2.0918,-2.0996,-2.119,-2.119,-2.1425,-2.1915,-2.1915,-2.2109,-2.25,-2.2285,-2.207,-2.1876,-2.1172,-2.0781,-2.0605,-2.0605,-2.0449,-2.0215,0.0,0.0,0.0,0.0,0.0,0.0,0.0,0.0,0.0,0.0,-1.7991,-1.7991,-1.7991,0.0,0.0,0.0,0.0,0.0,-1.9315,-2.0059,-2.0879,-2.0918,-2.1113,-2.129,-2.129,-2.129,0.0,0.0,0.0,0.0,0.0,0.0,0.0,0.0,0.0,0.0,0.0,0.0,0.0,0.0,0.0,0.0,0.0,0.0,0.0,0.0,0.0,0.0,0.0,0.0,-2.5693,-2.5693,-2.5693,-2.5693,-2.5693,-2.5693,-2.5835,-2.6094,-2.6289,-2.6504,-2.6738,-2.6934,-2.7129,-2.7324,0.0,-2.7448,-2.6986,-2.6986,-2.666,-2.603,-2.5815,-2.5693,-2.5693,-2.5693,-2.5693,-2.5693,0.0,0.0,0.0,0.0,0.0,0.0,0.0,0.0,0.0,0.0,0.0,0.0,0.0,0.0,0.0,0.0,0.0,0.0,0.0,-2.0605,-2.0742,-2.1035,-2.1152,-2.1308,-2.1483,-2.1288,-2.1425,-2.1915,-2.17,-2.1797,-2.2186,-2.209,-2.1934,-2.1699,-2.1055,-2.0625,-2.0429,-2.0429,-2.0156,-1.9766,0.0,0.0,0.0,0.0,0.0,0.0,0.0,0.0,0.0,0.0,0.0,0.0,0.0,0.0,0.0,-1.7991,-1.8613,-1.9315,-1.9315,-1.9999,-2.0801,-2.1132,-2.1406,-2.1661,-2.1857,-2.1816,-2.1758,0.0,0.0,0.0,0.0,0.0,0.0,0.0,0.0,0.0,0.0,0.0,0.0,0.0,0.0,0.0,0.0,0.0,0.0,0.0,0.0,0.0,0.0,0.0,-2.5693,-2.5693,-2.5693,-2.5693,-2.5693,-2.5693,-2.5874,-2.623,-2.6348,-2.6562,-2.6875,-2.6973,-2.707,-2.7187,-2.7545,-2.7506,-2.7168,-2.7051,-2.6777,-2.6348,-2.5874,-2.5693,-2.5693,-2.5693,-2.5693,-2.5693,0.0,0.0,0.0,0.0,0.0,0.0,0.0,0.0,0.0,0.0,0.0,0.0,0.0,0.0,0.0,0.0,0.0,0.0,0.0,-2.0605,-2.0625,-2.0644,-2.0996,-2.1581,-2.2381,-2.162,-2.1425,-2.1915,-2.1094,-2.0899,-2.1307,-2.2088,-2.203,-2.1249,-2.1171,-2.0703,-1.9942,-1.9942,-1.9727,-1.9336,-1.9336,0.0,0.0,0.0,0.0,0.0,0.0,0.0,0.0,0.0,0.0,0.0,0.0,0.0,-1.7991,-1.7991,-1.8613,-1.9315,-1.9315,-2.0215,-2.1151,-2.119,-2.0937,-2.0918,-2.172,-2.1542,-2.1366,-2.1797,0.0,0.0,0.0,0.0,0.0,0.0,0.0,0.0,0.0,0.0,0.0,0.0,0.0,0.0,0.0,0.0,0.0,0.0,0.0,0.0,0.0,0.0,0.0,-2.5693,-2.5693,-2.5693,-2.5693,-2.5693,-2.5737,-2.5776,-2.6191,-2.6431,-2.647,-2.6836,-2.7226,-2.7643,-2.7682,-2.7682,-2.7624,-2.7187,-2.6777,-2.6348,-2.5874,-2.5693,-2.5693,-2.5693,-2.5693,-2.5693,0.0,0.0,0.0,0.0,0.0,0.0,0.0,0.0,0.0,0.0,0.0,0.0,0.0,0.0,0.0,0.0,0.0,0.0,0.0,-2.0605,-2.0703,-2.0977,-2.1132,-2.1503,-2.2109,-2.1797,-2.1582,-2.1464,-2.1132,-2.1211,-2.1641,-2.1679,-2.1386,-2.0801,-2.0508,-2.0215,-1.9883,-1.9629,-1.9434,-1.9258,-1.8966,-1.8615,0.0,0.0,0.0,0.0,0.0,0.0,0.0,0.0,-1.7991,-1.7969,-1.7695,-1.7793,-1.7991,-1.7991,-1.8613,-1.9336,-1.9609,-2.041,-2.119,-2.119,-2.1309,-2.1563,-2.2148,-2.2148,-2.2206,-2.293,-2.3088,0.0,0.0,0.0,0.0,0.0,0.0,0.0,0.0,0.0,0.0,0.0,0.0,0.0,0.0,0.0,0.0,0.0,0.0,0.0,0.0,0.0,0.0,-2.5693,-2.5693,-2.5693,-2.5693,-2.5693,-2.5693,-2.5718,-2.642,-2.6777,-2.6797,-2.75,-2.7617,-2.7285,-2.7832,-2.7936,-2.7682,-2.7506,-2.7037,-2.6328,-2.5605,-2.5488,-2.5693,-2.5693,-2.5693,-2.5693,0.0,0.0,0.0,0.0,0.0,0.0,0.0,0.0,0.0,0.0,0.0,0.0,0.0,0.0,0.0,0.0,0.0,0.0,-2.0605,-2.0605,-2.0723,-2.0996,-2.1132,-2.1288,-2.1485,-2.1602,-2.1523,-2.119,-2.119,-2.1288,-2.1485,-2.1288,-2.0996,-2.0586,-2.0254,-1.9961,-1.9687,-1.9432,-1.9139,-1.8848,-1.8537,-1.8244,0.0,0.0,0.0,0.0,0.0,0.0,0.0,0.0,-1.7601,-1.7542,-1.7266,-1.7383,-1.764,-1.7913,-1.8516,-1.9199,-1.9747,-2.043,-2.1035,-2.1171,-2.1445,-2.1855,-2.2537,-2.2715,-2.293,-2.3633,-2.4027,-2.4277,0.0,0.0,0.0,0.0,0.0,0.0,0.0,0.0,0.0,0.0,0.0,0.0,0.0,0.0,0.0,0.0,0.0,0.0,0.0,0.0,0.0,0.0,-2.5693,-2.5693,-2.5693,-2.5693,-2.5693,-2.5718,-2.644,-2.6816,-2.6836,-2.7559,-2.7559,-2.7025,-2.7637,-2.7839,-2.7663,-2.7409,-2.6861,-2.6133,-2.5508,-2.5469,-2.5693,-2.5693,-2.5693,-2.5693,0.0,0.0,0.0,0.0,0.0,0.0,0.0,0.0,0.0,0.0,0.0,0.0,0.0,0.0,0.0,0.0,0.0,0.0,-2.0605,-2.0605,-2.0605,-2.0605,-2.0996,-2.0996,-2.0625,-2.0996,-2.119,-2.119,-2.119,-2.0976,-2.0625,-2.0996,-2.0996,-2.0586,-2.0586,-2.0116,-1.9296,-1.9296,-1.8789,-1.8008,-1.7991,-1.7991,-1.7991,0.0,0.0,0.0,0.0,0.0,0.0,0.0,-1.6707,-1.6707,-1.6687,-1.6707,-1.6882,-1.7737,-1.8303,-1.8792,-1.9669,-2.0253,-2.0703,-2.1113,0.0,0.0,-2.2808,-2.3144,-2.3325,-2.3733,-2.4496,-2.5102,-2.5102,0.0,0.0,0.0,0.0,0.0,0.0,0.0,0.0,0.0,0.0,0.0,0.0,0.0,0.0,0.0,0.0,0.0,0.0,0.0,0.0,0.0,-2.5693,-2.5693,-2.5693,-2.5693,-2.5693,-2.5718,-2.6172,-2.6387,-2.6412,-2.6816,-2.7012,-2.6986,-2.7012,-2.7266,-2.7624,-2.6763,-2.6133,-2.5718,-2.5693,-2.5693,-2.5693,-2.5693,-2.5693,-2.5693,0.0,0.0,0.0,0.0,0.0,0.0,0.0,0.0,0.0,0.0,0.0,0.0,0.0,0.0,0.0,0.0,0.0,0.0,-2.0605,-2.0605,-2.0605,-2.0605,-2.0703,-2.0723,-2.0605,-2.0391,-2.0586,-2.119,-2.0918,-2.0859,-2.1015,-2.084,-2.039,-1.9686,-1.9686,-1.9355,-1.8791,-1.8516,-1.8401,-1.8401,-1.8108,-1.7991,-1.7969,0.0,0.0,0.0,0.0,0.0,0.0,0.0,0.0,0.0,-1.6383,-1.6894,-1.7601,-1.7578,-1.8496,-1.9571,-1.9825,-2.0449,0.0,-2.1171,0.0,0.0,0.0,-2.3123,0.0,0.0,-2.5137,-2.5503,0.0,0.0,0.0,0.0,0.0,0.0,0.0,0.0,0.0,0.0,0.0,0.0,0.0,0.0,0.0,0.0,0.0,0.0,0.0,0.0,0.0,0.0,-2.5693,-2.5693,-2.5693,-2.5693,-2.5693,-2.5693,-2.5835,-2.5913,-2.5932,-2.6654,-2.6654,-2.6128,-2.6732,-2.6914,-2.6783,-2.6509,-2.6309,-2.6172,-2.5835,-2.5693,-2.5693,-2.5693,-2.5693,-2.5693,0.0,0.0,0.0,0.0,0.0,0.0,0.0,0.0,0.0,0.0,-2.1484,-2.1152,0.0,0.0,0.0,0.0,0.0,0.0,0.0,-2.0605,-2.0605,-2.0605,-2.0605,-2.0605,-2.0605,-2.0137,-2.0157,-2.0664,-2.0273,-2.0293,-2.0684,-2.043,-2.0136,-1.9804,-1.9804,-1.9471,-1.8869,-1.8633,-1.8477,-1.8342,-1.8088,-1.791,-1.7734,0.0,0.0,0.0,0.0,0.0,0.0,0.0,0.0,0.0,-1.6183,-1.6735,-1.7542,-1.7796,-1.8576,-1.9493,-2.0039,-2.0684,0.0,-2.1425,-2.2108,-2.2947,-2.373,0.0,0.0,0.0,0.0,0.0,0.0,0.0,0.0,0.0,0.0,0.0,0.0,0.0,0.0,0.0,0.0,0.0,0.0,0.0,0.0,0.0,0.0,0.0,0.0,0.0,0.0,0.0,-2.5693,-2.5693,-2.5693,-2.5693,-2.5693,-2.5693,-2.5693,-2.5693,-2.5737,-2.6245,-2.6206,-2.5732,-2.644,-2.6523,-2.6152,-2.6504,-2.6426,-2.6113,-2.601,-2.5874,-2.5693,-2.5693,-2.5693,-2.5693,0.0,0.0,0.0,0.0,0.0,0.0,0.0,0.0,0.0,0.0,-2.1405,-2.1016,0.0,0.0,0.0,0.0,0.0,0.0,0.0,-2.0605,-2.0605,-2.0605,-2.0605,-2.0605,-2.0605,-2.0098,-1.9863,-1.9863,-1.9473,-1.9512,-1.9903,-1.9903,-2.0137,-2.0546,-2.0546,-2.0077,-1.9315,-1.9238,-1.8789,-1.8049,-1.801,-1.7773,-1.7458,-1.7419,0.0,0.0,0.0,0.0,0.0,0.0,0.0,0.0,-1.6144,-1.6465,-1.7038,-1.8149,-1.8598,-1.8986,-2.0156,-2.084,0.0,-2.1777,-2.2557,0.0,-2.4809,0.0,0.0,0.0,0.0,0.0,0.0,0.0,0.0,0.0,0.0,0.0,0.0,0.0,0.0,0.0,0.0,0.0,0.0,0.0,0.0,0.0,0.0,0.0,0.0,0.0,0.0,0.0,-2.5693,-2.5693,-2.5693,-2.5693,-2.5693,0.0,-2.5693,-2.5693,-2.5693,-2.5693,-2.5693,-2.5713,-2.6152,-2.6133,-2.5835,-2.6615,-2.6498,-2.5874,-2.625,-2.6152,-2.5776,-2.5718,-2.5693,-2.5693,0.0,0.0,0.0,0.0,0.0,0.0,0.0,0.0,0.0,0.0,0.0,0.0,0.0,0.0,0.0,0.0,0.0,0.0,0.0,-2.0605,-2.0605,-2.0605,-2.0605,-2.0605,-2.0605,-1.9823,-1.9434,-1.9434,-1.9336,-1.9512,-1.9903,-1.9903,-1.9942,-2.0059,-2.0059,-1.9766,-1.9276,-1.8908,-1.8637,-1.8442,-1.8127,-1.7949,-1.7832,-1.7516,-1.7341,0.0,0.0,0.0,0.0,0.0,0.0,0.0,-1.6566,-1.7093,-1.7718,-1.7676,-1.8594,-1.961,-1.9589,-2.0371,0.0,0.0,-2.3027,-2.4274,-2.4945,0.0,0.0,0.0,0.0,0.0,0.0,0.0,0.0,0.0,0.0,0.0,0.0,0.0,0.0,0.0,0.0,0.0,0.0,0.0,0.0,0.0,0.0,0.0,0.0,0.0,0.0,-2.5693,-2.5693,-2.5693,-2.5693,-2.5693,-2.5693,0.0,-2.5693,-2.5693,-2.5693,-2.5693,-2.5693,-2.5718,-2.5815,-2.5991,-2.6269,-2.6445,-2.6602,-2.6693,-2.6484,-2.6328,-2.6211,-2.5835,-2.5693,-2.5693,0.0,0.0,0.0,0.0,0.0,0.0,0.0,0.0,0.0,0.0,0.0,0.0,0.0,0.0,0.0,0.0,0.0,0.0,0.0,0.0,-2.0605,-2.0605,-2.0605,-2.0488,-2.0273,-1.9628,-1.918,-1.8947,-1.8947,-1.9199,-1.9609,-1.9824,-2.0118,-2.0527,-2.0527,-2.0312,-1.9882,-1.9219,-1.881,-1.8559,-1.8166,-1.7874,-1.7695,-1.7477,-1.7246,-1.7015,-1.6785,0.0,0.0,0.0,0.0,0.0,0.0,0.0,-1.8008,-1.7988,-1.875,-1.9609,-1.959,0.0,0.0,-2.2598,0.0,-2.4531,-2.4984,0.0,0.0,0.0,0.0,0.0,0.0,0.0,0.0,0.0,0.0,0.0,0.0,0.0,0.0,0.0,0.0,0.0,0.0,0.0,0.0,0.0,0.0,0.0,0.0,-2.5693,-2.5693,-2.5693,-2.5693,-2.5693,-2.5693,-2.5693,-2.5693,-2.5693,-2.5693,-2.5693,-2.5693,-2.5693,-2.5693,-2.5693,-2.5693,-2.5835,-2.6113,-2.6523,-2.6699,-2.6699,-2.6465,-2.6387,-2.6309,-2.5664,-2.5523,-2.5693,0.0,0.0,0.0,0.0,0.0,0.0,0.0,0.0,0.0,0.0,0.0,0.0,0.0,0.0,0.0,0.0,0.0,0.0,0.0,0.0,0.0,-2.0605,-2.0508,-2.0293,-1.9903,-1.9512,-1.9102,-1.8715,-1.8715,-1.8986,-1.953,-1.9863,-2.043,-2.119,-2.119,-2.0977,-2.0546,-1.9667,-1.9082,-1.8693,-1.8186,-1.7793,-1.7516,-1.7516,-1.7266,-1.6921,-1.6921,-1.6921,-1.6921,-1.6921,0.0,0.0,0.0,0.0,-1.8069,-1.8401,-1.881,-1.9258,-1.9669,0.0,-2.209,-2.3381,-2.4004,0.0,0.0,0.0,0.0,0.0,0.0,0.0,0.0,0.0,0.0,0.0,0.0,0.0,0.0,0.0,0.0,0.0,0.0,0.0,0.0,0.0,0.0,0.0,0.0,0.0,-2.5693,-2.5693,-2.5693,-2.5693,-2.5693,-2.5693,-2.5693,-2.5693,-2.5693,-2.5693,-2.5693,-2.5693,-2.5693,-2.5693,-2.5693,-2.5693,-2.5693,-2.5757,-2.5874,-2.6596,-2.6738,-2.6484,-2.6328,-2.6269,-2.6172,-2.5395,-2.5293,-2.5601,0.0,0.0,0.0,0.0,0.0,0.0,0.0,0.0,0.0,0.0,-2.0625,0.0,0.0,0.0,0.0,0.0,0.0,0.0,0.0,0.0,0.0,-2.0605,-2.0195,-1.9962,-1.9903,-1.9512,-1.9276,-1.9217,-1.9217,-1.9628,-2.0429,-2.0468,-2.0742,-2.119,-2.119,-2.0977,-2.0546,-1.9667,-1.9258,-1.9139,-1.834,-1.7969,-1.793,-1.793,-1.7874,-1.7835,-1.7835,-1.7835,-1.7835,-1.7835,-1.7871,0.0,0.0,0.0,-1.801,-1.8069,-1.8381,-1.8773,0.0,0.0,-2.162,0.0,-2.3577,-2.4082,0.0,0.0,0.0,0.0,0.0,0.0,0.0,0.0,0.0,0.0,0.0,0.0,0.0,0.0,0.0,0.0,0.0,0.0,0.0,0.0,0.0,0.0,0.0,0.0,-2.5693,-2.5693,-2.5693,-2.5693,-2.5693,-2.5693,-2.5693,-2.5693,-2.5693,-2.5693,-2.5693,-2.5693,-2.5693,-2.5693,-2.5693,-2.5693,-2.5693,-2.5932,-2.6309,-2.6426,-2.666,-2.683,-2.6089,-2.5796,-2.5737,-2.5278,-2.5121,-2.5239,0.0,0.0,0.0,0.0,0.0,0.0,0.0,0.0,0.0,0.0,0.0,-2.0605,0.0,0.0,0.0,0.0,0.0,0.0,0.0,0.0,0.0,-2.0625,-2.0625,-2.041,-1.9903,-1.9727,-1.9531,-1.9315,-1.9531,-2.0078,-2.0937,-2.1211,-2.1543,-2.1913,-2.1679,-2.1484,-2.1231,-1.9882,-1.9315,-1.9219,-1.8359,-1.8127,-1.8322,-1.8088,-1.8147,-1.8303,-1.8069,-1.7991,-1.7991,-1.7991,-1.7991,-1.7991,-1.7991,0.0,0.0,0.0,-1.8283,-1.881,-1.9784,-2.0449,-2.1113,0.0,-2.2971,0.0,0.0,0.0,0.0,0.0,0.0,0.0,0.0,0.0,0.0,0.0,0.0,0.0,0.0,0.0,0.0,0.0,0.0,0.0,0.0,0.0,0.0,0.0,0.0,-2.5693,-2.5693,-2.5693,-2.5693,-2.5693,-2.5693,-2.5693,-2.5693,-2.5693,-2.5693,-2.5693,-2.5693,-2.5693,-2.5693,-2.5693,-2.5693,-2.5693,-2.5693,-2.5815,-2.603,-2.6289,-2.6504,-2.6582,-2.5703,-2.5664,-2.5996,-2.5059,-2.5019,-2.5469,0.0,0.0,0.0,0.0,0.0,0.0,0.0,0.0,0.0,0.0,0.0,0.0,0.0,0.0,0.0,0.0,0.0,0.0,0.0,0.0,0.0,-2.0625,-2.0762,-2.0566,-1.9903,-1.9903,-1.9747,-1.9453,-1.9863,-2.0508,-2.1386,-2.1738,-2.2168,-2.2635,-2.2129,-2.1778,-2.1466,-1.9941,-1.9315,-1.9219,-1.8459,-1.8325,-1.8578,-1.8401,-1.8518,-1.8732,-1.8303,-1.8147,-1.8127,-1.803,-1.7991,-1.7991,-1.7991,-1.7991,0.0,0.0,0.0,0.0,0.0,0.0,-2.0625,-2.1504,-2.2306,0.0,0.0,0.0,0.0,0.0,0.0,0.0,0.0,0.0,0.0,0.0,0.0,0.0,0.0,0.0,0.0,0.0,0.0,0.0,0.0,0.0,0.0,0.0,0.0,-2.5693,-2.5693,-2.5693,-2.5693,-2.5693,-2.5693,-2.5693,-2.5693,-2.5693,-2.5693,-2.5693,-2.5693,-2.5693,-2.5693,-2.5693,-2.5693,-2.5693,-2.5693,-2.5693,-2.5757,-2.6211,-2.6328,-2.6152,-2.5512,-2.559,-2.5962,-2.4941,-2.5,-2.5562,0.0,0.0,0.0,0.0,0.0,0.0,0.0,0.0,0.0,0.0,0.0,0.0,-2.0605,-2.0937,-2.1171,-2.1171,-2.1582,0.0,0.0,0.0,0.0,-2.0625,-2.0195,0.0,-1.9903,-1.9903,-1.9883,-1.9864,-2.0332,-2.0996,-2.1855,-2.1896,-2.2324,-2.3023,-2.2246,-2.1446,-2.0625,-1.9686,-1.9315,-1.9256,-1.8771,-1.8578,-1.8637,-1.9062,-1.9256,-1.9199,-1.8752,-1.8559,-1.85,-1.8127,-1.7991,-1.7991,-1.7991,-1.7991,-1.7991,0.0,0.0,0.0,0.0,-1.9648,0.0,-2.1035,0.0,0.0,0.0,0.0,0.0,0.0,0.0,0.0,0.0,0.0,0.0,0.0,0.0,0.0,0.0,0.0,0.0,0.0,0.0,0.0,0.0,0.0,0.0,0.0,0.0,-2.5693,-2.5693,-2.5693,-2.5693,-2.5693,-2.5693,-2.5693,-2.5693,-2.5693,-2.5693,-2.5693,-2.5693,-2.5693,-2.5693,-2.5693,-2.5693,-2.5693,-2.5693,-2.5693,-2.5757,-2.6211,-2.6152,-2.5713,-2.5698,-2.5469,-2.516,-2.5082,-2.5082,-2.518,0.0,0.0,0.0,0.0,0.0,0.0,0.0,0.0,0.0,0.0,0.0,0.0,0.0,-2.1562,-2.166,-2.166,-2.1543,0.0,0.0,0.0,0.0,-2.0625,-2.0684,-2.0605,-2.0351,-2.0351,-2.0351,-2.0351,-2.0527,-2.0899,-2.1445,-2.1445,-2.1601,-2.1873,-2.1894,-2.1739,-2.1329,-1.9921,-1.9315,-1.9258,-1.8791,-1.8791,-1.9062,-1.9256,-1.9453,0.0,0.0,0.0,0.0,0.0,0.0,0.0,-1.7991,-1.7991,-1.7991,-1.7991,-1.8108,0.0,0.0,0.0,0.0,0.0,0.0,0.0,0.0,0.0,0.0,0.0,0.0,0.0,0.0,0.0,0.0,0.0,0.0,0.0,0.0,0.0,0.0,0.0,0.0,0.0,0.0,0.0,0.0,0.0,0.0,0.0,-2.5693,-2.5693,-2.5693,-2.5693,-2.5693,-2.5693,-2.5693,-2.5693,-2.5693,-2.5693,-2.5693,-2.5693,-2.5693,-2.5693,-2.5693,-2.5693,-2.5693,-2.5693,-2.5693,-2.5874,-2.5854,-2.5693,-2.5693,-2.562,-2.5445,-2.52,-2.5082,-2.5121,0.0,0.0,0.0,0.0,0.0,0.0,0.0,0.0,0.0,-2.1425,0.0,0.0,0.0,0.0,-2.209,-2.209,-2.1815,-2.1502,-2.121,-2.119,-2.1015,-2.0625,-2.0859,-2.0879,-2.0605,-2.0449,-2.0429,-2.0605,-2.0429,-2.0644,-2.119,-2.119,-2.1268,-2.1445,-2.1466,-2.1466,-2.1387,-2.0077,-1.9492,-1.9473,-1.9162,-1.922,-1.9512,0.0,0.0,0.0,0.0,0.0,0.0,0.0,0.0,0.0,0.0,-1.8108,-1.7991,-1.7991,-1.7991,0.0,-1.9062,0.0,0.0,0.0,0.0,0.0,0.0,0.0,0.0,0.0,0.0,0.0,0.0,0.0,0.0,0.0,0.0,0.0,0.0,0.0,0.0,0.0,0.0,0.0,0.0,0.0,0.0,0.0,0.0,0.0,-2.5693,-2.5693,-2.5693,-2.5693,-2.5693,-2.5693,-2.5693,-2.5693,-2.5693,-2.5693,-2.5693,-2.5693,-2.5693,-2.5693,-2.5693,-2.5693,-2.5693,-2.5693,-2.5693,-2.5693,-2.5693,-2.5718,-2.5874,-2.5835,-2.5679,-2.541,-2.5293,-2.5273,0.0,0.0,0.0,0.0,0.0,0.0,0.0,0.0,-2.1915,-2.1915,0.0,0.0,0.0,0.0,0.0,-2.2498,-2.2479,-2.2108,-2.1249,-2.119,-2.0996,-2.0625,0.0,0.0,-2.0605,-2.0156,-2.0137,-2.0605,-2.0137,-2.0352,-2.1171,-2.119,-2.1445,-2.1857,-2.1016,-2.0625,-2.0586,-2.0098,-1.9883,-1.9923,0.0,-1.9923,-1.9981,0.0,0.0,0.0,-2.0156,-1.9981,0.0,0.0,0.0,0.0,0.0,-1.8325,-1.8027,-1.8027,-1.8027,0.0,0.0,0.0,0.0,0.0,0.0,0.0,0.0,0.0,0.0,0.0,0.0,0.0,0.0,0.0,0.0,0.0,0.0,0.0,0.0,0.0,0.0,0.0,0.0,0.0,0.0,0.0,0.0,0.0,0.0,-2.5693,-2.5693,-2.5693,-2.5693,-2.5693,-2.5693,-2.5718,-2.5737,-2.5718,-2.5718,-2.5737,-2.5718,-2.5693,-2.5693,-2.5693,-2.5693,-2.5693,-2.5693,-2.5693,-2.5693,-2.5693,-2.5718,-2.5776,-2.623,-2.6133,-2.5737,-2.5737,-2.5693,-2.564,0.0,0.0,0.0,0.0,0.0,0.0,-2.1915,-2.2148,-2.2344,0.0,0.0,0.0,-2.2363,-2.242,-2.2498,-2.2498,-2.2227,-2.1816,-2.1229,-2.0937,-2.0723,-2.0605,-2.0605,-2.0605,-2.0605,-2.0468,-2.0468,-2.0605,-2.0468,-2.0527,-2.0781,-2.1054,-2.1288,-2.1386,-2.1132,-2.1035,-2.0957,-1.9902,-1.9843,-2.041,-2.041,-2.0586,0.0,0.0,0.0,0.0,0.0,-2.1835,-2.1269,0.0,-2.0254,-1.9591,0.0,0.0,-1.8422,-1.8422,-1.8422,0.0,-1.9493,0.0,0.0,0.0,0.0,0.0,0.0,0.0,0.0,0.0,0.0,0.0,0.0,0.0,0.0,0.0,0.0,0.0,0.0,0.0,0.0,0.0,0.0,0.0,0.0,0.0,0.0,0.0,-2.5693,-2.5693,-2.5693,-2.5693,-2.5693,-2.5693,-2.5693,-2.5874,-2.6211,-2.5874,-2.5874,-2.6211,-2.5854,-2.5693,-2.5693,-2.5693,-2.5693,-2.5693,-2.5693,-2.5693,-2.5693,-2.5693,-2.5893,-2.623,-2.6348,-2.6309,-2.6211,-2.6211,-2.5801,-2.5273,0.0,0.0,0.0,0.0,0.0,-2.2402,-2.2402,-2.2596,-2.2752,0.0,0.0,0.0,-2.2537,-2.2498,-2.2342,-2.1991,-2.1914,-2.1699,-2.1229,-2.1152,-2.1055,-2.0859,-2.084,-2.0781,-2.0605,-2.0605,-2.0684,-2.084,-2.084,-2.0957,-2.1133,-2.1387,-2.1484,-2.1464,-2.1093,-2.1035,-2.1112,-2.002,0.0,0.0,-2.1016,0.0,0.0,-2.244,-2.2773,0.0,0.0,0.0,-2.2404,-2.2129,-2.1327,0.0,0.0,0.0,0.0,0.0,0.0,0.0,0.0,0.0,0.0,0.0,0.0,0.0,0.0,-2.0605,0.0,0.0,0.0,0.0,0.0,0.0,0.0,0.0,0.0,0.0,0.0,0.0,0.0,0.0,0.0,0.0,0.0,0.0,0.0,-2.5693,-2.5693,-2.5693,-2.5693,-2.5693,-2.5693,-2.5693,-2.5893,-2.603,-2.6113,-2.603,-2.603,-2.6089,-2.5835,-2.5693,-2.5693,-2.5693,-2.5693,-2.5693,-2.5693,-2.5815,-2.5971,-2.5796,-2.5854,-2.6152,-2.6504,-2.6543,-2.6387,-2.6387,-2.6172,-2.5859,0.0,0.0,-2.2674,-2.3042,-2.3101,-2.3101,-2.3101,-2.3101,-2.312,0.0,-2.3181,-2.3064,-2.2732,-2.2615,-2.2245,-2.1463,-2.1758,-2.1777,-2.1308,-2.168,-2.1719,-2.1308,-2.1288,-2.1093,-2.0762,-2.0723,-2.0938,-2.1288,-2.1288,-2.1484,-2.1915,-2.1954,-2.1974,-2.1914,-2.1094,-2.0937,-2.123,0.0,0.0,-2.0742,-2.1622,-2.1973,0.0,0.0,-2.3359,0.0,-2.3396,-2.3398,-2.3403,-2.3306,-2.2383,0.0,0.0,0.0,0.0,0.0,-1.9121,0.0,0.0,0.0,0.0,0.0,0.0,0.0,-2.0605,-2.0605,0.0,0.0,0.0,0.0,0.0,0.0,0.0,0.0,0.0,0.0,0.0,0.0,0.0,0.0,0.0,0.0,0.0,-2.564,-2.5659,-2.5718,-2.5693,-2.5693,-2.5693,-2.5693,-2.5693,-2.5693,-2.6089,-2.6172,-2.5854,-2.6172,-2.6172,-2.5854,-2.5757,-2.5693,-2.5693,-2.5693,-2.5693,-2.5693,-2.5776,-2.5971,-2.6289,-2.5971,-2.5854,-2.5913,-2.6596,-2.6699,-2.6465,-2.6465,-2.6699,-2.6914,0.0,0.0,-2.3003,-2.3081,-2.3101,-2.3101,-2.3101,-2.3101,-2.324,-2.3613,-2.3672,-2.3769,-2.4001,-2.3415,-2.2906,-2.273,-2.2518,-2.2207,-2.1777,-2.1857,-2.1855,-2.1758,-2.1758,-2.1739,-2.1641,-2.1641,-2.168,-2.1758,-2.1758,-2.1797,-2.1915,-2.2227,-2.2362,-2.2363,-2.1876,-2.17,-2.1699,0.0,0.0,-2.1152,-2.203,0.0,-2.3006,-2.4238,-2.4711,-2.4769,-2.5074,-2.5,-2.4613,0.0,-2.2812,-2.1719,0.0,0.0,0.0,0.0,0.0,0.0,0.0,0.0,0.0,0.0,0.0,0.0,-2.0605,-2.0605,0.0,0.0,0.0,0.0,0.0,0.0,0.0,0.0,0.0,0.0,0.0,0.0,0.0,0.0,0.0,0.0,0.0,-2.5219,-2.5352,-2.5679,-2.5693,-2.5693,-2.5693,-2.5693,-2.5693,-2.5693,-2.5796,-2.6128,-2.6732,-2.6147,-2.6147,-2.6732,-2.605,-2.5693,-2.5693,-2.5693,-2.5693,-2.5737,-2.6113,-2.6113,-2.5893,-2.6498,-2.6732,-2.6693,-2.6167,-2.6342,-2.6869,-2.6869,-2.6928,-2.7031,0.0,-2.3101,-2.3159,-2.3396,-2.3435,-2.3513,-2.3728,-2.3747,-2.3825,-2.4082,-2.3926,-2.3711,-2.3496,-2.3064,-2.2713,-2.2539,-2.2498,-2.2401,-2.2207,-2.2402,-2.2422,-2.2207,-2.2207,-2.2109,-2.1894,-2.209,-2.2207,-2.2207,-2.2402,-2.2498,-2.2498,-2.2713,-2.281,-2.2791,-2.2383,-2.209,-2.1876,0.0,-2.1035,-2.1268,-2.2147,0.0,-2.3571,-2.4902,-2.5547,-2.5806,-2.6186,-2.6094,-2.563,-2.475,-2.3733,0.0,0.0,-2.2051,-2.1776,0.0,-2.1387,-2.1484,0.0,0.0,0.0,-2.084,0.0,0.0,0.0,-2.0605,-2.0605,0.0,0.0,0.0,0.0,0.0,0.0,0.0,0.0,0.0,0.0,0.0,0.0,0.0,0.0,0.0,0.0,-2.4746,-2.4922,-2.5371,-2.541,-2.5484,-2.5698,-2.5693,-2.5693,-2.5693,-2.5932,-2.6269,-2.6699,-2.6269,-2.6269,-2.6699,-2.603,-2.5693,-2.5693,-2.5693,-2.5835,-2.603,-2.603,-2.6147,-2.6342,-2.6342,-2.6615,-2.6947,-2.6518,-2.6615,-2.7031,-2.7266,-2.748,-2.7656,-2.322,-2.3318,-2.3415,-2.3633,-2.3789,-2.3965,-2.4118,-2.4215,-2.4274,-2.4274,-2.4141,-2.3769,-2.3086,-2.293,-2.2773,-2.2541,-2.2578,-2.2654,-2.2754,-2.2986,-2.2967,-2.2635,-2.2615,-2.2459,-2.2129,-2.244,-2.2615,-2.2615,-2.2925,-2.3101,-2.3101,-2.3101,-2.3101,-2.3081,-2.2674,-2.2324,-2.1973,0.0,0.0,-2.1619,0.0,-2.3105,-2.3926,-2.5113,-2.5937,-2.6445,-2.6875,-2.6797,-2.6387,-2.561,0.0,-2.3906,-2.3125,-2.281,0.0,0.0,0.0,0.0,0.0,0.0,0.0,0.0,0.0,-2.0723,0.0,0.0,0.0,-2.0605,0.0,0.0,0.0,0.0,0.0,0.0,0.0,0.0,0.0,0.0,0.0,0.0,0.0,0.0,0.0,-2.4352,-2.457,-2.4945,-2.5043,-2.5239,-2.5562,-2.5659,-2.5693,-2.5693,-2.6074,-2.6309,-2.6387,-2.6309,-2.6309,-2.6412,-2.601,-2.5796,-2.5693,-2.5796,-2.5991,-2.625,-2.5952,-2.6186,-2.6693,-2.6089,-2.6245,-2.6869,-2.6869,-2.6992,-2.7187,-2.7565,-2.7956,-2.8242,-2.3633,-2.4023,-2.402,-2.3318,-2.3825,-2.4079,-2.3354,-2.3613,-2.3867,-2.3867,-2.4496,-2.4906,-2.4809,-2.4434,-2.4336,-2.4691,0.0,0.0,-2.3613,0.0,-2.3081,-2.3023,-2.3023,-2.3003,-2.2945,-2.3003,-2.3023,-2.3023,-2.3081,-2.3101,-2.3101,-2.3101,-2.3101,-2.3081,-2.2674,0.0,0.0,0.0,-2.1853,0.0,-2.2984,-2.3337,0.0,-2.4828,-2.5688,-2.6445,-2.6875,-2.6967,-2.6875,0.0,-2.5669,-2.4867,0.0,-2.3945,0.0,0.0,0.0,0.0,0.0,0.0,0.0,0.0,-2.1484,0.0,0.0,0.0,-2.0605,-2.0605,0.0,0.0,0.0,0.0,0.0,0.0,0.0,0.0,0.0,0.0,0.0,0.0,0.0,0.0,0.0,0.0,-2.441,-2.4492,-2.4867,-2.5121,-2.516,-2.5527,-2.5693,-2.5693,-2.5757,-2.5971,-2.6412,-2.5971,-2.5971,-2.6387,-2.6348,-2.6113,-2.5693,-2.6133,-2.6133,-2.5815,-2.6172,-2.6152,-2.5874,-2.6191,-2.6367,-2.6465,-2.6465,-2.6939,-2.7624,-2.7682,-2.7956,-2.8281,-2.3454,-2.3532,0.0,-2.3513,-2.3809,-2.4023,-2.3884,-2.4258,-2.4378,-2.387,-2.4316,-2.459,0.0,0.0,0.0,0.0,0.0,-2.3594,0.0,0.0,-2.3376,-2.3101,0.0,0.0,-2.3101,-2.3101,-2.3101,-2.3101,-2.3101,-2.3101,-2.3101,-2.3101,-2.3101,-2.3081,-2.2906,0.0,-2.2479,0.0,-2.2656,0.0,0.0,0.0,0.0,-2.5879,-2.6738,-2.7519,-2.7695,-2.7598,-2.7324,0.0,-2.6172,0.0,0.0,0.0,0.0,0.0,0.0,0.0,0.0,0.0,0.0,0.0,0.0,0.0,0.0,0.0,-2.0879,0.0,0.0,0.0,0.0,0.0,0.0,0.0,0.0,0.0,0.0,0.0,0.0,0.0,0.0,0.0,0.0,0.0,0.0,0.0,0.0,-2.4574,-2.5063,-2.5278,-2.5469,-2.5674,-2.5693,-2.5913,-2.6412,-2.5932,-2.605,-2.6738,-2.625,-2.603,-2.6113,-2.603,-2.603,-2.6113,-2.6035,-2.6167,-2.6459,-2.6406,-2.6705,-2.7154,-2.7154,-2.737,-2.7721,-2.7956,-2.8171,-2.8301,-2.3218,0.0,0.0,0.0,-2.3809,-2.4023,-2.4219,-2.4414,-2.4316,-2.3691,-2.3984,0.0,-2.4163,-2.3867,0.0,0.0,-2.4629,-2.4316,0.0,0.0,-2.3828,0.0,0.0,0.0,0.0,0.0,-2.3101,-2.3101,-2.3101,-2.3101,-2.3101,-2.3101,-2.3101,-2.3101,0.0,-2.3084,-2.3047,0.0,0.0,-2.4105,-2.4398,-2.5352,-2.6635,-2.7025,-2.7656,-2.8301,-2.8301,-2.8105,-2.78,-2.7344,-2.6674,0.0,-2.5932,0.0,0.0,0.0,0.0,0.0,-2.361,0.0,0.0,0.0,0.0,0.0,0.0,0.0,0.0,0.0,0.0,0.0,0.0,0.0,0.0,0.0,0.0,0.0,0.0,0.0,0.0,0.0,0.0,0.0,0.0,0.0,0.0,0.0,0.0,0.0,-2.4711,-2.4965,-2.5239,-2.5523,-2.5659,-2.5874,-2.6211,-2.5991,-2.6206,-2.6836,-2.6445,-2.6367,-2.6562,-2.6323,-2.6309,-2.6367,-2.6055,-2.6167,-2.6615,-2.6465,-2.6842,-2.7526,-2.7643,-2.7761,-2.7897,-2.8184,-2.8301,-2.8301,-2.3101,-2.3786,0.0,0.0,0.0,0.0,0.0,0.0,0.0,0.0,0.0,0.0,0.0,0.0,0.0,0.0,0.0,-2.5659,-2.5659,0.0,-2.4371,0.0,0.0,-2.3318,0.0,0.0,0.0,-2.3101,-2.3101,-2.3101,-2.3101,-2.3101,-2.3101,-2.3101,-2.3101,-2.3571,-2.4313,-2.3945,-2.4746,-2.6314,-2.6309,-2.7305,-2.873,0.0,-2.7936,-2.8301,-2.8301,0.0,0.0,-2.7819,-2.7344,0.0,0.0,0.0,0.0,0.0,0.0,0.0,0.0,0.0,0.0,-2.3201,0.0,0.0,0.0,0.0,-2.1738,0.0,0.0,0.0,0.0,0.0,-2.0449,-2.0,0.0,0.0,0.0,0.0,0.0,0.0,0.0,0.0,0.0,0.0,0.0,0.0,0.0,0.0,-2.3828,-2.4633,-2.5102,-2.5121,-2.5508,-2.5718,-2.5713,-2.6172,-2.6387,-2.6426,-2.7252,-2.7409,-2.7012,-2.7448,-2.7194,-2.6387,-2.6367,-2.6152,-2.5776,-2.623,-2.6641,-2.709,-2.7526,-2.7936,-2.8281,-2.8281,-2.8301,-2.8301,0.0,0.0,0.0,0.0,0.0,0.0,0.0,-2.3477,0.0,0.0,0.0,0.0,0.0,0.0,-2.623,0.0,0.0,-2.6172,-2.6172,-2.5601,0.0,0.0,0.0,-2.418,0.0,0.0,0.0,0.0,0.0,-2.3962,-2.3962,-2.3962,-2.3962,-2.3962,0.0,-2.4297,0.0,0.0,0.0,0.0,0.0,-2.8164,-2.8859,0.0,0.0,-2.9168,-2.9168,-2.8945,0.0,-2.8535,-2.8027,-2.7448,-2.7311,-2.6881,-2.6367,-2.6211,-2.5932,0.0,0.0,0.0,-2.4879,-2.4137,0.0,0.0,0.0,0.0,0.0,0.0,0.0,0.0,0.0,0.0,-2.0566,-2.039,-2.0507,-2.0527,0.0,0.0,0.0,0.0,0.0,0.0,0.0,0.0,0.0,0.0,0.0,0.0,0.0,-2.4336,-2.4766,-2.5082,-2.5484,-2.5693,-2.5693,-2.6172,-2.6523,-2.6797,-2.709,-2.7305,-2.7467,-2.7305,-2.707,-2.6797,-2.6797,-2.6719,-2.6596,-2.7076,-2.735,-2.7506,-2.7936,-2.8164,-2.8301,-2.8301,-2.8301,-2.8301,-2.3571,0.0,0.0,0.0,0.0,0.0,0.0,0.0,0.0,0.0,-2.582,0.0,-2.7383,0.0,-2.7305,0.0,-2.7702,-2.735,-2.69,-2.6582,0.0,-2.5952,-2.5249,0.0,0.0,0.0,0.0,0.0,0.0,-2.4391,-2.4391,-2.4391,-2.4391,-2.4391,0.0,-2.4824,-2.5571,0.0,-2.6484,0.0,0.0,-2.9004,0.0,0.0,-2.9219,-2.9336,0.0,-2.9258,-2.9141,-2.9141,-2.8691,-2.8132,-2.8132,-2.7637,-2.7096,-2.7096,-2.6758,-2.6362,-2.6206,-2.605,0.0,-2.4863,-2.4648,0.0,-2.3223,0.0,0.0,0.0,0.0,0.0,0.0,0.0,-2.1055,-2.1055,-2.0781,-2.0605,0.0,-2.0605,0.0,0.0,0.0,0.0,0.0,0.0,0.0,-2.2635,-2.2693,0.0,0.0,0.0,-2.4394,-2.4848,-2.5273,-2.5562,-2.5693,-2.6328,-2.6738,-2.6986,-2.7324,-2.7617,-2.7897,-2.7598,-2.7383,-2.7246,-2.7246,-2.7148,-2.7006,-2.7324,-2.7545,-2.7721,-2.7995,-2.8164,-2.8301,-2.8301,-2.8301,-2.8301,0.0,0.0,0.0,0.0,-2.418,0.0,0.0,0.0,-2.5718,0.0,-2.6537,-2.7402,-2.8301,-2.8379,-2.8738,-2.952,-2.9598,0.0,-2.7858,-2.7761,0.0,0.0,-2.6069,-2.601,-2.6465,0.0,0.0,0.0,0.0,0.0,-2.4449,-2.4449,-2.4449,-2.4449,-2.4449,0.0,-2.6387,-2.647,-2.7422,-2.8996,-2.9461,-2.9872,-3.0156,-2.9755,-2.9316,-2.8918,-2.8957,-2.9258,-2.9618,-2.9618,-2.9316,-2.8918,-2.8918,-2.8672,-2.832,-2.832,-2.8054,-2.7624,-2.7187,-2.6777,-2.6275,-2.5395,0.0,0.0,0.0,0.0,-2.4238,0.0,0.0,0.0,0.0,0.0,0.0,-2.1894,-2.1172,-2.0605,-2.0605,0.0,0.0,0.0,0.0,0.0,0.0,0.0,-2.1875,-2.1935,-2.2635,-2.2886,0.0,0.0,-2.3984,-2.4391,-2.4867,-2.5293,-2.5713,-2.6576,-2.7006,-2.7025,-2.7891,-2.8301,-2.8301,-2.8301,-2.8093,-2.7702,-2.7721,-2.7441,-2.6986,-2.7031,-2.7285,-2.7702,-2.7663,-2.7917,-2.8262,-2.8281,-2.8301,-2.8301,-2.4391,-2.4668,-2.498,0.0,-2.4762,-2.4391,0.0,0.0,0.0,0.0,-2.7637,-2.8418,-2.957,-2.9707,-2.9668,-2.9598,-2.9598,0.0,0.0,0.0,0.0,-2.8777,-2.7761,-2.7363,-2.7793,-2.6685,0.0,-2.6079,0.0,0.0,-2.5367,-2.5367,-2.5367,-2.5367,0.0,0.0,-2.6426,-2.7096,-2.832,-2.9883,-3.0,-3.0098,0.0,0.0,-2.952,-2.9481,-2.9766,-2.9941,-3.0039,-3.0039,-2.9774,-2.9422,-2.9422,-2.9101,-2.8769,-2.8769,-2.8457,-2.8105,-2.7988,-2.7656,-2.7233,-2.666,-2.6289,-2.5845,0.0,0.0,0.0,0.0,0.0,0.0,0.0,0.0,0.0,-2.1954,-2.1172,-2.0605,0.0,0.0,0.0,0.0,0.0,0.0,0.0,0.0,-2.164,-2.2305,-2.2537,-2.2596,0.0,0.0,0.0,-2.4391,-2.4867,-2.5454,-2.6211,-2.6758,-2.7187,-2.7526,-2.8047,-2.8301,-2.8301,-2.8301,-2.8093,-2.7702,-2.8015,-2.7715,-2.7031,-2.7389,-2.7585,-2.7663,-2.7305,-2.7467,-2.7897,-2.8184,-2.8301,-2.8301,-2.4976,0.0,0.0,-2.5659,0.0,0.0,-2.5312,0.0,0.0,-2.7819,-2.8633,0.0,-3.0117,-3.0371,-3.041,-3.0204,-3.0185,0.0,0.0,0.0,0.0,-2.9297,-2.8797,-2.8542,-2.8574,-2.7526,0.0,-2.666,0.0,0.0,-2.5693,-2.5693,-2.5693,-2.5693,0.0,-2.5952,0.0,-2.7526,-2.8594,-2.9648,-2.9844,0.0,0.0,-2.9453,-2.9422,-2.9598,-2.9609,-2.9883,-3.0234,-3.043,-3.0215,-2.9872,-2.9872,-2.9551,-2.9199,-2.9199,-2.8906,-2.8574,-2.8574,-2.8262,-2.7858,-2.7402,-2.7154,-2.6744,-2.5864,-2.5977,-2.603,0.0,0.0,0.0,0.0,0.0,0.0,0.0,0.0,0.0,0.0,0.0,0.0,0.0,0.0,0.0,0.0,0.0,-2.1503,-2.2187,-2.2246,-2.2324,0.0,0.0,0.0,-2.4371,-2.4867,-2.5434,-2.6094,-2.6894,-2.7324,-2.7383,-2.8008,-2.8301,-2.8301,-2.8301,-2.8191,-2.7976,-2.8184,-2.8027,-2.7559,-2.7441,-2.7526,-2.7663,-2.7428,-2.7559,-2.7995,-2.8203,-2.8301,-2.8301,0.0,0.0,0.0,0.0,0.0,0.0,0.0,-2.735,0.0,-2.8425,0.0,-3.0215,-3.0273,-3.0644,-3.0898,-3.0898,0.0,-3.0595,-2.9813,-3.0106,-2.9961,-2.9219,-2.9473,-2.9453,-2.9004,-2.8184,0.0,0.0,0.0,0.0,-2.5693,-2.5693,-2.5693,-2.5693,0.0,0.0,0.0,-2.7793,-2.8574,0.0,-2.9442,-2.9598,-2.9559,-2.9082,-2.916,-2.9461,-2.9062,-2.9434,-3.0176,-3.0586,-3.0449,-3.0117,-3.0117,-2.9891,-2.9598,-2.9598,-2.9297,-2.8984,-2.8918,-2.8652,-2.8281,-2.7878,-2.778,-2.7565,-2.6763,-2.6836,-2.6875,-2.605,-2.6152,-2.6269,0.0,0.0,0.0,0.0,0.0,0.0,0.0,0.0,0.0,0.0,0.0,0.0,0.0,0.0,-2.1366,-2.1777,-2.1876,0.0,0.0,0.0,0.0,-2.4352,-2.4809,0.0,-2.5849,0.0,-2.7467,-2.7187,-2.793,-2.8301,-2.8301,-2.8301,-2.8262,-2.8203,-2.8262,-2.8262,-2.8144,-2.7402,-2.7285,-2.7624,-2.7721,-2.7956,-2.8223,-2.8262,-2.8301,-2.8301,0.0,0.0,0.0,0.0,0.0,-2.7663,-2.791,-2.8379,-2.8848,-2.9324,-2.9872,-3.0351,-3.0723,-3.084,-3.0898,-3.0898,-3.0898,0.0,0.0,0.0,0.0,-3.0547,-3.0254,-2.9883,-2.95,-2.8613,-2.7793,0.0,0.0,0.0,-2.5693,-2.5693,-2.5693,0.0,0.0,0.0,-2.7506,-2.8047,0.0,-2.9481,-2.9579,-2.9598,-2.9559,-2.9082,-2.8937,-2.8996,-2.8918,-2.9258,-2.9715,-2.9813,-2.9774,-2.9715,-2.9715,-2.9657,-2.9598,-2.9598,-2.954,-2.9403,-2.9023,-2.884,-2.8711,-2.8281,-2.8184,-2.8073,-2.7585,-2.7526,-2.7428,-2.6869,-2.6582,-2.6367,-2.6289,0.0,0.0,0.0,0.0,0.0,0.0,0.0,0.0,0.0,0.0,0.0,0.0,0.0,0.0,0.0,0.0,0.0,0.0,0.0,0.0,0.0,-2.4469,0.0,0.0,0.0,-2.7441,-2.8066,-2.8223,-2.8301,-2.8301,-2.8301,-2.8132,-2.7819,-2.8171,-2.8112,-2.778,-2.7643,-2.7409,-2.7187,-2.791,-2.8034,-2.7839,-2.8164,-2.8301,-2.8301,0.0,0.0,0.0,0.0,0.0,0.0,0.0,-2.9512,0.0,-2.9637,-2.997,-3.0293,-3.0508,-3.0742,-3.0898,-3.0898,-3.0898,-3.0781,-3.0547,-3.0762,-3.0781,-3.0547,-3.0547,0.0,-2.9618,-2.8945,-2.8203,-2.7344,0.0,0.0,-2.6381,-2.6381,0.0,-2.6381,0.0,-2.6875,0.0,0.0,0.0,-2.8933,-2.8933,-2.8933,-2.8914,-2.8672,-2.8594,-2.8594,-2.8594,-2.873,-2.9012,-2.9442,-2.9598,-2.9598,-2.9598,-2.9598,-2.9598,-2.9598,-2.9442,-2.918,-2.8957,-2.8769,-2.8535,-2.834,-2.8301,-2.8242,-2.8073,-2.8015,-2.7897,-2.7441,-2.7213,-2.6881,-2.6172,-2.5332,0.0,0.0,0.0,0.0,0.0,0.0,0.0,0.0,0.0,0.0,0.0,0.0,0.0,0.0,0.0,0.0,0.0,0.0,0.0,0.0,0.0,0.0,0.0,0.0,0.0,-2.7305,-2.7519,-2.7637,-2.7637,-2.7637,-2.7637,-2.7702,-2.7897,-2.8015,-2.7995,-2.778,-2.7565,-2.7383,-2.7839,-2.8015,-2.8034,-2.8223,-2.8301,-2.8301,0.0,-2.7226,0.0,0.0,-2.8633,0.0,-2.9676,-3.0371,-3.0644,-2.997,-3.0137,-3.0351,-3.0351,-3.0664,-3.0859,-3.0762,-3.0742,-3.0586,-3.0215,-3.0449,-3.0527,-3.0351,-3.0605,-3.04,-2.9618,-2.9238,-2.8594,0.0,0.0,0.0,0.0,0.0,0.0,0.0,0.0,0.0,0.0,0.0,-2.8015,-2.8301,-2.8301,-2.8301,-2.8301,-2.8301,-2.8301,-2.8301,-2.8301,-2.8301,-2.8398,-2.909,-2.9324,-2.9324,-2.9324,-2.9383,-2.9461,-2.9461,-2.9258,-2.9043,-2.8918,-2.8672,-2.8379,-2.823,-2.8249,-2.8262,-2.8184,-2.8223,-2.8203,-2.7897,-2.7761,-2.733,-2.6069,-2.5586,0.0,0.0,0.0,0.0,0.0,0.0,0.0,0.0,0.0,0.0,0.0,0.0,0.0,0.0,0.0,0.0,0.0,0.0,0.0,0.0,0.0,-2.5356,-2.5835,0.0,-2.6758,0.0,-2.6855,-2.6986,-2.6986,-2.6986,-2.7246,-2.7702,-2.7702,-2.7936,-2.8288,-2.7956,-2.7819,-2.7819,-2.7819,-2.8034,-2.8301,-2.8301,-2.8301,-2.8301,0.0,0.0,0.0,0.0,0.0,0.0,-3.0137,-3.0566,-3.0859,-3.0781,-3.0801,-3.082,-3.082,-3.0859,-3.0723,-3.0293,-3.0254,-3.0234,-3.0195,-2.9911,-3.0067,-3.0801,-3.0469,-3.0067,-2.9618,-2.9559,-2.8933,0.0,0.0,0.0,0.0,0.0,0.0,0.0,0.0,0.0,0.0,-2.8093,-2.8262,-2.8301,-2.8301,-2.8301,-2.8301,-2.8301,-2.8301,-2.8301,-2.8301,-2.8301,-2.8301,-2.8379,-2.8418,-2.8418,-2.8418,-2.8672,-2.8984,-2.8984,-2.9238,-2.9442,-2.9023,-2.8859,-2.8672,-2.7936,-2.8034,-2.8184,-2.7839,-2.8054,-2.8281,-2.8242,-2.7956,-2.7428,-2.6484,-2.6289,-2.6113,0.0,0.0,0.0,0.0,0.0,0.0,0.0,0.0,0.0,0.0,0.0,0.0,0.0,0.0,0.0,0.0,0.0,0.0,-2.4371,0.0,-2.5493,-2.6328,-2.6431,-2.6621,-2.6928,-2.6967,-2.6986,-2.6986,-2.6986,-2.7246,-2.7702,-2.7702,-2.7936,-2.8281,-2.8262,-2.8242,-2.8242,-2.8242,-2.8262,-2.8301,-2.8301,-2.8301,-2.8301,0.0,0.0,0.0,0.0,0.0,0.0,0.0,-3.0762,-3.0898,-3.0898,-3.0898,-3.0898,-3.0898,-3.0898,-3.082,-3.0625,-3.0605,-3.0391,-2.9891,-3.0185,-3.0176,-2.9726,-3.0293,-3.0156,-2.9199,-2.9461,-2.909,0.0,0.0,0.0,0.0,0.0,0.0,0.0,0.0,-2.8073,-2.8073,-2.8223,-2.8301,-2.8301,-2.8301,-2.8301,-2.8301,-2.8301,-2.8301,-2.8301,-2.8301,-2.8301,-2.8301,-2.8301,-2.8301,-2.8301,-2.8301,-2.8398,-2.8535,-2.8535,-2.8672,-2.8769,-2.8594,-2.8535,-2.8457,-2.8125,-2.8164,-2.8242,-2.8112,-2.8164,-2.8301,-2.8301,-2.7976,-2.7585,-2.7252,-2.6934,-2.6621,0.0,0.0,0.0,0.0,0.0,0.0,0.0,0.0,0.0,0.0,0.0,0.0,0.0,0.0,0.0,0.0,0.0,0.0,-2.4766,0.0,-2.5395,-2.5971,-2.5971,-2.605,-2.6225,-2.6225,-2.6225,-2.6225,-2.6225,-2.6596,-2.7305,-2.7812,-2.8144,-2.8301,-2.8301,-2.8301,-2.8301,-2.8301,-2.8301,-2.8301,-2.8301,-2.8301,-2.8301,-2.9755,0.0,-2.9911,0.0,-3.041,-3.0508,-3.084,-3.0898,-3.0898,-3.0898,-3.0898,-3.0898,-3.0898,-3.0898,-3.084,-3.0703,-3.0684,-3.0371,-2.9657,-3.0039,-2.9961,-2.9141,-2.9883,0.0,-2.8918,-2.9219,-2.9023,-2.8301,-2.8301,0.0,0.0,0.0,0.0,0.0,-2.8672,-2.8672,-2.8652,-2.8535,-2.8476,-2.8457,-2.834,-2.8301,-2.8301,-2.8301,-2.8301,-2.8301,-2.8301,-2.8301,-2.8301,-2.8301,-2.8301,-2.8301,-2.8301,-2.8301,-2.8301,-2.8301,-2.8301,-2.8301,-2.8301,-2.8379,-2.8437,-2.832,-2.8379,-2.8437,-2.832,-2.8301,-2.8301,-2.8301,-2.8066,-2.7839,-2.7721,-2.7448,-2.707,-2.6641,0.0,0.0,0.0,0.0,0.0,0.0,0.0,-2.4277,-2.457,0.0,0.0,0.0,0.0,0.0,0.0,0.0,0.0,0.0,0.0,0.0,0.0,-2.5693,-2.5776,-2.5913,-2.5913,-2.5913,-2.5913,-2.6167,-2.6836,-2.7812,-2.8535,-2.8926,-2.9062,-2.9062,-2.9062,-2.9043,-2.8906,-2.8848,-2.8828,-2.8738,-2.8672,-2.8652,-3.0098,-3.0195,-3.0332,-3.0801,-3.0879,-3.0879,-3.0898,-3.0898,-3.0898,-3.0898,-3.0898,-3.0898,-3.0898,-3.0898,-3.0703,-3.0234,-3.0195,-3.0019,-2.9618,-2.918,-2.9121,0.0,0.0,-2.8918,-2.8898,-2.8898,-2.8711,-2.8301,0.0,0.0,-2.8301,0.0,-2.9141,-2.9579,-2.9579,-2.9579,-2.9559,-2.9101,-2.8879,-2.884,-2.8457,-2.8301,-2.8301,-2.8301,-2.8301,-2.8301,-2.8301,-2.8301,-2.8301,-2.8301,-2.8301,-2.8301,-2.8301,-2.8301,-2.8301,-2.8301,-2.8301,-2.8301,-2.8301,-2.8594,-2.8809,-2.8398,-2.8613,-2.8781,-2.8398,-2.8301,-2.8301,-2.8301,-2.8281,-2.8191,-2.7761,-2.7682,-2.7545,-2.709,0.0,0.0,0.0,0.0,0.0,0.0,-2.5332,-2.5082,-2.5082,0.0,0.0,0.0,0.0,0.0,0.0,0.0,0.0,-2.5082,-2.5508,0.0,-2.5693,-2.5693,-2.5932,-2.6387,-2.6387,-2.6387,-2.6406,-2.7291,-2.8367,-2.9598,-3.0,-3.043,-3.0859,-3.0859,-3.0859,-3.082,-3.0351,-3.0176,-3.0117,-2.9735,-2.9579,-2.952,-3.0644,-3.0664,-3.0723,-3.0859,-3.0898,-3.0898,-3.0898,-3.0898,-3.0898,-3.0898,-3.0898,-3.0898,-3.0898,-3.0898,-3.084,0.0,-3.0664,-3.0351,0.0,-3.0028,-2.9785,-2.8777,-2.9394,-2.9375,-2.8516,-2.8769,-2.882,-2.8711,0.0,0.0,0.0,-2.9324,-2.9461,-2.9598,-2.9598,-2.9598,-2.9579,-2.9442,-2.9383,-2.9383,-2.9246,-2.9188,-2.9149,-2.8828,-2.8711,-2.8672,-2.8398,-2.8301,-2.8301,-2.8301,-2.8301,-2.834,-2.8633,-2.8711,-2.8672,-2.8379,-2.8738,-2.9129,-2.8809,-2.9043,-2.9364,-2.9227,-2.9285,-2.9258,-2.8828,-2.8496,-2.8301,-2.8301,-2.8301,-2.8262,-2.8151,-2.8112,-2.7976,-2.7545,-2.737,0.0,0.0,0.0,0.0,0.0,-2.5581,-2.5503,0.0,-2.5249,0.0,0.0,0.0,0.0,0.0,0.0,0.0,0.0,-2.564,0.0,-2.5693,-2.5693,-2.5752,-2.5932,-2.625,-2.6543,-2.6836,-2.7428,-2.8073,-2.8758,-2.9141,-2.957,-3.0009,-3.0009,-3.0009,-3.0009,-2.9852,-2.959,-2.9316,-2.918,-2.8945,-2.8711,-3.0898,-3.0898,-3.0898,-3.0898,-3.0898,-3.0937,-3.1094,-3.1133,-3.1191,-3.1377,-3.1397,-3.1397,-3.1397,-3.1397,0.0,-3.0918,-3.0898,-3.0586,-2.9891,-3.0176,-2.9844,-2.8574,-2.9297,-2.9336,-2.8535,0.0,0.0,-2.916,-2.9316,-2.9531,-2.9833,-3.0009,-3.0087,-3.0087,-3.0087,-3.0087,-3.0087,-2.9911,-2.9833,-2.9813,-2.9657,-2.9598,-2.9579,-2.9258,-2.916,-2.9121,-2.8894,-2.8797,-2.8797,-2.8797,-2.8797,-2.8828,-2.9082,-2.9277,-2.9316,-2.8914,-2.9188,-2.954,-2.9238,-2.9473,-2.9833,-2.9833,-2.9833,-2.9648,-2.9062,-2.8711,-2.8476,-2.832,-2.8301,-2.8301,-2.8301,-2.8301,-2.8203,-2.7976,-2.78,-2.7506,-2.6979,0.0,0.0,0.0,0.0,0.0,0.0,-2.5693,0.0,0.0,0.0,0.0,0.0,0.0,0.0,-2.5674,-2.5693,0.0,-2.5693,-2.5874,-2.603,-2.6206,-2.666,-2.7168,-2.7708,-2.7851,-2.8425,-2.9277,-2.9551,-3.0,-3.0576,-3.0576,-3.0576,-3.0556,-3.0371,-3.0137,-2.9835,-2.9531,-2.9238,-2.9004,-3.0898,-3.0918,0.0,0.0,-3.0957,0.0,-3.1504,-3.1562,-3.1699,-3.214,-3.2198,-3.2198,-3.2198,-3.2198,-3.1885,-3.1055,0.0,0.0,0.0,-2.9891,-2.9481,-2.8957,-2.8976,-2.8976,-2.8937,-2.9383,-2.9618,-2.9637,-3.0039,-3.0234,-3.0254,-3.0684,-3.0898,-3.0898,-3.0898,-3.0898,-3.0859,-3.043,-3.0234,-3.0215,-2.9852,-2.9696,-2.9676,-2.9657,-2.9637,-2.9637,-2.9618,-2.9598,-2.9598,-2.9598,-2.9598,-2.9598,-2.9637,-2.9911,-3.0117,-2.9715,-2.9637,-2.9676,-2.9657,-2.995,-3.0234,-3.0234,-3.0215,-2.998,-2.9199,-2.8937,-2.8781,-2.8418,-2.832,-2.8301,-2.8301,-2.8301,-2.8301,-2.8301,-2.7995,-2.7721,-2.7702,0.0,0.0,0.0,0.0,0.0,0.0,-2.5693,-2.5693,0.0,0.0,0.0,0.0,0.0,-2.5693,-2.5693,-2.5693,-2.5718,-2.5757,-2.6191,-2.6621,-2.707,-2.7506,-2.8132,-2.8879,-2.8516,-2.9238,-3.0801,-3.0859,-3.1377,-3.212,-3.2179,-3.2198,-3.2159,-3.1719,-3.1513,-3.1406,-3.0566,-3.0234,-3.0078,0.0,0.0,-3.1367,-3.1367,-3.1641,-3.1925,-3.2022,-3.2042,-3.2081,-3.2179,-3.2198,-3.2198,-3.2198,-3.2198,-3.212,-3.1905,-3.1562,-3.1035,-3.0254,-3.043,-3.0263,-2.9481,-2.9726,-2.9746,-2.9442,-2.954,-2.9755,-3.0059,-3.0508,-3.0723,-3.0723,-3.084,-3.0898,-3.0898,-3.0898,-3.0898,-3.0879,-3.0781,-3.0723,-3.0723,-3.0625,-3.0586,-3.0547,-3.0176,-3.0059,-3.0,-2.9715,-2.9598,-2.9598,-2.9598,-2.9598,-2.9657,-2.9941,-3.0117,-3.0117,-2.9715,-3.0067,-3.0508,-3.0156,-3.0391,-3.0723,-3.0723,-3.0449,-3.0137,-2.9941,-2.9394,-2.8859,-2.8762,-2.8516,-2.8301,-2.8301,-2.8301,-2.8301,-2.8301,-2.8203,-2.8054,-2.7741,-2.7526,0.0,0.0,-2.6289,-2.6069,-2.5713,-2.5693,-2.5693,0.0,0.0,0.0,0.0,-2.5693,-2.5693,-2.5693,-2.5693,-2.5874,-2.623,-2.6328,-2.6783,-2.7545,-2.7643,-2.8132,-2.8879,-2.8781,-2.918,-2.995,-3.0605,-3.1016,-3.125,-3.1925,-3.2198,-3.2179,-3.2081,-3.1816,-3.1416,-3.0918,-3.0508,-3.0176,-3.1172,-3.1523,-3.1816,-3.1816,-3.2042,-3.2257,-3.2452,-3.2492,-3.255,-3.2715,-3.2734,-3.2734,-3.2734,-3.2734,-3.2656,-3.2511,-3.207,-3.1523,-3.084,-3.0859,-3.0586,-2.9883,-3.0078,-3.0098,-2.9891,-3.0087,-3.0293,-3.0508,-3.0762,-3.0898,-3.0898,-3.0898,-3.0898,-3.0898,-3.0898,-3.0898,-3.0898,-3.0898,-3.0898,-3.0898,-3.0898,-3.0898,-3.0859,-3.0605,-3.0508,-3.0488,-3.0254,-3.0204,-3.0204,-3.0204,-3.0204,-3.0243,-3.0449,-3.0508,-3.0469,-3.0263,-3.0537,-3.084,-3.0586,-3.0703,-3.0898,-3.0898,-3.0703,-3.0449,-3.0234,-2.9844,-2.9394,-2.8976,-2.873,-2.8516,-2.832,-2.8301,-2.8301,-2.8301,-2.8301,-2.8203,-2.8015,-2.7819,0.0,-2.7057,-2.6797,-2.6504,-2.605,-2.601,-2.5932,-2.5737,0.0,0.0,-2.5693,-2.5693,-2.5693,-2.5693,-2.5913,-2.6152,-2.6387,-2.6803,-2.733,-2.7976,-2.7976,-2.8184,-2.8633,-2.8801,-2.916,-2.9618,-3.0106,-3.0508,-3.0918,-3.1416,-3.1699,-3.1894,-3.212,-3.2031,-3.1738,-3.1113,-3.0723,-3.0449,-3.1621,-3.1973,-3.2296,-3.2296,-3.2355,-3.2511,-3.2832,-3.2891,-3.3008,-3.3347,-3.3386,-3.3386,-3.3386,-3.3386,-3.325,-3.293,-3.2589,-3.2148,-3.1641,-3.1289,-3.0879,-3.041,-3.0391,-3.0371,-3.0293,-3.0684,-3.0898,-3.0898,-3.0898,-3.0898,-3.0898,-3.0898,-3.0898,-3.0898,-3.0898,-3.0898,-3.0898,-3.0898,-3.0898,-3.0898,-3.0898,-3.0898,-3.0898,-3.0898,-3.0898,-3.0898,-3.0898,-3.0898,-3.0898,-3.0898,-3.0898,-3.0898,-3.0898,-3.0898,-3.0898,-3.0898,-3.0898,-3.0898,-3.0898,-3.0898,-3.0898,-3.0898,-3.0898,-3.0781,-3.0391,-3.0254,-2.9961,-2.918,-2.8937,-2.8789,-2.8379,-2.8301,-2.8301,-2.8301,-2.8301,-2.8301,-2.8301,0.0,-2.7761,-2.7702,-2.7344,-2.6953,-2.6523,-2.6484,-2.6328,-2.5932,-2.5913,-2.5913,-2.5913,-2.5913,-2.5913,-2.5913,-2.623,-2.6445,-2.6582,-2.7389,-2.7956,-2.8301,-2.8301,-2.832,-2.8398,-2.875,-2.916,-2.9598,-2.9735,-3.0185,-3.0801,-3.0996,-3.125,-3.1562,-3.207,-3.2296,-3.2198,-3.1397,-3.1035,-3.0859,-3.2101,-3.2402,-3.2695,-3.2695,-3.2988,-3.3211,-3.332,-3.332,-3.3308,-3.3386,-3.3386,-3.3386,-3.3386,-3.3386,-3.3367,-3.3289,-3.3262,-3.2891,-3.2159,-3.2042,-3.1807,-3.1328,-3.1309,-3.1152,-3.0801,-3.0859,-3.0898,-3.0898,-3.0898,-3.0898,-3.0898,-3.0898,-3.0898,-3.0898,-3.0898,-3.0898,-3.0898,-3.0898,-3.0898,-3.0898,-3.0898,-3.0898,-3.0898,-3.0898,-3.0898,-3.0898,-3.0898,-3.0898,-3.0898,-3.0898,-3.0898,-3.0898,-3.0898,-3.0898,-3.0898,-3.0898,-3.0898,-3.0898,-3.0898,-3.0898,-3.0898,-3.0898,-3.0898,-3.0879,-3.0801,-3.0488,-3.0059,-2.9598,-2.918,-2.8789,-2.8379,-2.8301,-2.8301,-2.8301,-2.8301,-2.8301,-2.8301,0.0,-2.8093,-2.7741,-2.7643,-2.7428,-2.6953,-2.6914,-2.6894,-2.6791,-2.6791,-2.6791,-2.6791,-2.6791,-2.6791,-2.6791,-2.6543,-2.6763,-2.7487,-2.7976,-2.8223,-2.8301,-2.8301,-2.8476,-2.8828,-2.8859,-2.916,-2.9637,-3.04,-3.0547,-3.0391,-3.1534,-3.1797,-3.1572,-3.2383,-3.2695,-3.2637,-3.2179,-3.1738,-3.1289,-3.2531,-3.2851,-3.3125,-3.3125,-3.3301,-3.3386,-3.3386,-3.3386,-3.3386,-3.3386,-3.3386,-3.3386,-3.3386,-3.3386,-3.3386,-3.3386,-3.3386,-3.323,-3.2871,-3.2637,-3.2335,-3.1894,-3.1875,-3.166,-3.123,-3.0996,-3.0898,-3.0898,-3.0898,-3.0898,-3.0898,-3.0898,-3.0898,-3.0898,-3.0898,-3.0898,-3.0898,-3.0898,-3.0898,-3.0898,-3.0898,-3.0898,-3.0898,-3.0898,-3.0898,-3.0898,-3.0898,-3.0898,-3.0898,-3.0898,-3.0898,-3.0898,-3.0898,-3.0898,-3.0898,-3.0898,-3.0898,-3.0898,-3.0898,-3.0898,-3.0898,-3.0898,-3.0898,-3.0898,-3.0898,-3.0723,-3.0449,-3.0,-2.957,-2.9141,-2.8711,-2.8437,-2.8301,-2.8301,-2.8301,0.0,0.0,-2.8301,-2.8223,-2.8054,-2.8034,-2.7858,-2.7428,-2.7389,-2.7266,-2.7006,-2.6986,-2.6986,-2.6986,-2.6986,-2.7129,-2.7363,-2.7194,-2.7409,-2.8015,-2.823,-2.8301,-2.8301,-2.8301,-2.8398,-2.8594,-2.8781,-2.9023,-2.9258,-2.9931,-3.0195,-3.0273,-3.1162,-3.1504,-3.1582,-3.2207,-3.2305,-3.2051,-3.1641,-3.1191,-3.0723,-3.2949,-3.3203,-3.3386,-3.3386,-3.3386,-3.3386,-3.3386,-3.3386,-3.3386,-3.3386,-3.3386,-3.3386,-3.3386,-3.3386,-3.3386,-3.3386,-3.3386,-3.3386,-3.3386,-3.3125,-3.2754,-3.2374,-3.2257,-3.1983,-3.1494,-3.1211,-3.0996,-3.0898,-3.0898,-3.0898,-3.0898,-3.0898,-3.0898,-3.0898,-3.0898,-3.0898,-3.0898,-3.0898,-3.0898,-3.0898,-3.0898,-3.0898,-3.0898,-3.0898,-3.0898,-3.0898,-3.0898,-3.0898,-3.0898,-3.0898,-3.0898,-3.0898,-3.0898,-3.0898,-3.0898,-3.0898,-3.0898,-3.0898,-3.0898,-3.0898,-3.0898,-3.0898,-3.0898,-3.0898,-3.0898,-3.0898,-3.0762,-3.0293,-2.9941,-2.9579,-2.8996,-2.8652,-2.8398,-2.832,0.0,0.0,0.0,-2.8301,-2.8301,-2.8301,-2.8301,-2.8164,-2.7878,-2.7839,-2.7702,-2.7344,-2.7305,-2.7305,-2.7305,-2.7305,-2.7461,-2.7839,-2.7839,-2.7995,-2.8281,-2.8301,-2.8301,-2.8301,-2.8301,-2.8301,-2.8301,-2.8633,-2.8801,-2.8918,-2.9277,-2.9648,-3.0098,-3.0547,-3.0918,-3.1269,-3.1797,-3.1758,-3.1328,-3.1016,-3.0527,-3.0,-3.3347,-3.3367,-3.3386,-3.3386,-3.3386,-3.3386,-3.3386,-3.3386,-3.3386,-3.3386,-3.3386,-3.3386,-3.3386,-3.3386,-3.3386,-3.3386,-3.3386,-3.3386,-3.3386,-3.3367,-3.3184,-3.2773,-3.2413,-3.1983,-3.1494,-3.1455,-3.1269,-3.0898,-3.0898,-3.0898,-3.0898,-3.0898,-3.0898,-3.0898,-3.0898,-3.0898,-3.0898,-3.0898,-3.0898,-3.0898,-3.0898,-3.0898,-3.0898,-3.0898,-3.0898,-3.0898,-3.0898,-3.0898,-3.0898,-3.0898,-3.0898,-3.0898,-3.0898,-3.0898,-3.0898,-3.0898,-3.0898,-3.0898,-3.0898,-3.0898,-3.0898,-3.0898,-3.0898,-3.0898,-3.0898,-3.0898,-3.0762,-3.0293,-3.0176,-2.9902,-2.9062,-2.8879,-2.8723,-2.8359,0.0,0.0,-2.8301,-2.8301,-2.8301,-2.8301,-2.8301,-2.8281,-2.8242,-2.8242,-2.8242,-2.8203,-2.8203,-2.8203,-2.8203,-2.8203,-2.8203,-2.8242,-2.8242,-2.8262,-2.8301,-2.8301,-2.8301,-2.8301,-2.8301,-2.8301,-2.8301,-2.832,-2.8555,-2.8898,-2.8918,-2.9219,-2.9676,-3.0078,-3.0273,-3.0371,-3.123,-3.1309,-3.0937,-3.0898,-3.038,-2.9579,-3.3386,-3.3386,-3.3386,-3.3386,-3.3386,-3.3386,-3.3386,-3.3386,-3.3386,-3.3386,-3.3386,-3.3386,-3.3386,-3.3386,-3.3386,-3.3386,-3.3386,-3.3386,-3.3386,-3.3386,-3.3308,-3.3184,-3.2793,-3.248,-3.2305,-3.1797,-3.1445,-3.1269,-3.1016,-3.0898,-3.0898,-3.0898,-3.0898,-3.0898,-3.0898,-3.0898,-3.0918,-3.1172,-3.1133,-3.0918,-3.1172,-3.1133,-3.0898,-3.0898,-3.0898,-3.0898,-3.0898,-3.0898,-3.0898,-3.0898,-3.0898,-3.0898,-3.0898,-3.0898,-3.0898,-3.0898,-3.0898,-3.0898,-3.0898,-3.0898,-3.0898,-3.0898,-3.0898,-3.0898,-3.0898,-3.0898,-3.084,-3.0664,-3.0391,-3.0098,-2.9766,-2.925,-2.884,-2.8711,0.0,-2.8301,-2.8301,-2.8301,-2.8301,-2.8301,-2.8301,-2.8301,-2.8301,-2.8301,-2.8301,-2.8301,-2.8301,-2.8301,-2.8301,-2.8301,-2.8301,-2.8301,-2.8301,-2.8301,-2.8301,-2.8301,-2.8301,-2.8301,-2.8301,-2.8301,-2.8301,-2.8301,-2.8379,-2.8535,-2.8781,-2.9004,-2.9219,-2.9902,-3.0195,-3.0254,-3.0879,-3.0859,-3.043,-3.0204,-2.9687,-2.9101,-3.3386,-3.3386,-3.3386,-3.3386,-3.3386,-3.3386,-3.3386,-3.3386,-3.3386,-3.3386,-3.3386,-3.3386,-3.3386,-3.3386,-3.3386,-3.3386,-3.3386,-3.3386,-3.3386,-3.3386,-3.3386,-3.3386,-3.3144,-3.293,-3.2793,-3.209,-3.166,-3.1494,-3.1094,-3.0898,-3.0898,-3.0898,-3.0898,-3.0898,-3.0898,-3.0898,-3.0918,-3.1348,-3.1348,-3.1113,-3.1406,-3.1318,-3.1074,-3.0937,-3.0898,-3.0898,-3.0898,-3.0898,-3.0898,-3.0898,-3.0898,-3.0898,-3.0898,-3.0898,-3.0898,-3.0898,-3.0898,-3.0898,-3.0898,-3.0898,-3.0898,-3.0898,-3.0898,-3.0898,-3.0898,-3.0898,-3.0898,-3.0898,-3.0644,-3.0371,-3.0234,-2.9707,-2.9238,-2.8937,-2.8672,-2.8437,-2.832,-2.8301,-2.8301,-2.8301,-2.8301,-2.8301,-2.8301,-2.8301,-2.8301,-2.8301,-2.8301,-2.8301,-2.8301,-2.8301,-2.8301,-2.8301,-2.8301,-2.8301,-2.8301,-2.8301,-2.8301,-2.8301,-2.8301,-2.8301,-2.8301,-2.8301,-2.8301,-2.832,-2.8594,-2.8762,-2.8937,-2.9551,-2.9961,-3.0234,-3.0547,-3.0488,-3.0137,-2.9755,-2.9297,-2.8766,-3.3386,-3.3386,-3.3386,-3.3386,-3.3386,-3.3386,-3.3386,-3.3386,-3.3386,-3.3386,-3.3386,-3.3386,-3.3386,-3.3386,-3.3386,-3.3386,-3.3386,-3.3386,-3.3386,-3.3386,-3.3386,-3.3386,-3.3386,-3.3191,-3.2812,-3.2413,-3.1983,-3.1523,-3.1094,-3.0898,-3.0898,-3.0898,-3.0898,-3.0898,-3.0898,-3.0898,-3.0918,-3.1348,-3.1494,-3.1494,-3.1523,-3.1523,-3.1455,-3.1055,-3.0898,-3.0898,-3.0898,-3.0898,-3.0898,-3.0898,-3.0898,-3.0898,-3.0898,-3.0898,-3.0898,-3.0898,-3.0898,-3.0898,-3.0898,-3.0898,-3.0898,-3.0898,-3.0898,-3.0898,-3.0898,-3.0898,-3.0898,-3.0898,-3.0898,-3.0762,-3.0293,-3.0195,-2.9922,-2.9035,-2.8898,-2.8769,-2.8359,-2.8301,-2.8301,-2.8301,-2.8301,-2.8301,-2.8301,-2.8301,-2.8301,-2.8301,-2.8301,-2.8301,-2.8301,-2.8301,-2.8301,-2.8301,-2.8301,-2.8301,-2.8301,-2.8301,-2.8301,-2.8301,-2.8301,-2.8301,-2.8301,-2.8301,-2.8301,-2.8301,-2.8301,-2.8535,-2.8879,-2.8898,-2.9414,-3.0176,-3.0195,-3.0195,-3.0137,-2.9755,-2.9297,-2.8629,-3.3386,-3.3386,-3.3386,-3.3386,-3.3386,-3.3386,-3.3386,-3.3386,-3.3386,-3.3386,-3.3386,-3.3386,-3.3386,-3.3386,-3.3386,-3.3386,-3.3386,-3.3386,-3.3386,-3.3386,-3.3386,-3.3386,-3.3386,-3.3328,-3.3211,-3.2832,-3.2402,-3.2003,-3.1543,-3.1191,-3.0898,-3.0898,-3.0898,-3.0898,-3.0898,-3.0898,-3.0937,-3.166,-3.1797,-3.1533,-3.2168,-3.2226,-3.1934,-3.1484,-3.1328,-3.1289,-3.0996,-3.0898,-3.0898,-3.0898,-3.0898,-3.0898,-3.0898,-3.0898,-3.0898,-3.0898,-3.0898,-3.0898,-3.0898,-3.0898,-3.0898,-3.0898,-3.0898,-3.0898,-3.0898,-3.0898,-3.0898,-3.0898,-3.0898,-3.0859,-3.0703,-3.041,-3.0117,-2.9863,-2.9316,-2.884,-2.875,-2.8476,-2.8301,-2.8301,-2.8301,-2.8301,-2.8301,-2.8301,-2.8301,-2.8301,-2.8301,-2.8301,-2.8301,-2.8301,-2.8301,-2.8301,-2.8301,-2.8301,-2.8301,-2.8301,-2.8301,-2.8301,-2.8301,-2.8301,-2.8301,-2.8301,-2.8301,-2.8301,-2.8301,-2.8359,-2.8496,-2.8762,-2.9035,-2.9355,-2.9961,-3.0195,-3.0176,-3.0059,-2.9746,-2.9261,-3.3386,-3.3386,-3.3386,-3.3386,-3.3386,-3.3386,-3.3386,-3.3386,-3.3386,-3.3386,-3.3386,-3.3386,-3.3386,-3.3386,-3.3386,-3.3386,-3.3386,-3.3386,-3.3386,-3.3386,-3.3386,-3.3386,-3.3386,-3.3386,-3.3386,-3.3008,-3.2598,-3.2198,-3.1738,-3.1309,-3.0898,-3.0898,-3.0898,-3.0898,-3.0898,-3.0898,-3.0957,-3.1827,-3.2042,-3.1836,-3.2519,-3.2637,-3.2394,-3.1934,-3.166,-3.1484,-3.123,-3.1035,-3.0898,-3.0898,-3.0898,-3.0898,-3.0898,-3.0898,-3.0898,-3.0898,-3.0898,-3.0898,-3.0898,-3.0898,-3.0898,-3.0898,-3.0898,-3.0898,-3.0898,-3.0898,-3.0937,-3.1094,-3.0996,-3.0937,-3.1113,-3.0781,-3.041,-3.0234,-2.9629,-2.9121,-2.8918,-2.8555,-2.8301,-2.8301,-2.8301,-2.8301,-2.8301,-2.8301,-2.8301,-2.8301,-2.8301,-2.8301,-2.8301,-2.8301,-2.8301,-2.8301,-2.8301,-2.8301,-2.8301,-2.8301,-2.8301,-2.8301,-2.8301,-2.8301,-2.8301,-2.8301,-2.8301,-2.8301,-2.8301,-2.8301,-2.832,-2.8574,-2.8769,-2.8937,-2.9492,-2.9902,-3.0176,-3.0,-2.9931,-2.9605,-3.3386,-3.3386,-3.3386,-3.3386,-3.3386,-3.3386,-3.3386,-3.3386,-3.3386,-3.3386,-3.3386,-3.3386,-3.3386,-3.3386,-3.3386,-3.3386,-3.3386,-3.3386,-3.3386,-3.3386,-3.3386,-3.3386,-3.3386,-3.3386,-3.3386,-3.3047,-3.2617,-3.2198,-3.1777,-3.1348,-3.0898,-3.0898,-3.0898,-3.0898,-3.0898,-3.0918,-3.0996,-3.1846,-3.2218,-3.2296,-3.2676,-3.2851,-3.2812,-3.2413,-3.1973,-3.1621,-3.1513,-3.1269,-3.0937,-3.0898,-3.0898,-3.0898,-3.0898,-3.0898,-3.0898,-3.0898,-3.0898,-3.0898,-3.0898,-3.0898,-3.0898,-3.0898,-3.0898,-3.0898,-3.0898,-3.0918,-3.1055,-3.1387,-3.1191,-3.1055,-3.1406,-3.1152,-3.0762,-3.0332,-2.9931,-2.954,-2.9113,-2.8691,-2.8418,-2.8418,-2.8379,-2.834,-2.8301,-2.8301,-2.8301,-2.8301,-2.8301,-2.8301,-2.8301,-2.8301,-2.832,-2.834,-2.832,-2.832,-2.8418,-2.834,-2.8301,-2.8301,-2.8301,-2.8301,-2.8301,-2.8301,-2.8301,-2.8301,-2.8301,-2.8301,-2.8301,-2.8301,-2.8516,-2.884,-2.8906,-2.9414,-3.0098,-2.9774,-2.9891,-2.9689,-3.3386,-3.3386,-3.3386,-3.3386,-3.3386,-3.3386,-3.3386,-3.3386,-3.3386,-3.3386,-3.3386,-3.3386,-3.3386,-3.3386,-3.3386,-3.3386,-3.3386,-3.3386,-3.3386,-3.3386,-3.3386,-3.3386,-3.3386,-3.3386,-3.3386,-3.3289,-3.293,-3.2198,-3.2101,-3.1641,-3.0898,-3.0898,-3.0898,-3.0898,-3.0898,-3.1074,-3.1426,-3.1983,-3.2394,-3.2695,-3.3105,-3.3281,-3.3242,-3.2812,-3.2598,-3.2422,-3.1758,-3.1435,-3.1328,-3.0996,-3.0898,-3.0898,-3.0898,-3.0898,-3.0898,-3.0898,-3.0898,-3.0898,-3.0898,-3.0898,-3.0898,-3.0898,-3.0898,-3.0898,-3.0898,-3.1152,-3.1309,-3.1074,-3.1211,-3.1309,-3.1074,-3.0957,-3.0859,-3.0762,-3.0351,-3.0156,-3.043,-2.9785,-2.9324,-2.9324,-2.8984,-2.8652,-2.832,-2.8301,-2.8301,-2.8301,-2.8301,-2.8301,-2.8301,-2.8301,-2.8437,-2.8769,-2.8457,-2.864,-2.9305,-2.8633,-2.8301,-2.8301,-2.8301,-2.8301,-2.8301,-2.8301,-2.8301,-2.8301,-2.8301,-2.8301,-2.8301,-2.8301,-2.834,-2.8457,-2.8789,-2.9238,-2.9755,-3.0009,-3.0117,-2.9689,-3.3386,-3.3386,-3.3464,-3.3691,-3.3555,-3.3496,-3.3691,-3.3523,-3.3386,-3.3386,-3.3594,-3.373,-3.373,-3.373,-3.3652,-3.3406,-3.3386,-3.3386,-3.3386,-3.3386,-3.3386,-3.3386,-3.3386,-3.3386,-3.3386,-3.3633,-3.3223,-3.2198,-3.2198,-3.1768,-3.0898,-3.0898,-3.0898,-3.0898,-3.1094,-3.1309,-3.1533,-3.2207,-3.2598,-3.2832,-3.3242,-3.3386,-3.3367,-3.3184,-3.2969,-3.2734,-3.2285,-3.1855,-3.1416,-3.1035,-3.0898,-3.0898,-3.0898,-3.0898,-3.0898,-3.0898,-3.1035,-3.1152,-3.0937,-3.1035,-3.1133,-3.0937,-3.1035,-3.1191,-3.1191,-3.1211,-3.1269,-3.1494,-3.1348,-3.1269,-3.1494,-3.1201,-3.0957,-3.1152,-3.0625,-3.0351,-3.082,-3.0293,-2.9813,-2.9618,-2.9375,-2.8984,-2.8359,-2.8301,-2.8301,-2.8301,-2.8301,-2.8301,-2.8301,-2.8301,-2.8476,-2.8879,-2.8711,-2.8809,-2.9258,-2.9051,-2.8691,-2.8301,-2.8496,-2.8496,-2.8301,-2.8496,-2.8476,-2.8301,-2.8301,-2.8301,-2.8301,-2.8301,-2.8301,-2.832,-2.8535,-2.8887,-2.9316,-2.9746,-2.9202,-2.7794,-3.3516,-3.3535,-3.3672,-3.4134,-3.3828,-3.3652,-3.4055,-3.3769,-3.3535,-3.3535,-3.3906,-3.4212,-3.4212,-3.4153,-3.3926,-3.3555,-3.3457,-3.3386,-3.3386,-3.3386,-3.3386,-3.3386,-3.3496,-3.3535,-3.3535,-3.3965,-3.3586,-3.2316,-3.2316,-3.1866,-3.0996,-3.0918,-3.0937,-3.1016,-3.1367,-3.1572,-3.1777,-3.25,-3.2832,-3.293,-3.3281,-3.3386,-3.3386,-3.3386,-3.3203,-3.2891,-3.2812,-3.2246,-3.1435,-3.1113,-3.0957,-3.0898,-3.0898,-3.0898,-3.0898,-3.0976,-3.1191,-3.1348,-3.1074,-3.125,-3.1426,-3.1094,-3.1309,-3.1621,-3.1621,-3.1348,-3.1269,-3.1866,-3.1534,-3.1338,-3.1964,-3.1573,-3.1191,-3.1465,-3.0898,-3.0586,-3.1064,-3.0703,-3.0293,-2.997,-2.9735,-2.9324,-2.8574,-2.8516,-2.8476,-2.8398,-2.8398,-2.8359,-2.8301,-2.8359,-2.8594,-2.9023,-2.9023,-2.9101,-2.923,-2.9473,-2.9285,-2.8613,-2.8906,-2.8809,-2.8398,-2.8691,-2.8652,-2.8398,-2.832,-2.8301,-2.8301,-2.8301,-2.8301,-2.8301,-2.8379,-2.8613,-2.893,-2.9194,-2.7828,-2.561,-3.3938,-3.4016,-3.4153,-3.4531,-3.4258,-3.4036,-3.4095,-3.4055,-3.4016,-3.4016,-3.4355,-3.4609,-3.4609,-3.4329,-3.4075,-3.4016,-3.3633,-3.3386,-3.3386,-3.3386,-3.3386,-3.3386,-3.3789,-3.4016,-3.4016,-3.4394,-3.3984,-3.2715,-3.2715,-3.2266,-3.1396,-3.1055,-3.1094,-3.1416,-3.1474,-3.1934,-3.2637,-3.2754,-3.3008,-3.3308,-3.3367,-3.3386,-3.3386,-3.3386,-3.3347,-3.325,-3.293,-3.2246,-3.1474,-3.1445,-3.1191,-3.0898,-3.0898,-3.0898,-3.0957,-3.1328,-3.1211,-3.1055,-3.1348,-3.1465,-3.1474,-3.1416,-3.1758,-3.212,-3.212,-3.2061,-3.1846,-3.1221,-3.1592,-3.1944,-3.166,-3.1816,-3.1925,-3.1562,-3.1406,-3.1484,-3.1964,-3.1621,-3.1279,-3.1269,-3.0254,-2.9559,-2.9442,-2.9422,-2.9266,-2.8867,-2.8801,-2.8672,-2.832,-2.8633,-2.9043,-2.95,-2.952,-2.9872,-3.0625,-2.995,-2.9715,-2.9941,-2.9657,-2.9258,-2.8828,-2.8516,-2.8535,-2.8781,-2.8457,-2.8301,-2.8301,-2.8301,-2.8301,-2.832,-2.8691,-2.884,-2.8812,-2.8253,-2.6918,-2.5226,-3.4375,-3.4446,-3.457,-3.5019,-3.4726,-3.4512,-3.4798,-3.459,-3.4446,-3.4446,-3.4805,-3.5078,-3.5078,-3.4922,-3.4707,-3.4453,-3.4258,-3.4141,-3.4141,-3.4141,-3.4141,-3.4141,-3.4316,-3.4446,-3.4446,-3.4863,-3.4687,-3.3848,-3.3144,-3.248,-3.1875,-3.1445,-3.1465,-3.1894,-3.2129,-3.2441,-3.2812,-3.3047,-3.3242,-3.3386,-3.3386,-3.3386,-3.3386,-3.3386,-3.3386,-3.3359,-3.2949,-3.2559,-3.2148,-3.165,-3.1387,-3.125,-3.125,-3.125,-3.1269,-3.1465,-3.1562,-3.1631,-3.1523,-3.1699,-3.1875,-3.1875,-3.2237,-3.2492,-3.2257,-3.2374,-3.2374,-3.1768,-3.1719,-3.1894,-3.2187,-3.2207,-3.214,-3.1914,-3.168,-3.168,-3.214,-3.2042,-3.1797,-3.1513,-3.0566,-2.995,-2.995,-2.9735,-2.952,-2.9297,-2.9062,-2.882,-2.8652,-2.9043,-2.9473,-2.9931,-2.995,-3.0098,-3.0508,-3.04,-3.0185,-2.9872,-2.9931,-2.957,-2.8898,-2.8984,-2.8848,-2.8574,-2.8613,-2.8633,-2.8633,-2.8398,-2.8574,-2.9012,-2.8691,-2.8282,-2.7762,-2.6755,-2.5512,-2.4147]},{"header":{"parameterUnit":"m.s-1","parameterCategory":1,"la1":30.6,"la2":28.766,"lo1":-90.7593,"lo2":-88.6598,"dy":0.0162,"dx":0.0183,"nx":116,"ny":114,"refTime":"2023-05-08T00:00:00:Z","depth":0,"parameterNumber":3,"parameterNumberName":"V-component_of_WINDS"},"data":[0.0,0.0,0.0,0.0,0.0,0.0,0.0,0.0,0.0,0.0,0.0,0.0,0.0,0.0,0.0,0.0,0.0,0.0,0.0,0.0,0.0,0.0,0.0,0.0,0.0,0.0,0.0,0.0,0.0,0.0,0.0,0.0,0.0,0.0,0.0,0.0,0.0,0.0,0.0,0.0,0.0,0.0,0.0,0.0,0.0,0.0,0.0,0.0,0.0,0.0,0.0,0.0,0.0,0.0,0.0,0.0,0.0,0.0,0.0,0.0,0.0,0.0,0.0,0.0,0.0,0.0,0.0,0.0,0.0,0.0,0.0,0.0,0.0,0.0,0.0,0.0,0.0,0.0,0.0,0.0,0.0,0.0,0.0,0.0,0.0,0.0,0.0,0.0,0.0,0.0,0.0,0.0,0.0,0.0,0.0,0.0,0.0,0.0,0.0,0.0,0.0,0.0,0.0,0.0,0.0,0.0,0.0,0.0,0.0,0.0,0.0,0.0,0.0,0.0,0.0,0.0,0.0,0.0,0.0,0.0,0.0,0.0,0.0,0.0,0.0,0.0,0.0,0.0,0.0,0.0,0.0,0.0,0.0,0.0,0.0,0.0,0.0,0.0,0.0,0.0,0.0,0.0,0.0,0.0,0.0,0.0,0.0,0.0,0.0,0.0,0.0,0.0,0.0,0.0,0.0,0.0,0.0,0.0,0.0,0.0,0.0,0.0,0.0,0.0,0.0,0.0,0.0,0.0,0.0,0.0,0.0,0.0,0.0,0.0,0.0,0.0,0.0,0.0,0.0,0.0,0.0,0.0,0.0,0.0,0.0,0.0,0.0,0.0,0.0,0.0,0.0,0.0,0.0,0.0,0.0,0.0,0.0,0.0,0.0,0.0,0.0,0.0,0.0,0.0,0.0,0.0,0.0,0.0,0.0,0.0,0.0,0.0,0.0,0.0,0.0,0.0,0.0,0.0,0.0,0.0,0.0,0.0,0.0,0.0,0.0,0.0,0.0,0.0,0.0,0.0,0.0,0.0,0.0,0.0,0.0,0.0,0.0,0.0,0.0,0.0,0.0,0.0,0.0,0.0,0.0,0.0,0.0,0.0,0.0,0.0,0.0,0.0,0.0,0.0,0.0,0.0,0.0,0.0,0.0,0.0,0.0,0.0,0.0,0.0,0.0,0.0,0.0,0.0,0.0,0.0,0.0,0.0,0.0,0.0,0.0,0.0,0.0,0.0,0.0,0.0,0.0,0.0,0.0,0.0,0.0,0.0,0.0,0.0,0.0,0.0,0.0,0.0,0.0,0.0,0.0,0.0,0.0,0.0,0.0,0.0,0.0,0.0,0.0,0.0,0.0,0.0,0.0,0.0,0.0,0.0,0.0,0.0,0.0,0.0,0.0,0.0,0.0,0.0,0.0,0.0,0.0,0.0,0.0,0.0,0.0,0.0,0.0,0.0,0.0,0.0,0.0,0.0,0.0,0.0,0.0,0.0,0.0,0.0,0.0,0.0,0.0,0.0,0.0,0.0,0.0,0.0,0.0,0.0,0.0,0.0,0.0,0.0,0.0,0.0,0.0,0.0,0.0,0.0,0.0,0.0,0.0,0.0,0.0,0.0,0.0,0.0,0.0,0.0,0.0,0.0,0.0,0.0,0.0,0.0,0.0,0.0,0.0,0.0,0.0,0.0,0.0,0.0,0.0,0.0,0.0,0.0,0.0,0.0,0.0,0.0,0.0,0.0,0.0,0.0,0.0,0.0,0.0,0.0,0.0,0.0,0.0,0.0,0.0,0.0,0.0,0.0,0.0,0.0,0.0,0.0,0.0,0.0,0.0,0.0,0.0,0.0,0.0,0.0,0.0,0.0,0.0,0.0,0.0,0.0,0.0,0.0,0.0,0.0,0.0,0.0,0.0,0.0,0.0,0.0,0.0,0.0,0.0,0.0,0.0,0.0,0.0,0.0,0.0,0.0,0.0,0.0,0.0,0.0,0.0,0.0,0.0,0.0,0.0,0.0,0.0,0.0,0.0,0.0,0.0,0.0,0.0,0.0,0.0,0.0,0.0,0.0,0.0,0.0,0.0,0.0,0.0,0.0,0.0,0.0,0.0,0.0,0.0,0.0,0.0,0.0,0.0,0.0,0.0,0.0,0.0,0.0,0.0,0.0,0.0,0.0,0.0,0.0,0.0,0.0,0.0,0.0,0.0,0.0,0.0,0.0,0.0,0.0,0.0,0.0,0.0,0.0,0.0,0.0,0.0,0.0,0.0,0.0,0.0,0.0,0.0,0.0,0.0,0.0,0.0,0.0,0.0,0.0,0.0,0.0,0.0,0.0,0.0,0.0,0.0,0.0,0.0,0.0,0.0,0.0,0.0,0.0,0.0,0.0,0.0,0.0,0.0,0.0,0.0,0.0,0.0,0.0,0.0,0.0,0.0,0.0,0.0,0.0,0.0,0.0,0.0,0.0,0.0,0.0,0.0,0.0,0.0,0.0,0.0,0.0,0.0,0.0,0.0,0.0,0.0,0.0,0.0,0.0,0.0,0.0,0.0,0.0,0.0,0.0,0.0,0.0,0.0,0.0,0.0,0.0,0.0,0.0,0.0,0.0,0.0,0.0,0.0,0.0,0.0,0.0,0.0,0.0,0.0,0.0,0.0,0.0,0.0,0.0,0.0,0.0,0.0,0.0,0.0,0.0,0.0,0.0,0.0,0.0,0.0,0.0,0.0,0.0,0.0,0.0,0.0,0.0,0.0,0.0,0.0,0.0,0.0,0.0,0.0,0.0,0.0,0.0,0.0,0.0,0.0,0.0,0.0,0.0,0.0,0.0,0.0,0.0,0.0,0.0,0.0,0.0,0.0,0.0,0.0,0.0,0.0,0.0,0.0,0.0,0.0,0.0,0.0,0.0,0.0,0.0,0.0,0.0,0.0,0.0,0.0,0.0,0.0,0.0,0.0,0.0,0.0,0.0,0.0,0.0,0.0,0.0,0.0,0.0,0.0,0.0,0.0,0.0,0.0,0.0,0.0,0.0,0.0,0.0,0.0,0.0,0.0,0.0,0.0,0.0,0.0,0.0,0.0,0.0,0.0,0.0,0.0,0.0,0.0,0.0,0.0,0.0,0.0,0.0,0.0,0.0,0.0,0.0,0.0,0.0,0.0,0.0,0.0,0.0,0.0,0.0,0.0,0.0,0.0,0.0,0.0,0.0,0.0,0.0,0.0,0.0,0.0,0.0,0.0,0.0,0.0,0.0,0.0,0.0,0.0,0.0,0.0,0.0,0.0,0.0,0.0,0.0,0.0,0.0,0.0,0.0,0.0,0.0,0.0,0.0,0.0,0.0,0.0,0.0,0.0,0.0,0.0,0.0,0.0,0.0,0.0,0.0,0.0,0.0,0.0,0.0,0.0,0.0,0.0,0.0,0.0,0.0,0.0,0.0,0.0,0.0,0.0,0.0,0.0,0.0,0.0,0.0,0.0,0.0,0.0,0.0,0.0,0.0,0.0,0.0,0.0,0.0,0.0,0.0,0.0,0.0,0.0,0.0,0.0,0.0,0.0,0.0,0.0,0.0,0.0,0.0,0.0,0.0,0.0,0.0,0.0,0.0,0.0,0.0,0.0,0.0,0.0,0.0,0.0,0.0,0.0,0.0,0.0,0.0,0.0,0.0,0.0,0.0,0.0,0.0,0.0,0.0,0.0,0.0,0.0,0.0,0.0,0.0,0.0,0.0,0.0,0.0,0.0,0.0,0.0,0.0,0.0,0.0,0.0,0.0,0.0,0.0,0.0,0.0,0.0,0.0,0.0,0.0,0.0,0.0,0.0,0.0,0.0,0.0,0.0,0.0,0.0,0.0,0.0,0.0,0.0,0.0,0.0,0.0,0.0,0.0,0.0,0.0,0.0,0.0,0.0,0.0,0.0,0.0,0.0,0.0,0.0,0.0,0.0,0.0,0.0,0.0,0.0,0.0,0.0,0.0,0.0,0.0,0.0,0.0,0.0,0.0,0.0,0.0,0.0,0.0,0.0,0.0,0.0,0.0,0.0,0.0,0.0,0.0,0.0,0.0,0.0,0.0,0.0,0.0,0.0,0.0,0.0,0.0,0.0,0.0,0.0,0.0,0.0,0.0,0.0,0.0,0.0,0.0,0.0,0.0,0.0,0.0,0.0,0.0,0.0,0.0,0.0,0.0,0.0,0.0,0.0,0.0,0.0,0.0,0.0,0.0,0.0,0.0,0.0,0.0,0.0,0.0,0.0,0.0,0.0,0.0,0.0,0.0,0.0,0.0,0.0,0.0,0.0,0.0,0.0,0.0,0.0,0.0,0.0,0.0,0.0,0.0,0.0,0.0,0.0,0.0,0.0,0.0,0.0,0.0,0.0,0.0,0.0,0.0,0.0,0.0,0.0,0.0,0.0,0.0,0.0,0.0,0.0,0.0,0.0,0.0,0.0,0.0,0.0,0.0,0.0,0.0,0.0,0.0,0.0,0.0,0.0,0.0,0.0,0.0,0.0,0.0,0.0,0.0,0.0,0.0,0.0,0.0,0.0,0.0,0.0,0.0,0.0,0.0,0.0,0.0,0.0,0.0,0.0,0.0,0.0,0.0,0.0,0.0,0.0,0.0,0.0,0.0,0.0,0.0,0.0,0.0,0.0,0.0,0.0,0.0,0.0,0.0,0.0,0.0,0.0,0.0,0.0,0.0,0.0,0.0,0.0,0.0,0.0,0.0,0.0,0.0,0.0,0.0,0.0,0.0,0.0,0.0,0.0,0.0,0.0,0.0,0.0,0.0,0.0,0.0,0.0,0.0,0.0,0.0,0.0,0.0,0.0,0.0,0.0,0.0,0.0,0.0,0.0,0.0,0.0,0.0,0.0,0.0,0.0,0.0,0.0,0.0,0.0,0.0,0.0,0.0,0.0,0.0,0.0,0.0,0.0,0.0,0.0,0.0,0.0,0.0,0.0,0.0,0.0,0.0,0.0,0.0,0.0,0.0,0.0,0.0,0.0,0.0,0.0,0.0,0.0,0.0,0.0,0.0,0.0,0.0,0.0,0.0,0.0,0.0,0.0,0.0,0.0,0.0,0.0,0.0,0.0,0.0,0.0,0.0,0.0,0.0,0.0,0.0,0.0,0.0,0.0,0.0,0.0,0.0,0.0,0.0,0.0,0.0,0.0,0.0,0.0,0.0,0.0,0.0,0.0,0.0,0.0,0.0,0.0,0.0,0.0,0.0,0.0,0.0,0.0,0.0,0.0,0.0,0.0,0.0,0.0,0.0,0.0,0.0,0.0,0.0,0.0,0.0,0.0,0.0,0.0,0.0,0.0,0.0,0.0,0.0,0.0,0.0,0.0,0.0,0.0,0.0,0.0,0.0,0.0,0.0,0.0,0.0,0.0,0.0,0.0,0.0,0.0,0.0,0.0,0.0,0.0,0.0,0.0,0.0,0.0,0.0,0.0,0.0,0.0,0.0,0.0,0.0,0.0,0.0,0.0,0.0,0.0,0.0,0.0,0.0,0.0,0.0,0.0,0.0,0.0,0.0,0.0,0.0,0.0,0.0,0.0,0.0,0.0,0.0,0.0,0.0,0.0,0.0,0.0,0.0,0.0,0.0,0.0,0.0,0.0,0.0,0.0,0.0,0.0,0.0,0.0,0.0,0.0,0.0,0.0,0.0,0.0,0.0,0.0,0.0,0.0,0.0,0.0,0.0,0.0,0.0,0.0,0.0,0.0,0.0,0.0,0.0,0.0,0.0,0.0,0.0,0.0,0.0,0.0,0.0,0.0,0.0,0.0,0.0,0.0,0.0,0.0,0.0,0.0,0.0,0.0,0.0,0.0,0.0,0.0,0.0,0.0,0.0,0.0,0.0,0.0,0.0,0.0,0.0,0.0,0.0,0.0,0.0,0.0,0.0,0.0,0.0,0.0,0.0,0.0,0.0,0.0,0.0,0.0,0.0,0.0,0.0,0.0,0.0,0.0,0.0,0.0,0.0,0.0,0.0,0.0,0.0,0.0,0.0,0.0,0.0,0.0,0.0,0.0,0.0,0.0,0.0,0.0,0.0,0.0,0.0,0.0,0.0,0.0,0.0,0.0,0.0,0.0,0.0,2.4289,0.0,0.0,0.0,0.0,0.0,0.0,0.0,0.0,0.0,0.0,0.0,0.0,0.0,0.0,0.0,0.0,0.0,0.0,0.0,0.0,0.0,0.0,0.0,0.0,0.0,0.0,0.0,0.0,0.0,0.0,0.0,0.0,0.0,0.0,0.0,0.0,0.0,0.0,3.2341,3.2341,3.251,3.2848,3.2442,3.208,3.1742,0.0,0.0,0.0,0.0,0.0,0.0,0.0,0.0,0.0,0.0,0.0,0.0,0.0,0.0,0.0,0.0,0.0,0.0,0.0,0.0,0.0,0.0,0.0,0.0,0.0,0.0,0.0,0.0,0.0,0.0,0.0,0.0,0.0,0.0,0.0,0.0,0.0,0.0,0.0,0.0,0.0,0.0,0.0,0.0,0.0,0.0,0.0,0.0,0.0,0.0,0.0,0.0,0.0,0.0,0.0,0.0,0.0,0.0,0.0,0.0,0.0,0.0,0.0,0.0,0.0,0.0,0.0,0.0,0.0,0.0,0.0,2.4003,0.0,0.0,0.0,0.0,0.0,0.0,0.0,0.0,0.0,0.0,0.0,0.0,0.0,0.0,0.0,0.0,0.0,0.0,0.0,0.0,0.0,0.0,0.0,3.366,3.322,3.322,3.3085,3.2747,0.0,0.0,0.0,0.0,0.0,0.0,0.0,3.12,3.1268,3.1403,3.1529,3.1911,3.2496,3.3119,3.3085,3.2496,3.2496,0.0,0.0,0.0,0.0,0.0,0.0,0.0,0.0,0.0,0.0,0.0,0.0,0.0,0.0,0.0,0.0,0.0,0.0,0.0,0.0,0.0,0.0,0.0,0.0,0.0,0.0,0.0,0.0,0.0,0.0,0.0,0.0,0.0,0.0,0.0,0.0,0.0,0.0,0.0,0.0,0.0,0.0,0.0,0.0,0.0,0.0,0.0,0.0,0.0,0.0,0.0,0.0,0.0,0.0,0.0,0.0,0.0,0.0,0.0,0.0,0.0,0.0,0.0,2.6767,2.67,2.6666,2.6082,2.5447,2.4812,2.3613,2.2861,2.2591,0.0,0.0,0.0,0.0,0.0,0.0,0.0,0.0,0.0,0.0,0.0,0.0,0.0,0.0,0.0,0.0,0.0,0.0,0.0,0.0,0.0,0.0,3.2892,3.2429,3.2429,3.1843,3.1461,3.1336,0.0,0.0,0.0,0.0,0.0,3.12,3.12,3.1505,3.2158,3.278,3.3142,3.3254,3.3345,3.3345,3.3243,3.3243,3.3558,3.3998,0.0,0.0,0.0,0.0,0.0,0.0,0.0,0.0,0.0,0.0,0.0,0.0,0.0,0.0,0.0,0.0,0.0,0.0,0.0,0.0,0.0,0.0,0.0,0.0,0.0,0.0,0.0,0.0,0.0,0.0,0.0,0.0,0.0,0.0,0.0,0.0,0.0,0.0,0.0,0.0,0.0,2.6793,2.7418,0.0,0.0,0.0,0.0,0.0,0.0,0.0,0.0,0.0,0.0,0.0,0.0,0.0,0.0,2.857,2.7968,2.7655,2.7655,2.6996,2.67,2.67,2.659,2.6496,2.6395,2.6184,0.0,2.3308,2.4169,0.0,0.0,0.0,0.0,0.0,0.0,0.0,0.0,0.0,0.0,0.0,0.0,0.0,0.0,0.0,0.0,0.0,0.0,0.0,0.0,0.0,3.2757,3.2462,3.2892,3.2249,3.1809,3.1809,3.1021,0.0,0.0,0.0,2.9948,2.9948,3.0378,3.1166,3.2293,3.3467,3.4032,3.4032,3.4427,3.463,3.463,3.463,3.4359,3.3829,3.3095,0.0,0.0,0.0,0.0,0.0,0.0,0.0,0.0,0.0,0.0,0.0,0.0,0.0,0.0,0.0,0.0,0.0,0.0,0.0,0.0,0.0,0.0,0.0,0.0,0.0,0.0,0.0,0.0,0.0,0.0,0.0,0.0,0.0,0.0,0.0,0.0,0.0,0.0,0.0,2.8188,2.8121,2.845,2.8484,2.8619,0.0,0.0,0.0,0.0,0.0,0.0,0.0,0.0,0.0,2.7824,2.8137,2.8315,2.8315,2.7993,2.8035,2.845,2.8155,2.7985,2.7994,2.7528,2.7325,2.7291,2.686,2.6158,2.5278,2.5583,2.5676,2.5668,0.0,0.0,0.0,0.0,2.5601,2.5398,0.0,0.0,0.0,0.0,0.0,0.0,0.0,0.0,0.0,0.0,0.0,0.0,3.3051,3.2452,3.2317,3.3051,3.2452,3.2022,3.2022,3.0818,3.0098,3.0098,2.9407,2.9077,2.9271,3.0378,3.1562,3.2869,3.4144,3.4776,3.4776,3.534,3.56,3.56,3.56,3.4991,3.392,3.3163,3.2767,3.2554,0.0,0.0,0.0,0.0,0.0,0.0,0.0,0.0,0.0,0.0,0.0,0.0,0.0,0.0,0.0,0.0,0.0,0.0,0.0,0.0,0.0,0.0,0.0,0.0,0.0,0.0,0.0,0.0,0.0,0.0,0.0,0.0,0.0,0.0,0.0,0.0,0.0,2.9247,2.9145,2.9517,2.9416,2.9339,0.0,0.0,0.0,0.0,0.0,0.0,2.9271,2.9441,2.9194,2.8398,2.8746,2.8949,2.8949,2.9142,2.9523,3.0117,3.0117,3.0117,3.0117,2.9523,2.9118,2.8915,2.8383,2.7918,2.7537,2.6936,2.6488,2.6209,2.6759,2.7106,2.7207,2.6446,2.6175,2.5973,0.0,0.0,0.0,0.0,0.0,0.0,0.0,0.0,0.0,0.0,0.0,3.2327,3.2361,3.1708,3.1539,3.2293,3.1674,3.1268,3.1268,3.0548,3.0098,3.0098,2.9407,2.9339,3.0031,3.2127,3.3626,3.4381,3.5171,3.5532,3.5532,3.5566,3.56,3.56,3.56,3.5566,3.543,3.4709,3.4009,3.3277,3.2588,0.0,0.0,0.0,0.0,0.0,0.0,0.0,0.0,0.0,0.0,0.0,0.0,0.0,0.0,0.0,0.0,0.0,0.0,0.0,0.0,0.0,0.0,0.0,0.0,0.0,0.0,0.0,0.0,0.0,0.0,0.0,0.0,0.0,0.0,0.0,0.0,0.0,0.0,3.0929,3.048,0.0,0.0,0.0,0.0,3.1099,3.1099,3.0784,3.0065,3.0717,3.0751,2.9997,3.1336,3.2056,3.2056,3.278,3.3142,3.3176,3.3176,3.3176,3.3176,3.3142,3.2747,3.2056,3.2022,3.1234,2.976,2.7604,2.7097,2.768,2.7722,2.8205,2.8807,2.7968,2.7689,2.7587,0.0,0.0,0.0,0.0,0.0,0.0,0.0,0.0,3.2418,3.1674,3.2022,3.2293,3.2293,3.2486,3.2713,3.2983,3.2317,3.1911,3.1911,3.032,2.96,3.0065,2.9407,2.9788,3.1471,3.2283,3.3298,3.4516,3.5239,3.56,3.56,3.6129,3.6366,3.64,3.6874,3.7099,3.6963,3.5216,3.4336,3.3998,3.2801,3.2418,0.0,0.0,0.0,0.0,0.0,0.0,0.0,0.0,0.0,0.0,0.0,0.0,0.0,0.0,0.0,0.0,0.0,0.0,0.0,0.0,0.0,0.0,0.0,0.0,0.0,0.0,0.0,0.0,0.0,0.0,0.0,0.0,0.0,0.0,0.0,0.0,0.0,3.1775,3.1268,0.0,0.0,3.12,3.1403,3.1877,3.1911,3.2012,3.2195,3.2466,3.251,3.2229,3.2747,3.3017,3.3017,3.3288,3.3413,3.3413,3.3413,3.3413,3.3413,3.3413,3.3254,3.3017,3.3017,3.2713,3.2161,3.136,2.9726,2.779,2.779,2.7697,2.7478,2.7199,2.7097,2.7055,0.0,0.0,0.0,0.0,0.0,0.0,0.0,0.0,3.1742,3.1268,3.164,3.2022,3.2259,3.251,3.2747,3.3017,3.2351,3.1911,3.1911,3.0093,2.9339,3.0065,2.988,3.0523,3.2259,3.2801,3.3637,3.4878,3.5374,3.56,3.56,3.6163,3.6411,3.6434,3.7178,3.7516,3.7449,3.6163,3.5498,3.5193,3.4223,3.3941,3.4055,0.0,0.0,0.0,0.0,0.0,0.0,0.0,0.0,0.0,0.0,0.0,0.0,0.0,0.0,0.0,0.0,0.0,0.0,0.0,0.0,0.0,0.0,0.0,0.0,0.0,0.0,0.0,0.0,0.0,0.0,0.0,0.0,0.0,0.0,0.0,3.2215,3.296,3.2385,3.1935,3.1935,3.1935,3.2138,3.2621,3.2655,3.2892,3.3379,3.3413,3.3413,3.3413,3.366,3.3761,3.3761,3.4021,3.4157,3.4157,3.4157,3.4157,3.4157,3.4157,3.4021,3.3761,3.3761,3.3615,3.3413,3.3413,3.1925,2.9649,2.9422,2.8856,2.8222,2.8222,2.8222,2.8222,0.0,0.0,0.0,0.0,0.0,0.0,0.0,3.1674,3.12,3.12,3.1234,3.1539,3.2192,3.1674,3.1539,3.2226,3.1606,3.12,3.1166,2.9813,2.9373,3.0132,3.0852,3.1606,3.2395,3.3772,3.4878,3.56,3.56,3.56,3.56,3.5633,3.5633,3.5667,3.6479,3.6863,3.6931,3.7618,3.7562,3.6897,3.6829,3.6332,3.56,0.0,0.0,0.0,0.0,0.0,0.0,0.0,0.0,0.0,0.0,0.0,0.0,0.0,0.0,0.0,0.0,0.0,0.0,0.0,0.0,0.0,0.0,0.0,0.0,0.0,0.0,0.0,0.0,0.0,0.0,0.0,0.0,0.0,3.4381,3.3863,3.366,3.4381,3.3829,3.3413,3.3413,3.3413,3.3413,3.3413,3.3413,3.3446,3.348,3.348,3.348,3.348,3.4167,3.455,3.455,3.5239,3.56,3.56,3.56,3.56,3.56,3.56,3.5205,3.455,3.455,3.4134,3.348,3.348,3.3457,3.3355,3.2621,3.1887,3.1268,3.1268,3.1268,3.1268,0.0,0.0,0.0,0.0,0.0,0.0,0.0,3.1336,3.12,3.12,3.2138,3.2476,3.1606,3.2273,3.2442,3.1572,3.1336,3.0954,3.0446,3.004,3.0378,3.164,3.1877,3.2858,3.4664,3.4573,3.4878,3.56,3.56,3.56,3.56,3.6197,3.6479,3.6513,3.7246,3.7889,3.8408,3.8599,3.8882,3.9063,3.7438,3.6987,3.72,0.0,0.0,0.0,0.0,0.0,0.0,0.0,0.0,0.0,0.0,0.0,0.0,0.0,0.0,0.0,0.0,0.0,0.0,0.0,0.0,0.0,0.0,0.0,0.0,0.0,0.0,0.0,0.0,0.0,0.0,0.0,0.0,3.4698,3.3818,3.3525,3.3491,3.3694,3.3514,3.3413,3.3413,3.3413,3.3626,3.4167,3.4201,3.4438,3.4968,3.5002,3.5002,3.5002,3.5205,3.5306,3.5306,3.5498,3.56,3.56,3.56,3.56,3.56,3.56,3.5498,3.5306,3.5306,3.5171,3.5002,3.5002,3.4664,3.41,3.3389,3.2983,3.2814,3.2814,3.2814,3.2713,0.0,0.0,0.0,0.0,0.0,0.0,0.0,3.12,3.1302,3.1606,3.2418,3.2621,3.1742,3.2418,3.2486,3.1292,3.12,3.0886,3.0166,3.0403,3.0954,3.1809,3.2733,3.384,3.5103,3.5013,3.5171,3.56,3.56,3.56,3.56,3.6096,3.6299,3.6332,3.711,3.7697,3.8103,3.8396,3.878,3.9085,3.8103,3.8171,3.8746,3.8002,3.8002,3.8328,3.8012,3.791,3.791,3.791,0.0,0.0,0.0,0.0,0.0,0.0,0.0,0.0,0.0,0.0,0.0,0.0,0.0,0.0,0.0,0.0,0.0,0.0,0.0,0.0,0.0,0.0,0.0,0.0,3.56,3.5295,3.4461,3.4326,3.4326,3.4326,3.4326,3.4326,3.4326,3.4326,3.4495,3.4934,3.5261,3.5667,3.6096,3.6389,3.6558,3.6558,3.6558,3.6558,3.6558,3.6253,3.6096,3.6096,3.578,3.56,3.56,3.56,3.56,0.0,3.56,3.56,3.56,3.56,3.534,0.0,0.0,0.0,0.0,0.0,3.3413,3.3355,0.0,0.0,0.0,0.0,0.0,0.0,0.0,3.12,3.1471,3.2192,3.2361,3.2395,3.2327,3.2361,3.208,3.1268,3.12,3.092,3.0267,3.0852,3.1268,3.1437,3.34,3.455,3.4607,3.5273,3.56,3.56,3.56,3.56,3.56,3.56,3.56,3.5633,3.6344,3.6728,3.6818,3.7483,3.7809,3.7956,3.8599,3.9322,3.9897,3.9356,3.9119,3.9051,3.8396,3.8147,3.8147,3.8147,0.0,0.0,0.0,0.0,0.0,0.0,0.0,0.0,0.0,0.0,0.0,0.0,0.0,0.0,0.0,0.0,0.0,0.0,0.0,0.0,0.0,0.0,0.0,0.0,3.56,3.5633,3.5712,3.5746,3.5712,3.56,3.5667,3.5746,3.5746,3.5802,3.587,3.587,3.6502,3.6919,3.6919,0.0,0.0,0.0,0.0,3.791,3.791,3.7257,3.6919,3.6931,3.6186,3.587,3.5847,3.578,3.5746,3.5735,3.5633,3.56,3.56,3.56,3.56,3.5532,3.4878,3.4235,3.3649,3.3649,3.3649,3.3649,0.0,0.0,0.0,0.0,0.0,0.0,0.0,3.12,3.1471,3.2192,3.2824,3.2949,3.2361,3.2824,3.2645,3.1336,3.12,3.1123,3.0987,3.1123,3.1732,3.2905,3.3964,3.4776,3.5363,3.5543,3.56,3.56,3.56,3.56,3.56,3.56,3.56,3.56,3.578,3.6197,3.6829,3.6953,3.7359,3.791,3.8058,3.8565,3.9254,3.9728,3.991,3.9876,3.9728,3.966,3.966,3.966,3.9186,3.8476,3.7889,3.7178,0.0,0.0,0.0,0.0,0.0,0.0,0.0,0.0,0.0,0.0,0.0,0.0,0.0,0.0,0.0,0.0,0.0,0.0,0.0,3.56,3.56,3.5814,3.6479,3.6581,3.6344,3.5667,3.6163,3.6581,3.6581,3.711,3.7471,3.7471,3.7618,3.7686,3.7686,3.7809,0.0,3.791,3.791,3.791,3.791,3.7753,3.7686,3.7686,0.0,0.0,3.7437,3.684,3.6581,3.6547,3.5881,3.56,3.56,3.56,3.56,3.56,3.543,3.5295,3.516,3.516,3.516,3.5103,0.0,0.0,0.0,0.0,0.0,0.0,0.0,3.12,3.1471,3.2192,3.2621,3.2723,3.2327,3.2317,3.1867,3.0751,3.032,3.0253,3.0615,3.1336,3.2249,3.3345,3.4461,3.5205,3.56,3.56,3.56,3.56,3.56,3.56,3.56,3.56,3.56,3.56,3.56,3.5814,3.6197,3.6197,3.6422,3.6794,3.7178,3.7562,3.7968,3.8713,3.9017,3.9017,3.9017,3.9017,3.9017,3.9017,3.851,3.7833,3.7461,3.6806,3.6062,0.0,0.0,0.0,0.0,0.0,0.0,0.0,0.0,0.0,0.0,0.0,0.0,0.0,0.0,3.4709,0.0,0.0,3.5735,3.6129,3.6197,3.6468,3.7246,3.7359,3.7212,3.6794,3.711,3.7359,3.7359,3.7686,3.791,3.791,3.8261,3.8464,3.8464,3.8802,3.9017,3.9017,3.9017,3.9017,3.9017,3.8633,3.8464,3.8464,3.8079,3.791,3.7877,3.7516,3.7359,3.7313,3.693,3.6524,3.6163,3.578,3.56,3.56,3.56,3.56,3.56,3.56,3.56,3.5532,0.0,0.0,0.0,0.0,0.0,0.0,0.0,3.12,3.1471,3.2192,3.2293,3.2293,3.2293,3.1775,3.1133,3.0378,2.9779,2.9745,3.048,3.2046,3.3129,3.3592,3.5036,3.578,3.56,3.56,3.56,3.56,3.56,3.56,3.56,3.56,3.56,3.56,3.56,3.56,3.56,3.56,3.56,3.5667,3.631,3.6581,3.6615,3.7246,3.764,3.791,3.791,3.791,3.791,3.791,3.7516,3.6987,3.6863,3.6366,3.5678,3.4945,3.4607,0.0,0.0,0.0,0.0,0.0,0.0,0.0,0.0,0.0,3.3829,3.4573,3.4709,3.4945,3.5678,3.5847,3.6084,3.6885,3.7021,3.7257,3.8024,3.8113,3.8159,3.8294,3.8193,3.8113,3.8113,3.8261,3.8328,3.8328,3.8882,3.922,3.922,3.9774,4.0113,4.0113,4.0113,4.0113,4.0113,3.9525,3.922,3.922,3.8599,3.8328,3.8328,3.8193,3.8113,3.8125,3.7956,3.755,3.6953,3.6163,3.5847,3.5814,3.5667,3.56,3.56,3.56,3.56,3.56,0.0,0.0,0.0,0.0,0.0,0.0,0.0,0.0,3.1471,3.2192,3.2293,3.2293,3.2293,3.2226,3.1887,3.1123,3.0997,3.1268,3.2022,3.4066,3.4968,3.4404,3.5836,3.6332,3.5633,3.56,3.56,3.56,3.56,3.56,3.56,3.56,3.56,3.56,3.56,3.56,3.56,3.56,3.56,3.56,3.5712,3.5735,3.5746,3.5836,3.6727,3.791,3.791,3.791,3.791,3.791,3.7843,3.7652,3.7021,3.6761,3.6513,3.5712,3.5002,3.4483,3.4404,3.3897,3.3548,3.4201,3.3863,3.3751,0.0,0.0,3.4573,3.534,3.5475,3.5712,3.6513,3.666,3.6919,3.7652,3.7787,3.8024,3.8768,3.8882,3.9119,3.9774,3.9288,3.8882,3.8882,3.9457,3.9863,3.9863,3.9943,3.9977,3.9977,4.0079,4.0113,4.0113,4.0113,4.0113,4.0113,4.0011,3.9977,3.9977,3.9897,3.9863,3.9842,3.9186,3.8882,3.8848,3.8181,3.7843,3.7719,3.6987,3.666,3.6581,3.5881,3.56,3.56,3.56,3.56,3.56,0.0,0.0,0.0,0.0,0.0,0.0,0.0,0.0,0.0,3.1606,3.1674,3.1674,3.1674,3.1268,3.0726,2.9982,3.0693,3.1336,3.164,3.4123,3.5475,3.5137,3.6603,3.728,3.6963,3.6535,3.6299,3.6299,3.5814,3.56,3.56,3.56,3.56,3.56,3.56,3.56,3.56,3.56,3.56,3.56,3.56,3.56,3.56,3.56,3.5746,3.5994,3.6422,3.6287,0.0,3.6422,3.6287,3.5926,3.6062,3.5802,3.5464,3.5577,3.507,3.4573,3.5013,3.4901,3.4867,0.0,3.5599,3.5656,3.6693,3.7043,3.7212,3.7516,3.7922,3.8205,3.8103,3.807,3.8171,0.0,3.8531,3.8802,3.9525,3.9626,3.9762,4.0079,3.9842,3.9626,3.9626,3.991,4.0113,4.0113,4.0113,4.0113,4.0113,4.0113,4.0113,4.0113,4.0113,4.0113,4.0113,4.0113,4.0113,4.0113,4.0113,4.0113,4.0079,3.9762,3.9626,3.9592,3.8882,3.8531,3.8497,3.7719,3.7449,3.7347,3.6603,3.6299,3.6231,3.578,3.56,3.56,0.0,0.0,0.0,0.0,0.0,0.0,0.0,0.0,0.0,0.0,3.12,3.12,3.12,3.0548,2.9973,2.9653,3.076,3.1606,3.1799,3.4596,3.6152,3.5949,3.7381,3.8125,3.791,3.7381,3.7088,3.7088,3.6524,3.6242,3.6242,3.6017,3.5915,3.5915,3.5712,3.56,3.56,3.56,3.56,3.56,3.56,3.56,3.56,3.56,3.5137,3.4584,3.5103,3.4833,3.4269,3.4799,3.463,3.4303,3.4833,3.463,3.4336,3.507,3.4912,3.4641,3.5408,3.578,0.0,3.7156,3.7562,3.7855,3.8384,3.8903,3.9288,3.9288,3.9559,3.9694,3.9343,3.914,3.9085,3.9288,3.9288,3.9491,4.0011,4.0282,4.0405,4.0405,4.0405,4.0472,4.0675,4.035,4.018,4.0371,4.0405,4.0472,4.0688,4.0709,4.0709,4.0709,4.0709,4.0608,4.0405,4.0405,4.0303,4.0113,4.0113,4.0113,4.0113,4.0113,4.0113,4.0079,3.9525,3.9288,3.9254,3.8497,3.8181,3.8125,3.7393,3.6998,3.6728,3.6163,3.578,3.56,0.0,0.0,0.0,0.0,0.0,0.0,0.0,0.0,0.0,0.0,0.0,0.0,0.0,3.0548,3.0378,3.1055,3.1819,3.2554,3.3288,3.6163,3.7516,3.6795,3.8171,3.8633,3.791,3.7877,3.7877,3.7877,3.7843,3.7843,3.7809,3.7088,3.6761,3.6728,3.5949,3.56,3.56,3.56,3.56,3.56,3.56,3.56,3.56,3.56,3.5137,3.4516,3.455,3.4066,3.3446,3.3457,3.3446,3.3446,3.3457,3.3446,3.3582,3.4313,3.4516,3.4641,3.5408,0.0,3.7122,3.8577,3.9478,4.0007,4.0028,4.0054,4.0079,4.0079,3.9525,3.9242,3.994,3.9466,3.922,3.9943,4.0079,4.0079,4.0113,4.0709,4.117,4.117,4.117,4.1441,0.0,4.0946,4.0405,4.1102,4.117,4.1474,4.2198,4.2232,4.2232,4.2232,4.2232,4.188,4.117,4.117,4.0798,4.0113,4.0113,4.0113,4.0113,4.0113,4.0113,4.0113,4.0079,4.0079,4.0011,3.9288,3.8983,3.887,3.8147,3.7415,3.6795,3.675,3.6265,3.56,0.0,0.0,0.0,0.0,0.0,0.0,0.0,0.0,0.0,0.0,0.0,0.0,0.0,0.0,0.0,0.0,3.1877,3.2621,3.3345,3.5757,3.7291,3.7516,3.8949,3.9592,3.9356,3.8882,3.8633,3.8633,3.8159,3.791,3.7877,3.7652,3.7516,3.7516,3.7234,3.7133,3.7133,3.7133,3.684,3.6411,3.6411,3.6096,3.56,3.56,3.4833,3.3761,0.0,3.3298,3.2757,3.3254,3.3085,3.2757,3.3254,3.3051,3.2824,3.3558,3.41,3.4878,3.6659,0.0,3.799,3.9986,4.0663,4.0954,4.1441,4.1542,4.1555,4.1555,4.1352,4.1102,4.0853,4.0629,4.0358,4.0146,4.0113,4.0269,4.0764,4.1035,4.1373,4.188,4.1914,0.0,0.0,0.0,0.0,4.188,4.1914,4.2049,4.23,4.23,4.23,4.23,4.23,4.2185,4.1914,4.1441,4.1068,4.0832,4.0337,4.0113,4.0113,4.0113,4.0113,4.0113,4.0113,4.0113,4.0079,3.9842,3.9728,3.966,3.8903,3.8476,3.8137,3.7168,3.6615,3.6332,0.0,0.0,0.0,0.0,0.0,0.0,0.0,0.0,0.0,0.0,0.0,0.0,0.0,0.0,0.0,0.0,0.0,3.2486,3.2983,3.4855,3.6445,3.7449,3.8408,3.9165,3.9694,3.8983,3.8734,3.9017,3.8531,3.843,3.8667,3.843,3.8294,3.8294,3.8024,3.791,3.791,3.791,3.7618,3.719,3.6919,3.6332,3.5566,3.5306,3.4292,0.0,3.3017,3.252,3.1979,3.2442,3.2307,3.1979,3.2476,3.2645,3.2723,3.296,3.411,3.5633,3.711,3.8091,3.914,4.1102,4.1576,4.1779,4.2523,4.2489,4.23,4.23,4.1894,4.1454,4.1238,4.0548,4.0054,4.0079,3.9876,4.0066,4.1068,4.1441,4.188,4.2625,4.2692,0.0,0.0,0.0,0.0,4.2658,4.2692,4.2828,4.3112,4.3112,4.3112,4.3112,4.3112,4.2963,4.2692,4.2219,4.1732,4.1204,4.0438,4.0113,4.0113,4.0113,4.0113,4.0113,4.0113,4.0113,4.0113,4.0113,4.0113,4.0045,3.9592,3.922,3.8882,3.7934,3.7257,3.6682,0.0,0.0,0.0,0.0,0.0,0.0,0.0,0.0,0.0,0.0,0.0,0.0,0.0,0.0,0.0,0.0,0.0,0.0,3.2293,3.3637,3.5126,3.6626,3.6761,3.7461,3.8882,3.8227,3.8261,3.8937,3.8937,3.9288,3.9977,3.9288,3.8937,3.8916,3.8227,3.791,3.791,3.791,3.7877,3.7775,3.7088,3.6332,3.5532,3.4776,3.3603,3.2361,3.2327,3.1819,3.12,3.1234,3.1292,3.1292,3.1292,3.2307,3.3322,3.2689,3.4595,3.6897,3.6987,3.8556,4.0506,4.1927,4.23,4.2489,4.3186,4.276,4.2232,4.2198,4.1048,4.0235,0.0,0.0,3.8396,3.9829,3.9491,3.958,4.1068,4.1847,4.2591,0.0,0.0,0.0,0.0,0.0,0.0,4.3457,0.0,4.3795,4.4567,4.4615,4.4615,4.4615,4.4615,4.4228,4.3457,4.3423,4.2645,4.1204,4.0506,4.0146,4.0113,4.0113,4.0113,4.0113,4.0113,4.0113,4.0113,4.0113,4.0113,4.0113,4.0113,3.966,3.9051,3.9005,3.8103,3.6784,0.0,0.0,0.0,0.0,0.0,0.0,0.0,0.0,0.0,0.0,0.0,0.0,0.0,0.0,0.0,0.0,0.0,0.0,3.2259,3.3152,3.41,3.5058,3.6186,3.6965,3.7359,3.7719,3.7978,3.8193,3.8193,3.8294,3.8464,3.8261,3.8193,3.8159,3.7978,3.791,3.791,3.791,3.7584,3.7054,3.6897,3.6332,3.5532,3.4776,3.3931,3.3051,3.2486,3.1819,3.1292,3.1843,0.0,0.0,0.0,3.3457,3.4415,3.5374,3.6581,3.799,3.9614,4.0493,4.1136,4.2063,4.23,4.2367,4.2523,4.2016,4.1305,4.0777,3.9931,3.9186,0.0,0.0,0.0,3.922,3.9592,0.0,4.1826,4.2185,0.0,4.4127,0.0,4.4364,4.4567,4.4398,0.0,0.0,4.4296,4.4364,4.4581,4.4615,4.4615,4.4615,4.4615,4.4499,4.4296,4.3693,4.2645,4.1204,4.1001,4.0641,4.0113,4.0113,4.0113,4.0113,4.0113,4.0113,4.0113,4.0113,4.0113,4.0113,4.0113,4.0011,3.9762,3.9186,3.878,3.8239,0.0,0.0,0.0,0.0,0.0,0.0,0.0,0.0,0.0,0.0,0.0,0.0,0.0,0.0,0.0,0.0,0.0,0.0,0.0,3.2205,3.2916,3.3964,3.4844,3.5622,3.6265,3.6671,3.7065,3.7427,3.7427,3.7584,3.791,3.791,3.791,3.791,3.791,3.791,3.791,3.791,3.7652,0.0,0.0,3.6332,3.5532,3.4776,3.384,3.2848,3.2462,3.2249,3.2273,0.0,0.0,3.3863,3.3863,3.4844,3.6163,3.7021,0.0,4.0087,4.1339,4.1914,4.2239,4.2692,4.2286,4.1745,4.1407,4.0764,4.002,3.9288,3.8543,0.0,0.0,0.0,0.0,0.0,0.0,0.0,4.2063,4.23,4.2875,0.0,4.4615,0.0,4.4615,4.4615,4.4615,0.0,4.4615,4.4615,4.4615,4.4615,4.4615,4.4615,4.4615,4.4615,4.4615,4.3809,4.2983,4.2172,4.1508,4.0967,4.0574,4.0248,4.0113,4.0113,0.0,4.0113,4.0113,4.0113,4.0113,4.0113,4.0113,4.0113,4.0079,3.9986,3.9749,3.9377,0.0,0.0,0.0,0.0,0.0,0.0,0.0,0.0,0.0,0.0,0.0,0.0,0.0,0.0,0.0,0.0,0.0,0.0,0.0,0.0,3.1765,3.3051,3.3311,3.3987,3.5261,3.5498,3.5949,3.6648,3.6648,3.6987,3.7606,3.7606,3.7606,3.7606,3.7606,3.7606,3.7606,3.7606,3.7606,3.7538,3.6885,3.6231,3.5532,0.0,3.3704,3.2598,3.2496,3.2858,0.0,0.0,3.4652,3.4641,3.4787,3.6299,3.8079,3.8282,4.029,4.2469,4.257,4.2929,4.3254,4.3254,4.2151,4.0865,4.0109,3.9478,3.8768,3.7922,0.0,3.6953,3.7516,3.7156,3.7257,3.8633,0.0,3.9762,4.1995,4.23,4.2875,4.4398,4.4615,4.4615,4.4615,4.4615,4.4615,4.4615,4.4615,4.4615,4.4615,4.4615,4.4615,4.4615,4.4615,4.4615,4.4615,4.391,4.3524,4.3389,4.2104,4.1407,4.117,4.054,4.0168,4.0113,0.0,0.0,4.0113,4.0113,4.0113,4.0113,4.0214,4.0248,4.0337,4.1068,4.092,4.0379,0.0,0.0,0.0,0.0,0.0,0.0,0.0,0.0,0.0,0.0,3.4212,3.384,0.0,0.0,0.0,0.0,0.0,0.0,0.0,0.0,0.0,3.1562,3.2747,3.3514,3.3785,3.4968,3.5678,3.5814,3.5814,3.587,3.6005,3.6005,3.6005,3.6005,3.6005,3.6005,3.6005,3.6005,3.6005,3.5971,3.5847,3.5712,3.5532,3.4776,0.0,0.0,3.3423,3.3288,3.3615,3.4968,3.5408,3.5543,3.6175,3.7494,3.9039,4.029,4.1833,4.3355,4.4025,4.3349,4.2489,4.2489,4.1386,4.01,3.9356,3.9073,0.0,0.0,3.6885,3.6648,3.6084,3.6434,0.0,3.7956,0.0,0.0,0.0,0.0,4.2875,0.0,0.0,0.0,0.0,0.0,0.0,0.0,0.0,0.0,4.4615,4.4615,4.4615,4.4615,4.4615,4.4615,4.4615,4.4465,4.4045,4.3389,4.3152,4.2374,4.1204,4.1068,4.0675,4.0113,4.0113,0.0,4.0113,4.0113,4.0113,4.018,4.0764,4.1001,4.1102,4.186,4.2029,4.1813,0.0,0.0,0.0,0.0,0.0,0.0,0.0,3.534,3.534,3.4618,3.4516,3.4201,3.3491,3.2757,3.2317,0.0,0.0,0.0,0.0,0.0,0.0,0.0,3.2611,3.3413,3.3413,3.4867,0.0,0.0,0.0,3.56,3.56,0.0,0.0,3.56,3.56,3.56,3.56,3.56,3.56,3.56,3.56,3.56,3.5566,0.0,0.0,0.0,0.0,0.0,3.4066,3.4776,3.5554,3.6434,3.7596,3.922,4.0878,4.1542,4.2508,4.3538,4.4353,4.3443,4.2247,4.2294,4.1487,4.0269,3.8768,0.0,0.0,0.0,3.6197,3.6062,3.5667,0.0,0.0,0.0,0.0,0.0,0.0,0.0,0.0,0.0,0.0,0.0,0.0,0.0,0.0,0.0,0.0,0.0,4.4615,4.4615,4.4615,4.4615,4.4615,4.4615,4.4615,4.4615,4.4398,4.4012,4.3592,4.3017,4.2307,4.1563,4.1001,4.0641,4.0269,0.0,4.0675,4.0675,4.0912,4.1284,4.161,4.1779,4.1847,4.2591,4.2861,4.2814,0.0,0.0,0.0,0.0,0.0,0.0,0.0,3.5103,3.5205,3.4776,3.4618,3.4269,3.3694,3.2824,3.2588,0.0,0.0,0.0,0.0,0.0,0.0,0.0,0.0,0.0,0.0,0.0,0.0,0.0,0.0,0.0,0.0,0.0,0.0,0.0,0.0,0.0,3.56,3.56,3.56,0.0,0.0,0.0,0.0,0.0,0.0,0.0,0.0,0.0,0.0,0.0,3.5667,3.6784,3.8103,4.0066,4.186,4.2029,4.244,4.312,4.4268,4.3222,4.1829,4.2213,4.1504,4.0213,3.8326,3.7769,0.0,0.0,3.56,3.56,3.56,0.0,3.6784,0.0,0.0,0.0,0.0,0.0,0.0,0.0,0.0,0.0,0.0,0.0,0.0,0.0,0.0,0.0,4.4615,4.4615,4.4615,4.4615,4.4615,4.4615,4.4615,4.4615,4.4615,4.4601,4.3944,4.366,4.3592,4.2104,4.1508,4.163,4.0709,0.0,0.0,4.1441,4.1779,4.2333,4.2455,4.2523,4.2625,4.3403,4.366,4.366,0.0,0.0,0.0,0.0,0.0,0.0,0.0,3.4979,3.481,3.543,3.4912,3.4472,3.4415,3.3129,3.2588,0.0,0.0,0.0,0.0,0.0,0.0,0.0,0.0,0.0,0.0,0.0,0.0,0.0,0.0,0.0,0.0,0.0,0.0,0.0,0.0,0.0,0.0,3.56,0.0,0.0,0.0,0.0,0.0,0.0,0.0,0.0,0.0,0.0,0.0,0.0,0.0,3.5847,3.6716,3.8522,4.0438,4.1102,0.0,0.0,4.4013,4.2482,4.0627,4.1957,4.0695,3.8897,3.8082,0.0,0.0,3.5778,3.56,3.56,3.56,3.5667,3.5983,0.0,0.0,3.843,0.0,0.0,0.0,0.0,0.0,0.0,0.0,0.0,0.0,0.0,0.0,0.0,0.0,4.4615,4.4615,4.4615,4.4615,4.4615,4.4615,4.4615,4.4615,4.4615,4.4547,4.4499,4.4432,4.2909,4.2557,4.3118,4.1698,0.0,0.0,4.2198,4.2232,4.2367,4.3051,4.3288,4.3389,4.4195,4.4499,4.4499,0.0,0.0,0.0,0.0,0.0,0.0,3.5013,3.5081,3.5103,3.4979,3.4675,3.4675,3.5103,3.3467,3.2588,3.3355,0.0,0.0,0.0,0.0,0.0,0.0,0.0,0.0,0.0,0.0,0.0,0.0,0.0,0.0,0.0,0.0,0.0,0.0,0.0,0.0,0.0,0.0,0.0,0.0,0.0,0.0,0.0,0.0,0.0,0.0,0.0,0.0,0.0,0.0,0.0,0.0,3.4415,3.5373,0.0,0.0,3.9196,3.9451,4.0801,3.9972,3.8977,4.0005,3.9954,3.9319,3.8154,0.0,3.7081,3.5847,3.56,3.56,3.56,3.56,3.5847,3.666,3.6637,0.0,0.0,0.0,0.0,0.0,0.0,0.0,0.0,0.0,0.0,0.0,0.0,0.0,0.0,4.4615,4.4615,4.4615,4.4615,4.4615,4.4615,4.4615,4.4615,4.4615,4.5041,4.5263,4.5229,4.4621,4.4248,4.4045,4.2983,0.0,0.0,4.2949,4.3234,4.3721,4.4025,4.4113,4.4147,4.4465,4.4615,4.4615,0.0,0.0,0.0,0.0,0.0,3.543,3.4912,3.507,3.5171,3.4878,3.4641,3.4709,3.5205,3.4066,3.3322,3.3379,3.3186,0.0,0.0,0.0,0.0,0.0,0.0,0.0,0.0,0.0,3.5712,3.5949,3.5949,0.0,0.0,0.0,0.0,0.0,0.0,0.0,0.0,0.0,0.0,0.0,0.0,0.0,0.0,0.0,0.0,0.0,0.0,0.0,0.0,0.0,0.0,0.0,0.0,3.3235,3.474,0.0,3.7104,3.6993,3.8757,3.8408,3.779,3.8969,3.9519,3.9408,0.0,0.0,3.7165,3.587,3.56,3.56,3.56,3.56,3.578,3.6332,3.6163,3.6422,0.0,0.0,0.0,0.0,0.0,0.0,0.0,0.0,0.0,0.0,0.0,0.0,0.0,4.4615,4.4615,4.4615,4.4615,4.4615,4.4615,4.4615,4.4615,4.4615,4.5128,4.5602,4.6007,4.5568,4.5432,4.5514,0.0,0.0,0.0,4.3829,4.4079,4.4615,4.4615,4.4615,4.4615,4.4615,4.4615,4.4615,0.0,0.0,0.0,0.0,0.0,0.0,3.56,3.4979,3.4776,3.5498,3.4945,3.4516,3.4516,3.5137,3.4968,3.3525,3.2723,0.0,0.0,0.0,0.0,0.0,0.0,0.0,0.0,0.0,3.5983,3.6795,3.6795,3.6795,3.6795,0.0,0.0,0.0,0.0,0.0,0.0,0.0,0.0,0.0,0.0,0.0,0.0,0.0,0.0,0.0,0.0,0.0,0.0,0.0,0.0,0.0,0.0,3.2824,3.3852,3.6141,3.5361,3.4672,3.8926,3.8467,3.7325,3.9546,3.9506,3.8719,0.0,0.0,3.6489,3.5733,3.56,3.56,3.56,3.56,3.56,3.56,3.6265,0.0,0.0,0.0,0.0,0.0,0.0,0.0,0.0,0.0,0.0,0.0,0.0,0.0,0.0,4.4615,4.4615,4.4615,4.4615,4.4615,4.4615,4.4615,4.4615,4.4615,4.4615,4.5379,4.6733,4.5277,4.5805,0.0,0.0,0.0,0.0,4.4905,4.4601,4.4615,4.4615,4.4615,4.4615,4.4615,4.4615,4.4615,0.0,0.0,0.0,0.0,0.0,0.0,0.0,3.5408,3.534,3.5566,3.5408,3.5239,3.5239,3.5013,3.4867,3.4901,3.4698,0.0,0.0,0.0,0.0,0.0,0.0,0.0,0.0,3.6129,3.6547,3.6795,3.7291,3.755,3.755,3.7021,3.6648,0.0,0.0,0.0,0.0,0.0,0.0,0.0,0.0,0.0,0.0,0.0,0.0,0.0,0.0,0.0,0.0,0.0,0.0,0.0,0.0,0.0,0.0,3.3227,3.4011,0.0,3.5923,3.6536,3.696,3.7612,3.7991,3.8026,3.73,0.0,3.6548,3.5768,3.56,3.56,3.56,3.56,3.578,3.6332,3.6615,0.0,0.0,0.0,0.0,0.0,0.0,0.0,0.0,0.0,0.0,0.0,0.0,0.0,0.0,4.4871,4.4615,4.4615,4.4615,4.4615,4.4615,4.4615,4.4615,4.4615,4.5094,4.5602,4.6041,4.609,0.0,0.0,0.0,0.0,0.0,4.4702,4.4615,4.4615,4.4615,4.4615,4.4615,4.4615,4.4615,4.4615,0.0,0.0,0.0,0.0,0.0,0.0,0.0,3.56,3.56,3.56,3.56,3.56,3.56,3.5205,3.5103,3.5566,3.5881,0.0,0.0,0.0,0.0,0.0,0.0,0.0,3.56,3.6084,3.6648,3.7224,3.7686,3.8046,3.8294,3.7833,3.7325,3.6795,3.6265,3.5881,0.0,0.0,0.0,0.0,0.0,0.0,3.56,0.0,0.0,0.0,0.0,0.0,0.0,0.0,0.0,0.0,0.0,0.0,0.0,0.0,3.3168,3.4615,0.0,3.562,3.6505,3.7024,3.7541,0.0,0.0,3.6795,3.6581,3.578,3.56,3.56,3.56,3.56,3.578,3.6265,3.6615,0.0,0.0,0.0,0.0,0.0,0.0,0.0,0.0,0.0,0.0,0.0,0.0,0.0,0.0,0.0,4.4615,4.4615,4.4615,4.4615,4.4615,4.4615,4.4615,4.4615,4.5074,4.5568,4.6143,4.6583,0.0,0.0,0.0,0.0,0.0,4.4838,4.4615,4.4615,4.4615,4.4615,4.4615,4.4615,4.4615,4.4615,0.0,0.0,0.0,0.0,0.0,0.0,0.0,3.56,3.56,3.56,3.56,3.56,3.56,3.5633,3.5678,3.5678,0.0,0.0,0.0,0.0,0.0,0.0,0.0,0.0,3.56,3.5701,3.649,3.791,3.8012,3.8396,3.9085,3.9017,3.8239,3.6897,3.6829,3.6332,3.56,3.56,3.56,3.56,3.56,3.56,0.0,0.0,0.0,0.0,0.0,0.0,0.0,0.0,0.0,0.0,0.0,0.0,0.0,0.0,0.0,0.0,0.0,3.5601,3.6079,0.0,0.0,0.0,0.0,3.6716,0.0,3.5735,3.56,3.5633,3.5667,3.5633,3.5633,3.5735,0.0,0.0,0.0,0.0,0.0,0.0,0.0,0.0,0.0,0.0,0.0,0.0,0.0,0.0,0.0,0.0,4.4615,4.4615,4.4615,4.4615,4.4615,4.4615,4.4615,4.4615,4.4649,4.5413,4.6718,4.68,0.0,0.0,0.0,0.0,0.0,4.5244,4.4649,4.4615,4.4615,4.4615,4.4615,4.4615,4.4615,4.4615,0.0,0.0,0.0,0.0,0.0,0.0,0.0,0.0,0.0,0.0,3.56,3.56,3.56,3.6163,3.6513,0.0,0.0,0.0,0.0,0.0,0.0,0.0,0.0,0.0,3.56,3.6761,3.7538,3.791,3.9039,3.966,3.9842,3.9254,3.8497,3.7618,3.7054,3.6332,3.56,3.56,3.56,3.56,3.56,3.56,0.0,0.0,0.0,0.0,3.3931,3.3186,0.0,0.0,0.0,0.0,0.0,0.0,0.0,0.0,3.2374,3.3683,3.3886,0.0,3.6463,3.6219,3.614,3.6118,0.0,0.0,0.0,0.0,0.0,0.0,0.0,0.0,0.0,0.0,0.0,0.0,0.0,0.0,0.0,0.0,0.0,0.0,0.0,0.0,0.0,0.0,0.0,0.0,0.0,0.0,4.4615,4.4615,4.4615,4.4615,4.4615,4.4615,4.4615,4.4615,4.5176,4.5635,4.5974,4.6549,0.0,0.0,0.0,0.0,4.594,4.5568,4.5108,4.4615,4.4615,4.4615,4.4615,4.4615,4.4615,4.4615,0.0,0.0,0.0,0.0,0.0,0.0,0.0,0.0,0.0,0.0,0.0,0.0,0.0,0.0,0.0,0.0,0.0,0.0,0.0,0.0,0.0,0.0,0.0,3.56,3.56,3.6422,3.72,3.791,3.87,3.9423,4.0079,3.9694,3.8949,3.7843,3.6738,3.6028,3.56,3.56,3.56,3.56,3.56,0.0,0.0,0.0,0.0,0.0,3.3163,3.2655,0.0,3.1911,3.1539,3.12,0.0,0.0,0.0,0.0,3.2239,3.3413,3.3413,3.4799,3.6129,3.5712,3.56,3.56,3.56,0.0,0.0,0.0,0.0,0.0,0.0,0.0,0.0,0.0,0.0,0.0,0.0,0.0,0.0,0.0,0.0,0.0,0.0,0.0,0.0,0.0,0.0,0.0,0.0,0.0,4.4615,4.4615,4.4615,4.4615,4.4615,4.4615,4.4615,4.4615,4.5007,4.5365,4.5689,4.6109,4.6481,0.0,0.0,0.0,4.5703,4.5703,4.5277,4.4615,4.4615,4.4615,4.4615,4.4615,4.4615,4.4615,0.0,0.0,0.0,0.0,0.0,0.0,0.0,0.0,0.0,0.0,0.0,0.0,0.0,0.0,0.0,0.0,0.0,0.0,0.0,0.0,0.0,0.0,3.56,3.5667,3.578,3.578,3.649,3.791,3.791,3.8599,3.9943,3.9943,3.922,3.7855,3.6422,3.5701,3.56,3.56,3.56,3.56,3.56,0.0,0.0,0.0,0.0,0.0,0.0,0.0,0.0,3.1403,3.12,3.12,3.12,0.0,0.0,0.0,0.0,0.0,3.3413,3.4562,3.5735,3.5633,3.56,3.56,3.56,0.0,0.0,0.0,0.0,0.0,0.0,3.578,0.0,0.0,0.0,0.0,0.0,0.0,0.0,0.0,0.0,0.0,0.0,0.0,0.0,0.0,0.0,0.0,0.0,0.0,0.0,4.4615,4.4615,4.4615,4.4615,4.4615,4.4615,4.4615,4.4702,4.5108,4.5703,4.5838,4.6278,0.0,0.0,0.0,4.5872,4.5872,4.5365,4.4615,4.4615,4.4615,4.4615,4.4615,4.4615,4.4615,0.0,0.0,0.0,0.0,0.0,0.0,0.0,0.0,0.0,0.0,0.0,0.0,0.0,0.0,0.0,0.0,0.0,0.0,0.0,0.0,0.0,3.56,3.56,3.5915,3.6615,3.6615,3.7054,3.791,3.791,3.8328,3.9186,3.9186,3.87,3.7843,3.6987,3.6231,3.56,3.56,3.56,3.56,3.56,0.0,0.0,0.0,0.0,0.0,0.0,0.0,0.0,3.1234,3.12,3.12,3.12,0.0,0.0,0.0,0.0,0.0,3.3413,3.4979,3.6445,3.578,3.56,3.56,3.56,3.56,0.0,0.0,0.0,0.0,0.0,0.0,0.0,0.0,0.0,0.0,0.0,0.0,0.0,0.0,0.0,0.0,0.0,0.0,0.0,0.0,0.0,0.0,0.0,0.0,0.0,4.4615,4.4615,4.4615,4.4615,4.4615,4.4615,4.4615,4.5229,4.5602,4.5737,4.6346,4.7022,0.0,0.0,4.7327,4.6616,4.6616,4.5819,4.4615,4.4615,4.4615,4.4615,4.4615,4.4615,4.4615,0.0,0.0,0.0,0.0,0.0,0.0,0.0,0.0,0.0,0.0,0.0,0.0,0.0,0.0,0.0,0.0,0.0,0.0,0.0,0.0,3.578,3.6231,3.6231,3.6411,3.6795,3.6795,3.7156,3.791,3.791,3.8294,3.8971,3.8599,3.8227,3.7843,3.6671,3.5949,3.56,3.56,3.5374,3.5013,0.0,0.0,0.0,0.0,0.0,0.0,0.0,0.0,0.0,0.0,3.12,3.12,3.12,0.0,0.0,0.0,0.0,0.0,3.3413,3.4742,3.6163,3.6231,3.6569,3.6828,3.6828,3.6828,0.0,0.0,0.0,0.0,0.0,0.0,0.0,0.0,0.0,0.0,0.0,0.0,0.0,0.0,0.0,0.0,0.0,0.0,0.0,0.0,0.0,0.0,0.0,0.0,4.4615,4.4615,4.4615,4.4615,4.4615,4.4615,4.4804,4.5196,4.5534,4.5906,4.6312,4.665,4.6989,4.7327,0.0,4.7481,4.68,4.68,4.6177,4.5142,4.477,4.4615,4.4615,4.4615,4.4615,4.4615,0.0,0.0,0.0,0.0,0.0,0.0,0.0,0.0,0.0,0.0,0.0,0.0,0.0,0.0,0.0,0.0,0.0,0.0,0.0,3.56,3.5881,3.6479,3.6682,3.6953,3.7303,3.6965,3.7156,3.791,3.7538,3.7753,3.8476,3.8261,3.799,3.7584,3.6422,3.5678,3.534,3.534,3.4912,3.4235,0.0,0.0,0.0,0.0,0.0,0.0,0.0,0.0,0.0,0.0,0.0,0.0,0.0,0.0,0.0,3.12,3.2239,3.3413,3.3413,3.4596,3.6028,3.6648,3.7077,3.7471,3.7809,3.7787,3.7686,0.0,0.0,0.0,0.0,0.0,0.0,0.0,0.0,0.0,0.0,0.0,0.0,0.0,0.0,0.0,0.0,0.0,0.0,0.0,0.0,0.0,0.0,0.0,4.4615,4.4615,4.4615,4.4615,4.4615,4.4615,4.4871,4.5432,4.5635,4.6007,4.6549,4.6718,4.6887,4.709,4.765,4.7582,4.7056,4.6853,4.638,4.5635,4.4871,4.4615,4.4615,4.4615,4.4615,4.4615,0.0,0.0,0.0,0.0,0.0,0.0,0.0,0.0,0.0,0.0,0.0,0.0,0.0,0.0,0.0,0.0,0.0,0.0,0.0,3.56,3.5633,3.5667,3.6411,3.7427,3.8814,3.7494,3.7156,3.791,3.649,3.6152,3.6998,3.8307,3.8205,3.6851,3.6761,3.5904,3.4584,3.4584,3.4167,3.3491,3.3491,0.0,0.0,0.0,0.0,0.0,0.0,0.0,0.0,0.0,0.0,0.0,0.0,0.0,3.12,3.12,3.2239,3.3413,3.3413,3.5013,3.6728,3.6795,3.6265,3.614,3.7572,3.7359,3.7054,3.7753,0.0,0.0,0.0,0.0,0.0,0.0,0.0,0.0,0.0,0.0,0.0,0.0,0.0,0.0,0.0,0.0,0.0,0.0,0.0,0.0,0.0,0.0,0.0,4.4615,4.4615,4.4615,4.4615,4.4615,4.4635,4.4702,4.5365,4.5722,4.579,4.6481,4.7158,4.7819,4.7887,4.7887,4.7785,4.709,4.638,4.5635,4.4871,4.4615,4.4615,4.4615,4.4615,4.4615,0.0,0.0,0.0,0.0,0.0,0.0,0.0,0.0,0.0,0.0,0.0,0.0,0.0,0.0,0.0,0.0,0.0,0.0,0.0,3.56,3.5814,3.6332,3.6648,3.7291,3.8294,3.7753,3.7381,3.7224,3.6648,3.6738,3.7483,3.7596,3.7088,3.6028,3.5566,3.5058,3.4483,3.3998,3.366,3.3355,3.2892,3.2283,0.0,0.0,0.0,0.0,0.0,0.0,0.0,0.0,3.12,3.1123,3.0649,3.0818,3.12,3.12,3.2239,3.3491,3.3964,3.5396,3.6795,3.6795,3.6907,3.7302,3.8362,3.8362,3.851,3.9715,3.994,0.0,0.0,0.0,0.0,0.0,0.0,0.0,0.0,0.0,0.0,0.0,0.0,0.0,0.0,0.0,0.0,0.0,0.0,0.0,0.0,0.0,0.0,4.4615,4.4615,4.4615,4.4615,4.4615,4.4615,4.4601,4.5819,4.638,4.6413,4.7631,4.7834,4.7259,4.8206,4.8326,4.7887,4.7582,4.6771,4.5602,4.435,4.4147,4.4615,4.4615,4.4615,4.4615,0.0,0.0,0.0,0.0,0.0,0.0,0.0,0.0,0.0,0.0,0.0,0.0,0.0,0.0,0.0,0.0,0.0,0.0,3.56,3.56,3.5847,3.6411,3.6648,3.6919,3.7166,3.7415,3.7325,3.6795,3.6795,3.6919,3.7166,3.6919,3.6366,3.5566,3.5081,3.4573,3.41,3.3615,3.3108,3.2645,3.2148,3.164,0.0,0.0,0.0,0.0,0.0,0.0,0.0,0.0,3.0523,3.0422,2.9905,3.0108,3.0591,3.1065,3.207,3.3254,3.4246,3.543,3.6479,3.6761,3.719,3.7855,3.9085,3.9343,3.9715,4.0933,4.1563,4.2049,0.0,0.0,0.0,0.0,0.0,0.0,0.0,0.0,0.0,0.0,0.0,0.0,0.0,0.0,0.0,0.0,0.0,0.0,0.0,0.0,0.0,0.0,4.4615,4.4615,4.4615,4.4615,4.4615,4.4601,4.5853,4.6447,4.6481,4.7733,4.7733,4.6868,4.7868,4.8157,4.7853,4.7413,4.6466,4.5263,4.4181,4.4113,4.4615,4.4615,4.4615,4.4615,0.0,0.0,0.0,0.0,0.0,0.0,0.0,0.0,0.0,0.0,0.0,0.0,0.0,0.0,0.0,0.0,0.0,0.0,3.56,3.56,3.56,3.56,3.6366,3.6411,3.5633,3.6366,3.6795,3.6795,3.6795,3.6378,3.5633,3.6411,3.6366,3.5566,3.5566,3.4754,3.3379,3.3379,3.2544,3.119,3.12,3.12,3.12,0.0,0.0,0.0,0.0,0.0,0.0,0.0,2.901,2.901,2.8976,2.901,2.9314,3.076,3.1742,3.2632,3.411,3.5036,3.5814,3.6615,0.0,0.0,3.9605,4.0087,4.0299,4.1056,4.2374,4.3423,4.3423,0.0,0.0,0.0,0.0,0.0,0.0,0.0,0.0,0.0,0.0,0.0,0.0,0.0,0.0,0.0,0.0,0.0,0.0,0.0,0.0,0.0,4.4615,4.4615,4.4615,4.4615,4.4615,4.4601,4.5331,4.5703,4.5689,4.6447,4.6786,4.68,4.6786,4.7225,4.7785,4.6297,4.5263,4.4601,4.4615,4.4615,4.4615,4.4615,4.4615,4.4615,0.0,0.0,0.0,0.0,0.0,0.0,0.0,0.0,0.0,0.0,0.0,0.0,0.0,0.0,0.0,0.0,0.0,0.0,3.56,3.56,3.56,3.56,3.5814,3.5847,3.56,3.5318,3.5701,3.6795,3.6231,3.6129,3.6445,3.6096,3.5273,3.4055,3.4055,3.3525,3.2588,3.207,3.1911,3.1911,3.1403,3.12,3.1123,0.0,0.0,0.0,0.0,0.0,0.0,0.0,0.0,0.0,2.834,2.9262,3.0523,3.0446,3.2036,3.3941,3.4381,3.5464,0.0,3.6761,0.0,0.0,0.0,4.01,0.0,0.0,4.3538,4.4228,0.0,0.0,0.0,0.0,0.0,0.0,0.0,0.0,0.0,0.0,0.0,0.0,0.0,0.0,0.0,0.0,0.0,0.0,0.0,0.0,0.0,0.0,4.4615,4.4615,4.4615,4.4615,4.4615,4.4615,4.4804,4.4939,4.4973,4.6225,4.6225,4.5311,4.636,4.6616,4.6331,4.5858,4.5568,4.5331,4.4804,4.4615,4.4615,4.4615,4.4615,4.4615,0.0,0.0,0.0,0.0,0.0,0.0,0.0,0.0,0.0,0.0,3.7257,3.6682,0.0,0.0,0.0,0.0,0.0,0.0,0.0,3.56,3.56,3.56,3.56,3.56,3.56,3.4878,3.4956,3.5881,3.5115,3.5103,3.587,3.5385,3.4833,3.4258,3.4258,3.3683,3.2723,3.2273,3.2002,3.1809,3.1369,3.1021,3.0717,0.0,0.0,0.0,0.0,0.0,0.0,0.0,0.0,0.0,2.7959,2.8949,3.0422,3.0862,3.2215,3.3806,3.4709,3.587,0.0,3.7156,3.834,3.9795,4.1102,0.0,0.0,0.0,0.0,0.0,0.0,0.0,0.0,0.0,0.0,0.0,0.0,0.0,0.0,0.0,0.0,0.0,0.0,0.0,0.0,0.0,0.0,0.0,0.0,0.0,0.0,0.0,4.4615,4.4615,4.4615,4.4615,4.4615,4.4615,4.4615,4.4615,4.4635,4.5514,4.5447,4.4682,4.5853,4.594,4.5297,4.5906,4.5771,4.5229,4.5108,4.4871,4.4615,4.4615,4.4615,4.4615,0.0,0.0,0.0,0.0,0.0,0.0,0.0,0.0,0.0,0.0,3.7122,3.64,0.0,0.0,0.0,0.0,0.0,0.0,0.0,3.56,3.56,3.56,3.56,3.56,3.56,3.481,3.4404,3.4404,3.3728,3.3795,3.4516,3.4516,3.4878,3.5498,3.5498,3.4731,3.3413,3.3322,3.2544,3.1302,3.1234,3.0784,3.02,3.0132,0.0,0.0,0.0,0.0,0.0,0.0,0.0,0.0,2.7891,2.8518,2.9585,3.1515,3.2293,3.2926,3.4867,3.6096,0.0,3.7719,3.9119,0.0,4.2916,0.0,0.0,0.0,0.0,0.0,0.0,0.0,0.0,0.0,0.0,0.0,0.0,0.0,0.0,0.0,0.0,0.0,0.0,0.0,0.0,0.0,0.0,0.0,0.0,0.0,0.0,0.0,4.4615,4.4615,4.4615,4.4615,4.4615,0.0,4.4615,4.4615,4.4615,4.4615,4.4615,4.4649,4.5297,4.5263,4.4804,4.6157,4.5954,4.4871,4.5466,4.5297,4.4702,4.4601,4.4615,4.4615,0.0,0.0,0.0,0.0,0.0,0.0,0.0,0.0,0.0,0.0,0.0,0.0,0.0,0.0,0.0,0.0,0.0,0.0,0.0,3.56,3.56,3.56,3.56,3.56,3.56,3.4292,3.366,3.366,3.3491,3.3795,3.4516,3.4516,3.4584,3.4742,3.4742,3.4235,3.3345,3.2791,3.2361,3.2022,3.1437,3.1089,3.0886,3.0301,2.9997,0.0,0.0,0.0,0.0,0.0,0.0,0.0,2.873,2.9644,3.0726,3.0615,3.2205,3.4009,3.3886,3.5329,0.0,0.0,3.9884,4.2097,4.3152,0.0,0.0,0.0,0.0,0.0,0.0,0.0,0.0,0.0,0.0,0.0,0.0,0.0,0.0,0.0,0.0,0.0,0.0,0.0,0.0,0.0,0.0,0.0,0.0,0.0,0.0,4.4615,4.4615,4.4615,4.4615,4.4615,4.4615,0.0,4.4615,4.4615,4.4615,4.4615,4.4615,4.4601,4.477,4.5074,4.55,4.5805,4.6075,4.6293,4.5872,4.5602,4.5399,4.4804,4.4615,4.4615,0.0,0.0,0.0,0.0,0.0,0.0,0.0,0.0,0.0,0.0,0.0,0.0,0.0,0.0,0.0,0.0,0.0,0.0,0.0,0.0,3.56,3.56,3.56,3.5442,3.507,3.3954,3.322,3.2858,3.2858,3.3254,3.3964,3.4336,3.4889,3.5599,3.5599,3.5182,3.4393,3.3288,3.2621,3.2226,3.1505,3.0997,3.0649,3.0234,2.9871,2.9508,2.9145,0.0,0.0,0.0,0.0,0.0,0.0,0.0,3.119,3.1157,3.2476,3.3964,3.3931,0.0,0.0,3.914,0.0,4.2489,4.322,0.0,0.0,0.0,0.0,0.0,0.0,0.0,0.0,0.0,0.0,0.0,0.0,0.0,0.0,0.0,0.0,0.0,0.0,0.0,0.0,0.0,0.0,0.0,0.0,4.4615,4.4615,4.4615,4.4615,4.4615,4.4615,4.4615,4.4615,4.4615,4.4615,4.4615,4.4615,4.4615,4.4615,4.4615,4.4615,4.4804,4.5229,4.594,4.6244,4.6244,4.5838,4.5703,4.5568,4.4451,4.4262,4.4615,0.0,0.0,0.0,0.0,0.0,0.0,0.0,0.0,0.0,0.0,0.0,0.0,0.0,0.0,0.0,0.0,0.0,0.0,0.0,0.0,0.0,3.56,3.5475,3.5103,3.4516,3.3795,3.3085,3.2496,3.2496,3.2926,3.3785,3.4404,3.543,3.6795,3.6795,3.6332,3.5498,3.4021,3.3051,3.2418,3.1539,3.0818,3.0301,3.0301,2.9905,2.9382,2.9382,2.9382,2.9382,2.9382,0.0,0.0,0.0,0.0,3.1336,3.1911,3.2621,3.3355,3.411,0.0,3.8261,4.0447,4.1576,0.0,0.0,0.0,0.0,0.0,0.0,0.0,0.0,0.0,0.0,0.0,0.0,0.0,0.0,0.0,0.0,0.0,0.0,0.0,0.0,0.0,0.0,0.0,0.0,0.0,4.4615,4.4615,4.4615,4.4615,4.4615,4.4615,4.4615,4.4615,4.4615,4.4615,4.4615,4.4615,4.4615,4.4615,4.4615,4.4615,4.4615,4.4668,4.4871,4.6123,4.6312,4.5872,4.5602,4.55,4.5331,4.393,4.3809,4.4398,0.0,0.0,0.0,0.0,0.0,0.0,0.0,0.0,0.0,0.0,3.5678,0.0,0.0,0.0,0.0,0.0,0.0,0.0,0.0,0.0,0.0,3.56,3.4979,3.4618,3.4516,3.3795,3.3345,3.3243,3.3243,3.3954,3.5295,3.5408,3.5926,3.6795,3.6795,3.6332,3.5498,3.4021,3.3355,3.3108,3.1765,3.1123,3.1055,3.1055,3.0997,3.0929,3.0929,3.0929,3.0929,3.0929,3.0954,0.0,0.0,0.0,3.1234,3.1336,3.1877,3.2598,0.0,0.0,3.7494,0.0,4.0785,4.1711,0.0,0.0,0.0,0.0,0.0,0.0,0.0,0.0,0.0,0.0,0.0,0.0,0.0,0.0,0.0,0.0,0.0,0.0,0.0,0.0,0.0,0.0,0.0,0.0,4.4615,4.4615,4.4615,4.4615,4.4615,4.4615,4.4615,4.4615,4.4615,4.4615,4.4615,4.4615,4.4615,4.4615,4.4615,4.4615,4.4615,4.4973,4.5568,4.5771,4.6177,4.653,4.5244,4.4736,4.4635,4.3727,4.3457,4.366,0.0,0.0,0.0,0.0,0.0,0.0,0.0,0.0,0.0,0.0,0.0,3.56,0.0,0.0,0.0,0.0,0.0,0.0,0.0,0.0,0.0,3.5633,3.5723,3.5396,3.4516,3.4167,3.3829,3.3413,3.3829,3.4776,3.6265,3.6693,3.7313,3.8002,3.7596,3.7212,3.6727,3.4393,3.3413,3.3288,3.1799,3.1437,3.1775,3.1369,3.1471,3.1742,3.1336,3.12,3.12,3.12,3.12,3.12,3.12,0.0,0.0,0.0,3.1708,3.2621,3.4224,3.5374,3.6569,0.0,3.9737,0.0,0.0,0.0,0.0,0.0,0.0,0.0,0.0,0.0,0.0,0.0,0.0,0.0,0.0,0.0,0.0,0.0,0.0,0.0,0.0,0.0,0.0,0.0,0.0,4.4615,4.4615,4.4615,4.4615,4.4615,4.4615,4.4615,4.4615,4.4615,4.4615,4.4615,4.4615,4.4615,4.4615,4.4615,4.4615,4.4615,4.4615,4.477,4.5142,4.5534,4.5906,4.6041,4.4519,4.4451,4.5026,4.3403,4.3335,4.4113,0.0,0.0,0.0,0.0,0.0,0.0,0.0,0.0,0.0,0.0,0.0,0.0,0.0,0.0,0.0,0.0,0.0,0.0,0.0,0.0,0.0,3.5633,3.6005,3.5667,3.4516,3.4516,3.4246,3.3694,3.4404,3.5566,3.7088,3.7652,3.8396,3.9254,3.8328,3.7674,3.7133,3.4495,3.3413,3.3288,3.2012,3.1819,3.2259,3.1911,3.2114,3.2486,3.1742,3.1471,3.1437,3.1268,3.12,3.12,3.12,3.12,0.0,0.0,0.0,0.0,0.0,0.0,3.5678,3.7246,3.8587,0.0,0.0,0.0,0.0,0.0,0.0,0.0,0.0,0.0,0.0,0.0,0.0,0.0,0.0,0.0,0.0,0.0,0.0,0.0,0.0,0.0,0.0,0.0,0.0,4.4615,4.4615,4.4615,4.4615,4.4615,4.4615,4.4615,4.4615,4.4615,4.4615,4.4615,4.4615,4.4615,4.4615,4.4615,4.4615,4.4615,4.4615,4.4615,4.4668,4.5399,4.5602,4.5297,4.4133,4.4268,4.4911,4.32,4.3301,4.433,0.0,0.0,0.0,0.0,0.0,0.0,0.0,0.0,0.0,0.0,0.0,0.0,3.56,3.6265,3.6761,3.6761,3.7381,0.0,0.0,0.0,0.0,3.5633,3.4979,0.0,3.4516,3.4516,3.4483,3.4449,3.5171,3.6321,3.7855,3.7877,3.8667,3.9977,3.8531,3.7099,3.5633,3.4055,3.3413,3.3311,3.2554,3.2259,3.2361,3.3017,3.3311,3.3254,3.252,3.2226,3.2124,3.1437,3.12,3.12,3.12,3.12,3.12,0.0,0.0,0.0,0.0,3.4032,0.0,3.6479,0.0,0.0,0.0,0.0,0.0,0.0,0.0,0.0,0.0,0.0,0.0,0.0,0.0,0.0,0.0,0.0,0.0,0.0,0.0,0.0,0.0,0.0,0.0,0.0,0.0,4.4615,4.4615,4.4615,4.4615,4.4615,4.4615,4.4615,4.4615,4.4615,4.4615,4.4615,4.4615,4.4615,4.4615,4.4615,4.4615,4.4615,4.4615,4.4615,4.4668,4.5399,4.5297,4.4649,4.4567,4.4113,4.3524,4.3389,4.3389,4.3558,0.0,0.0,0.0,0.0,0.0,0.0,0.0,0.0,0.0,0.0,0.0,0.0,0.0,3.7347,3.7516,3.7516,3.7313,0.0,0.0,0.0,0.0,3.5633,3.5825,3.5735,3.5205,3.5205,3.5205,3.5205,3.5464,3.6152,3.719,3.719,3.7461,3.798,3.7922,3.7606,3.6896,3.4461,3.3413,3.3355,3.2588,3.2588,3.3017,3.3311,3.3694,0.0,0.0,0.0,0.0,0.0,0.0,0.0,3.12,3.12,3.12,3.12,3.1403,0.0,0.0,0.0,0.0,0.0,0.0,0.0,0.0,0.0,0.0,0.0,0.0,0.0,0.0,0.0,0.0,0.0,0.0,0.0,0.0,0.0,0.0,0.0,0.0,0.0,0.0,0.0,0.0,0.0,0.0,0.0,4.4615,4.4615,4.4615,4.4615,4.4615,4.4615,4.4615,4.4615,4.4615,4.4615,4.4615,4.4615,4.4615,4.4615,4.4615,4.4615,4.4615,4.4615,4.4615,4.4871,4.4838,4.4615,4.4615,4.4432,4.4127,4.3592,4.3389,4.3457,0.0,0.0,0.0,0.0,0.0,0.0,0.0,0.0,0.0,3.7156,0.0,0.0,0.0,0.0,3.8261,3.8261,3.7833,3.7337,3.6829,3.6795,3.6445,3.5633,3.6129,3.6163,3.56,3.5374,3.534,3.56,3.534,3.5757,3.6795,3.6795,3.6931,3.719,3.7133,3.7133,3.6997,3.4731,3.3761,3.3728,3.3231,3.3332,3.3795,0.0,0.0,0.0,0.0,0.0,0.0,0.0,0.0,0.0,0.0,3.1403,3.12,3.12,3.12,0.0,3.3017,0.0,0.0,0.0,0.0,0.0,0.0,0.0,0.0,0.0,0.0,0.0,0.0,0.0,0.0,0.0,0.0,0.0,0.0,0.0,0.0,0.0,0.0,0.0,0.0,0.0,0.0,0.0,0.0,0.0,4.4615,4.4615,4.4615,4.4615,4.4615,4.4615,4.4615,4.4615,4.4615,4.4615,4.4615,4.4615,4.4615,4.4615,4.4615,4.4615,4.4615,4.4615,4.4615,4.4615,4.4615,4.4601,4.4871,4.4804,4.4533,4.4012,4.3809,4.3775,0.0,0.0,0.0,0.0,0.0,0.0,0.0,0.0,3.791,3.791,0.0,0.0,0.0,0.0,0.0,3.9017,3.8983,3.834,3.6897,3.6795,3.6411,3.5633,0.0,0.0,3.56,3.4912,3.4878,3.56,3.4878,3.5295,3.6761,3.6795,3.719,3.7809,3.6309,3.5633,3.5566,3.481,3.4483,3.455,0.0,3.455,3.4652,0.0,0.0,0.0,3.4912,3.4652,0.0,0.0,0.0,0.0,0.0,3.1819,3.1224,3.1224,3.1224,0.0,0.0,0.0,0.0,0.0,0.0,0.0,0.0,0.0,0.0,0.0,0.0,0.0,0.0,0.0,0.0,0.0,0.0,0.0,0.0,0.0,0.0,0.0,0.0,0.0,0.0,0.0,0.0,0.0,0.0,4.4615,4.4615,4.4615,4.4615,4.4615,4.4615,4.4601,4.4635,4.4601,4.4601,4.4635,4.4601,4.4615,4.4615,4.4615,4.4615,4.4615,4.4615,4.4615,4.4615,4.4615,4.4601,4.4702,4.5432,4.5263,4.4635,4.4635,4.4615,4.4465,0.0,0.0,0.0,0.0,0.0,0.0,3.791,3.8362,3.87,0.0,0.0,0.0,3.8734,3.8882,3.9017,3.9017,3.8497,3.7787,3.6863,3.6265,3.5847,3.56,3.56,3.56,3.56,3.5408,3.5408,3.56,3.5408,3.5509,3.5949,3.6513,3.6919,3.7088,3.6648,3.6479,3.6344,3.4472,3.4326,3.5306,3.5306,3.5656,0.0,0.0,0.0,0.0,0.0,3.7867,3.684,0.0,3.5126,3.3975,0.0,0.0,3.1989,3.1989,3.1989,0.0,3.3806,0.0,0.0,0.0,0.0,0.0,0.0,0.0,0.0,0.0,0.0,0.0,0.0,0.0,0.0,0.0,0.0,0.0,0.0,0.0,0.0,0.0,0.0,0.0,0.0,0.0,0.0,0.0,4.4615,4.4615,4.4615,4.4615,4.4615,4.4615,4.4615,4.4871,4.5399,4.4871,4.4871,4.5399,4.4838,4.4615,4.4615,4.4615,4.4615,4.4615,4.4615,4.4615,4.4615,4.4615,4.4905,4.5432,4.5635,4.5568,4.5399,4.5399,4.4688,4.3775,0.0,0.0,0.0,0.0,0.0,3.8802,3.8802,3.9186,3.9457,0.0,0.0,0.0,3.9085,3.9017,3.8746,3.8137,3.7956,3.7584,3.6863,3.6637,3.6422,3.6129,3.6096,3.5949,3.56,3.56,3.578,3.6096,3.6096,3.6253,3.6558,3.7043,3.7257,3.7224,3.6581,3.6479,3.666,3.472,0.0,0.0,3.6309,0.0,0.0,3.8916,3.9445,0.0,0.0,0.0,3.8756,3.8328,3.6987,0.0,0.0,0.0,0.0,0.0,0.0,0.0,0.0,0.0,0.0,0.0,0.0,0.0,0.0,3.56,0.0,0.0,0.0,0.0,0.0,0.0,0.0,0.0,0.0,0.0,0.0,0.0,0.0,0.0,0.0,0.0,0.0,0.0,0.0,4.4615,4.4615,4.4615,4.4615,4.4615,4.4615,4.4615,4.4905,4.5142,4.5229,4.5142,4.5142,4.5244,4.4804,4.4615,4.4615,4.4615,4.4615,4.4615,4.4615,4.477,4.5041,4.4736,4.4838,4.5297,4.5906,4.5974,4.5703,4.5703,4.5331,4.479,0.0,0.0,3.9322,4.0011,4.0113,4.0113,4.0113,4.0113,4.0146,0.0,4.0202,3.9999,3.9423,3.922,3.8577,3.7269,3.7686,3.7719,3.6953,3.755,3.7618,3.6953,3.6919,3.6581,3.587,3.5847,3.6219,3.6919,3.6919,3.7257,3.791,3.7978,3.8012,3.7956,3.649,3.6265,3.6818,0.0,0.0,3.5881,3.7403,3.8058,0.0,0.0,4.046,0.0,4.0574,4.0527,4.0434,4.0265,3.8768,0.0,0.0,0.0,0.0,0.0,3.3119,0.0,0.0,0.0,0.0,0.0,0.0,0.0,3.56,3.56,0.0,0.0,0.0,0.0,0.0,0.0,0.0,0.0,0.0,0.0,0.0,0.0,0.0,0.0,0.0,0.0,0.0,4.4465,4.4499,4.4601,4.4615,4.4615,4.4615,4.4615,4.4615,4.4615,4.5244,4.5331,4.4838,4.5331,4.5331,4.4838,4.4668,4.4615,4.4615,4.4615,4.4615,4.4615,4.4702,4.5041,4.5534,4.5041,4.4838,4.4939,4.6123,4.6244,4.5838,4.5838,4.6244,4.6616,0.0,0.0,3.9943,4.0079,4.0113,4.0113,4.0113,4.0113,4.0303,4.0899,4.1001,4.117,4.1623,4.0608,3.9774,3.9469,3.9051,3.8464,3.7719,3.7809,3.7855,3.7686,3.7686,3.7606,3.7437,3.7437,3.755,3.7686,3.7686,3.7753,3.791,3.8497,3.878,3.8734,3.7843,3.7538,3.7584,0.0,0.0,3.6682,3.8205,0.0,3.9897,4.1982,4.2746,4.2848,4.3484,4.3301,4.2577,0.0,3.9512,3.7618,0.0,0.0,0.0,0.0,0.0,0.0,0.0,0.0,0.0,0.0,0.0,0.0,3.56,3.56,0.0,0.0,0.0,0.0,0.0,0.0,0.0,0.0,0.0,0.0,0.0,0.0,0.0,0.0,0.0,0.0,0.0,4.3626,4.391,4.4533,4.4615,4.4615,4.4615,4.4615,4.4615,4.4615,4.4736,4.5311,4.636,4.5345,4.5345,4.636,4.5176,4.4615,4.4615,4.4615,4.4615,4.4635,4.5229,4.5229,4.4905,4.5954,4.636,4.6293,4.5379,4.5684,4.6597,4.6597,4.6699,4.6819,0.0,4.0113,4.0214,4.0574,4.0641,4.0777,4.1149,4.1183,4.1318,4.1711,4.1441,4.1068,4.0696,3.9999,3.9389,3.9039,3.9017,3.8848,3.8464,3.8802,3.8836,3.8464,3.8464,3.8294,3.7922,3.8261,3.8464,3.8464,3.8802,3.9017,3.9017,3.9389,3.9559,3.9525,3.8768,3.8261,3.7843,0.0,3.6434,3.6931,3.8408,0.0,4.0878,4.3132,4.4248,4.464,4.5413,4.5196,4.4336,4.2814,4.1056,0.0,0.0,3.8193,3.7765,0.0,3.6997,3.7212,0.0,0.0,0.0,3.6096,0.0,0.0,0.0,3.56,3.56,0.0,0.0,0.0,0.0,0.0,0.0,0.0,0.0,0.0,0.0,0.0,0.0,0.0,0.0,0.0,0.0,4.2861,4.3166,4.3944,4.4012,4.4195,4.4567,4.4615,4.4615,4.4615,4.4973,4.55,4.6244,4.55,4.55,4.6244,4.5142,4.4615,4.4615,4.4615,4.4804,4.5142,4.5142,4.5345,4.5684,4.5684,4.6157,4.6733,4.5988,4.6157,4.6819,4.7225,4.7597,4.7902,4.0269,4.0438,4.0608,4.0933,4.1204,4.1508,4.1826,4.1995,4.2097,4.2097,4.1813,4.117,3.9986,3.9715,3.9445,3.8993,3.9106,3.9288,3.9411,3.9863,3.9829,3.9254,3.922,3.8949,3.8328,3.8916,3.922,3.922,3.9808,4.0113,4.0113,4.0113,4.0113,4.0079,3.9322,3.8667,3.8058,0.0,0.0,3.754,0.0,4.002,4.1441,4.3552,4.4925,4.5805,4.6549,4.6413,4.5703,4.4302,0.0,4.1407,4.0054,3.9559,0.0,0.0,0.0,0.0,0.0,0.0,0.0,0.0,0.0,3.5847,0.0,0.0,0.0,3.56,0.0,0.0,0.0,0.0,0.0,0.0,0.0,0.0,0.0,0.0,0.0,0.0,0.0,0.0,0.0,4.2232,4.2557,4.3152,4.3321,4.366,4.433,4.4499,4.4615,4.4615,4.5162,4.5568,4.5703,4.5568,4.5568,4.5689,4.5108,4.4736,4.4615,4.4736,4.5074,4.5466,4.5007,4.5413,4.6293,4.5244,4.5514,4.6597,4.6597,4.6752,4.709,4.7684,4.836,4.8917,4.0933,4.161,4.1657,4.0438,4.1318,4.1758,4.0553,4.0899,4.1339,4.1339,4.2374,4.3085,4.2916,4.232,4.2151,4.2713,0.0,0.0,4.0899,0.0,4.0079,3.9977,3.9977,3.9943,3.9842,3.9943,3.9977,3.9977,4.0079,4.0113,4.0113,4.0113,4.0113,4.0079,3.9322,0.0,0.0,0.0,3.7946,0.0,3.991,4.0472,0.0,4.2949,4.4437,4.5805,4.6549,4.6766,4.6549,0.0,4.4404,4.3017,0.0,4.1474,0.0,0.0,0.0,0.0,0.0,0.0,0.0,0.0,3.7212,0.0,0.0,0.0,3.56,3.56,0.0,0.0,0.0,0.0,0.0,0.0,0.0,0.0,0.0,0.0,0.0,0.0,0.0,0.0,0.0,0.0,4.2333,4.2422,4.3017,4.3457,4.3524,4.4215,4.4615,4.4615,4.4668,4.5041,4.5689,4.5041,4.5041,4.5703,4.5635,4.5229,4.4615,4.5263,4.5263,4.477,4.5331,4.5297,4.4871,4.5365,4.5669,4.5838,4.5838,4.6602,4.7785,4.7887,4.836,4.8984,4.0675,4.0811,0.0,4.0777,4.1238,4.161,4.142,4.2016,4.2172,4.1292,4.2117,4.2591,0.0,0.0,0.0,0.0,0.0,4.0865,0.0,0.0,4.054,4.0113,0.0,0.0,4.0113,4.0113,4.0113,4.0113,4.0113,4.0113,4.0113,4.0113,4.0113,4.0079,3.9774,0.0,3.8983,0.0,3.9242,0.0,0.0,0.0,0.0,4.4823,4.6312,4.7665,4.797,4.78,4.7327,0.0,4.5331,0.0,0.0,0.0,0.0,0.0,0.0,0.0,0.0,0.0,0.0,0.0,0.0,0.0,0.0,0.0,3.6163,0.0,0.0,0.0,0.0,0.0,0.0,0.0,0.0,0.0,0.0,0.0,0.0,0.0,0.0,0.0,0.0,0.0,0.0,0.0,0.0,4.251,4.3355,4.3727,4.4113,4.4581,4.4615,4.4939,4.5689,4.4973,4.5176,4.6312,4.5466,4.5142,4.5229,4.5142,4.5142,4.5229,4.5094,4.5379,4.5887,4.5737,4.6196,4.6974,4.6974,4.7346,4.7954,4.836,4.8732,4.9018,4.0316,0.0,0.0,0.0,4.1238,4.161,4.1948,4.2286,4.2117,4.1035,4.1542,0.0,4.18,4.1339,0.0,0.0,4.2658,4.2117,0.0,0.0,4.1271,0.0,0.0,0.0,0.0,0.0,4.0113,4.0113,4.0113,4.0113,4.0113,4.0113,4.0113,4.0113,0.0,4.0032,3.9918,0.0,0.0,4.1698,4.2205,4.391,4.6191,4.6868,4.7902,4.9018,4.9018,4.868,4.809,4.7361,4.6259,0.0,4.4973,0.0,0.0,0.0,0.0,0.0,4.0946,0.0,0.0,0.0,0.0,0.0,0.0,0.0,0.0,0.0,0.0,0.0,0.0,0.0,0.0,0.0,0.0,0.0,0.0,0.0,0.0,0.0,0.0,0.0,0.0,0.0,0.0,0.0,0.0,0.0,4.2746,4.3186,4.366,4.4262,4.4499,4.4871,4.5399,4.5074,4.5447,4.6481,4.5805,4.5669,4.6007,4.565,4.5568,4.5669,4.5128,4.5379,4.6157,4.5838,4.6433,4.7616,4.7819,4.8022,4.8259,4.8815,4.9018,4.9018,4.0113,4.1251,0.0,0.0,0.0,0.0,0.0,0.0,0.0,0.0,0.0,0.0,0.0,0.0,0.0,0.0,0.0,4.4499,4.4499,0.0,4.2266,0.0,0.0,4.0438,0.0,0.0,0.0,4.0113,4.0113,4.0113,4.0113,4.0113,4.0113,4.0113,4.0113,4.0878,4.2164,4.1474,4.2861,4.552,4.5568,4.7293,4.9763,0.0,4.8326,4.9018,4.9018,0.0,0.0,4.8124,4.7361,0.0,0.0,0.0,0.0,0.0,0.0,0.0,0.0,0.0,0.0,4.0235,0.0,0.0,0.0,0.0,3.7652,0.0,0.0,0.0,0.0,0.0,3.5374,3.4641,0.0,0.0,0.0,0.0,0.0,0.0,0.0,0.0,0.0,0.0,0.0,0.0,0.0,0.0,4.1271,4.2611,4.3423,4.3457,4.4181,4.4601,4.4649,4.5331,4.5703,4.5771,4.7143,4.7413,4.6786,4.7481,4.7041,4.5703,4.5669,4.5297,4.4702,4.5432,4.6143,4.6921,4.7616,4.8326,4.8984,4.8984,4.9018,4.9018,0.0,0.0,0.0,0.0,0.0,0.0,0.0,4.0663,0.0,0.0,0.0,0.0,0.0,0.0,4.5432,0.0,0.0,4.5331,4.5331,4.4398,0.0,0.0,0.0,4.188,0.0,0.0,0.0,0.0,0.0,4.1555,4.1555,4.1555,4.1555,4.1555,0.0,4.2083,0.0,0.0,0.0,0.0,0.0,4.8781,5.0049,0.0,0.0,5.0457,5.0457,5.0135,0.0,4.9424,4.8545,4.7481,4.7244,4.65,4.5669,4.5399,4.4973,0.0,0.0,0.0,4.3146,4.186,0.0,0.0,0.0,0.0,0.0,0.0,0.0,0.0,0.0,0.0,3.5532,3.5273,3.543,3.5509,0.0,0.0,0.0,0.0,0.0,0.0,0.0,0.0,0.0,0.0,0.0,0.0,0.0,4.2151,4.2895,4.3389,4.4195,4.4615,4.4615,4.5331,4.594,4.6413,4.6921,4.7293,4.7515,4.7293,4.6887,4.6413,4.6413,4.6278,4.6123,4.6838,4.7312,4.7582,4.8326,4.8781,4.9018,4.9018,4.9018,4.9018,4.0878,0.0,0.0,0.0,0.0,0.0,0.0,0.0,0.0,0.0,4.4722,0.0,4.7428,0.0,4.7293,0.0,4.7921,4.7312,4.6534,4.6041,0.0,4.5007,4.3789,0.0,0.0,0.0,0.0,0.0,0.0,4.23,4.23,4.23,4.23,4.23,0.0,4.2997,4.4234,0.0,4.5872,0.0,0.0,5.0236,0.0,0.0,5.0608,5.0811,0.0,5.0676,5.0473,5.0473,4.9695,4.8665,4.8665,4.7868,4.6872,4.6872,4.6346,4.5717,4.5447,4.5176,0.0,4.3064,4.2692,0.0,4.0223,0.0,0.0,0.0,0.0,0.0,0.0,0.0,3.6422,3.6422,3.5949,3.56,0.0,3.56,0.0,0.0,0.0,0.0,0.0,0.0,0.0,3.9254,3.9356,0.0,0.0,0.0,4.2252,4.2983,4.3775,4.433,4.4615,4.5602,4.6312,4.68,4.7327,4.7834,4.8259,4.78,4.7428,4.7192,4.7192,4.7022,4.6834,4.7327,4.765,4.7954,4.8428,4.8781,4.9018,4.9018,4.9018,4.9018,0.0,0.0,0.0,0.0,4.188,0.0,0.0,0.0,4.4601,0.0,4.6022,4.7462,4.9018,4.9154,4.9713,5.1066,5.1201,0.0,4.8191,4.8022,0.0,0.0,4.521,4.5108,4.5838,0.0,0.0,0.0,0.0,0.0,4.2401,4.2401,4.2401,4.2401,4.2401,0.0,4.5703,4.579,4.7496,5.0286,5.0964,5.1674,5.2232,5.1472,5.0777,5.015,5.0218,5.0676,5.1235,5.1235,5.0777,5.015,5.015,4.9661,4.9052,4.9052,4.8529,4.7785,4.709,4.638,4.5452,4.393,0.0,0.0,0.0,0.0,4.1982,0.0,0.0,0.0,0.0,0.0,0.0,3.7922,3.6625,3.56,3.56,0.0,0.0,0.0,0.0,0.0,0.0,0.0,3.7889,3.7944,3.9254,3.974,0.0,0.0,4.1542,4.23,4.3017,4.3809,4.4649,4.609,4.6834,4.6868,4.8308,4.9018,4.9018,4.9018,4.8597,4.7921,4.7954,4.753,4.68,4.6819,4.7259,4.7921,4.7853,4.8293,4.8951,4.8984,4.9018,4.9018,4.23,4.2726,4.3267,0.0,4.2943,4.23,0.0,0.0,0.0,0.0,4.7868,4.9221,5.1217,5.1454,5.1386,5.1201,5.1201,0.0,0.0,0.0,0.0,4.9781,4.8022,4.7394,4.8139,4.6162,0.0,4.5114,0.0,0.0,4.3992,4.3992,4.3992,4.3992,0.0,0.0,4.5771,4.6872,4.9052,5.1758,5.1961,5.2131,0.0,0.0,5.1066,5.0998,5.1555,5.186,5.2029,5.2029,5.1505,5.0897,5.0897,5.0405,4.983,4.983,4.9289,4.868,4.8477,4.7902,4.7109,4.6177,4.5534,4.4708,0.0,0.0,0.0,0.0,0.0,0.0,0.0,0.0,0.0,3.7978,3.6625,3.56,0.0,0.0,0.0,0.0,0.0,0.0,0.0,0.0,3.7528,3.8633,3.9085,3.9186,0.0,0.0,0.0,4.23,4.3017,4.4032,4.5399,4.6346,4.709,4.7616,4.8578,4.9018,4.9018,4.9018,4.8597,4.7921,4.8462,4.8003,4.6819,4.738,4.7718,4.7853,4.7293,4.7515,4.8259,4.8815,4.9018,4.9018,4.3315,0.0,0.0,4.4499,0.0,0.0,4.3842,0.0,0.0,4.8124,4.9593,0.0,5.2164,5.2604,5.2672,5.2249,5.2216,0.0,0.0,0.0,0.0,5.0744,4.9814,4.9375,4.9492,4.7616,0.0,4.6177,0.0,0.0,4.4615,4.4615,4.4615,4.4615,0.0,4.5007,0.0,4.7616,4.9526,5.1352,5.1691,0.0,0.0,5.1014,5.0897,5.1201,5.1285,5.1758,5.2367,5.2706,5.2334,5.1674,5.1674,5.1183,5.0574,5.0574,5.0067,4.9492,4.9492,4.8951,4.8191,4.7462,4.6974,4.6264,4.4742,4.4993,4.5142,0.0,0.0,0.0,0.0,0.0,0.0,0.0,0.0,0.0,0.0,0.0,0.0,0.0,0.0,0.0,0.0,0.0,3.7291,3.843,3.8531,3.8667,0.0,0.0,0.0,4.2266,4.3017,4.3998,4.5196,4.6583,4.7327,4.7428,4.8511,4.9018,4.9018,4.9018,4.8766,4.8394,4.8815,4.8545,4.7733,4.753,4.7616,4.7853,4.7447,4.7733,4.8428,4.8849,4.9018,4.9018,0.0,0.0,0.0,0.0,0.0,0.0,0.0,4.7312,0.0,4.9172,0.0,5.2334,5.2435,5.3078,5.3518,5.3518,0.0,5.2926,5.1573,5.208,5.1894,5.0608,5.1048,5.1014,5.0236,4.8815,0.0,0.0,0.0,0.0,4.4615,4.4615,4.4615,4.4615,0.0,0.0,0.0,4.8139,4.9492,0.0,5.093,5.1201,5.1133,5.0371,5.0507,5.0964,5.0338,5.098,5.2266,5.2976,5.2739,5.2164,5.2164,5.1708,5.1201,5.1201,5.0744,5.0202,5.015,4.9627,4.8984,4.8225,4.8056,4.7684,4.6297,4.6481,4.6549,4.5176,4.5297,4.55,0.0,0.0,0.0,0.0,0.0,0.0,0.0,0.0,0.0,0.0,0.0,0.0,0.0,0.0,3.7054,3.7719,3.7843,0.0,0.0,0.0,0.0,4.2232,4.2916,0.0,4.4886,0.0,4.7515,4.709,4.8376,4.9018,4.9018,4.9018,4.8951,4.8849,4.8951,4.8951,4.8748,4.7462,4.7259,4.7785,4.7954,4.836,4.8883,4.8951,4.9018,4.9018,0.0,0.0,0.0,0.0,0.0,4.7853,4.8342,4.9154,4.9965,5.0728,5.1674,5.257,5.3213,5.3416,5.3518,5.3518,5.3518,0.0,0.0,0.0,0.0,5.2909,5.2401,5.1758,5.1032,4.956,4.8139,0.0,0.0,0.0,4.4615,4.4615,4.4615,0.0,0.0,0.0,4.7582,4.8578,0.0,5.0998,5.1167,5.1201,5.1133,5.0371,5.0184,5.0286,5.015,5.0676,5.1404,5.1573,5.1505,5.1404,5.1404,5.1302,5.1201,5.1201,5.11,5.0863,5.027,5.0015,4.9729,4.8984,4.8815,4.8563,4.7718,4.7616,4.7447,4.6597,4.6041,4.5669,4.5534,0.0,0.0,0.0,0.0,0.0,0.0,0.0,0.0,0.0,0.0,0.0,0.0,0.0,0.0,0.0,0.0,0.0,0.0,0.0,0.0,0.0,4.2435,0.0,0.0,0.0,4.753,4.8612,4.8883,4.9018,4.9018,4.9018,4.8665,4.8124,4.8732,4.8631,4.8056,4.7819,4.7413,4.709,4.8342,4.8496,4.8157,4.8781,4.9018,4.9018,0.0,0.0,0.0,0.0,0.0,0.0,0.0,5.1116,0.0,5.1269,5.1844,5.2469,5.2841,5.3247,5.3518,5.3518,5.3518,5.3315,5.2909,5.3281,5.3315,5.2909,5.2909,0.0,5.1235,5.0135,4.8849,4.7361,0.0,0.0,4.5751,4.5751,0.0,4.5751,0.0,4.6549,0.0,0.0,0.0,5.0051,5.0051,5.0051,5.0017,4.9661,4.9526,4.9526,4.9526,4.9763,5.0186,5.093,5.1201,5.1201,5.1201,5.1201,5.1201,5.1201,5.093,5.0541,5.0218,4.983,4.9424,4.9086,4.9018,4.8917,4.8563,4.8462,4.8259,4.753,4.7075,4.65,4.5331,4.3876,0.0,0.0,0.0,0.0,0.0,0.0,0.0,0.0,0.0,0.0,0.0,0.0,0.0,0.0,0.0,0.0,0.0,0.0,0.0,0.0,0.0,0.0,0.0,0.0,0.0,4.7293,4.7665,4.7868,4.7868,4.7868,4.7868,4.7921,4.8259,4.8462,4.8428,4.8056,4.7684,4.7428,4.8157,4.8462,4.8496,4.8883,4.9018,4.9018,0.0,4.7158,0.0,0.0,4.9593,0.0,5.1336,5.2604,5.3078,5.1844,5.2198,5.257,5.257,5.3112,5.345,5.3281,5.3247,5.2976,5.2334,5.2739,5.2875,5.257,5.301,5.2588,5.1235,5.0642,4.9526,0.0,0.0,0.0,0.0,0.0,0.0,0.0,0.0,0.0,0.0,0.0,4.8462,4.9018,4.9018,4.9018,4.9018,4.9018,4.9018,4.9018,4.9018,4.9018,4.9187,5.0322,5.0728,5.0728,5.0728,5.0829,5.0964,5.0964,5.0676,5.0304,5.015,4.9661,4.9154,4.8834,4.8868,4.8951,4.8815,4.8883,4.8849,4.8259,4.8022,4.7278,4.521,4.4316,0.0,0.0,0.0,0.0,0.0,0.0,0.0,0.0,0.0,0.0,0.0,0.0,0.0,0.0,0.0,0.0,0.0,0.0,0.0,0.0,0.0,4.3862,4.4804,0.0,4.6346,0.0,4.6515,4.68,4.68,4.68,4.7192,4.7921,4.7921,4.8326,4.8935,4.836,4.8124,4.8124,4.8124,4.8496,4.9018,4.9018,4.9018,4.9018,0.0,0.0,0.0,0.0,0.0,0.0,5.2198,5.2942,5.345,5.3315,5.3348,5.3382,5.3382,5.345,5.3213,5.2469,5.2401,5.2367,5.23,5.1742,5.2013,5.3348,5.2773,5.2013,5.1235,5.1133,5.0051,0.0,0.0,0.0,0.0,0.0,0.0,0.0,0.0,0.0,0.0,4.8597,4.8951,4.9018,4.9018,4.9018,4.9018,4.9018,4.9018,4.9018,4.9018,4.9018,4.9018,4.9154,4.9221,4.9221,4.9221,4.9661,5.0202,5.0202,5.0642,5.093,5.027,5.0049,4.9661,4.8326,4.8496,4.8815,4.8157,4.8529,4.8984,4.8917,4.836,4.7447,4.5872,4.5534,4.5229,0.0,0.0,0.0,0.0,0.0,0.0,0.0,0.0,0.0,0.0,0.0,0.0,0.0,0.0,0.0,0.0,0.0,0.0,4.2266,0.0,4.4099,4.5602,4.5722,4.6109,4.6699,4.6766,4.68,4.68,4.68,4.7192,4.7921,4.7921,4.8326,4.8984,4.8951,4.8917,4.8917,4.8917,4.8951,4.9018,4.9018,4.9018,4.9018,0.0,0.0,0.0,0.0,0.0,0.0,0.0,5.3281,5.3518,5.3518,5.3518,5.3518,5.3518,5.3518,5.3382,5.3044,5.301,5.2638,5.1708,5.2216,5.2266,5.1488,5.2469,5.2232,5.0574,5.0964,5.0322,0.0,0.0,0.0,0.0,0.0,0.0,0.0,0.0,4.8563,4.8563,4.8883,4.9018,4.9018,4.9018,4.9018,4.9018,4.9018,4.9018,4.9018,4.9018,4.9018,4.9018,4.9018,4.9018,4.9018,4.9018,4.9187,4.9424,4.9424,4.9661,4.983,4.9526,4.9424,4.9289,4.8714,4.8781,4.8917,4.8631,4.8781,4.9018,4.9018,4.8394,4.7718,4.7143,4.665,4.6109,0.0,0.0,0.0,0.0,0.0,0.0,0.0,0.0,0.0,0.0,0.0,0.0,0.0,0.0,0.0,0.0,0.0,0.0,4.2895,0.0,4.393,4.5041,4.5041,4.5176,4.5481,4.5481,4.5481,4.5481,4.5481,4.6123,4.7293,4.8173,4.8748,4.9018,4.9018,4.9018,4.9018,4.9018,4.9018,4.9018,4.9018,4.9018,4.9018,5.1472,0.0,5.1742,0.0,5.2672,5.2841,5.3416,5.3518,5.3518,5.3518,5.3518,5.3518,5.3518,5.3518,5.3416,5.3179,5.3145,5.2604,5.1302,5.2029,5.1894,5.0473,5.1758,0.0,5.015,5.0608,5.027,4.9018,4.9018,0.0,0.0,0.0,0.0,0.0,4.9661,4.9661,4.9627,4.9424,4.9323,4.9289,4.9086,4.9018,4.9018,4.9018,4.9018,4.9018,4.9018,4.9018,4.9018,4.9018,4.9018,4.9018,4.9018,4.9018,4.9018,4.9018,4.9018,4.9018,4.9018,4.9154,4.9255,4.9052,4.9154,4.9255,4.9052,4.9018,4.9018,4.9018,4.8612,4.8157,4.7954,4.7481,4.6887,4.6143,0.0,0.0,0.0,0.0,0.0,0.0,0.0,4.2049,4.2557,0.0,0.0,0.0,0.0,0.0,0.0,0.0,0.0,0.0,0.0,0.0,0.0,4.4615,4.4702,4.4939,4.4939,4.4939,4.4939,4.5379,4.6481,4.8173,4.9424,5.0101,5.0338,5.0338,5.0338,5.0304,5.0067,4.9965,4.9932,4.9713,4.9661,4.9627,5.2131,5.23,5.2536,5.3348,5.3484,5.3484,5.3518,5.3518,5.3518,5.3518,5.3518,5.3518,5.3518,5.3518,5.3179,5.2367,5.23,5.1995,5.1235,5.0541,5.0439,0.0,0.0,5.015,5.0117,5.0117,4.9729,4.9018,0.0,0.0,4.9018,0.0,5.0473,5.1167,5.1167,5.1167,5.1133,5.0405,5.0083,5.0015,4.9289,4.9018,4.9018,4.9018,4.9018,4.9018,4.9018,4.9018,4.9018,4.9018,4.9018,4.9018,4.9018,4.9018,4.9018,4.9018,4.9018,4.9018,4.9018,4.9526,4.9898,4.9187,4.956,4.9914,4.9187,4.9018,4.9018,4.9018,4.8984,4.8766,4.8022,4.7887,4.765,4.6921,0.0,0.0,0.0,0.0,0.0,0.0,4.3876,4.3389,4.3389,0.0,0.0,0.0,0.0,0.0,0.0,0.0,0.0,4.3389,4.4181,0.0,4.4615,4.4615,4.4973,4.5703,4.5703,4.5703,4.5737,4.721,4.907,5.1201,5.1961,5.2706,5.345,5.345,5.345,5.3382,5.257,5.2266,5.2164,5.1438,5.1167,5.1066,5.3078,5.3112,5.3213,5.345,5.3518,5.3518,5.3518,5.3518,5.3518,5.3518,5.3518,5.3518,5.3518,5.3518,5.3416,0.0,5.3112,5.257,0.0,5.1945,5.1589,4.9781,5.0913,5.0879,4.939,4.983,4.9981,4.9729,0.0,0.0,0.0,5.0728,5.0964,5.1201,5.1201,5.1201,5.1167,5.093,5.0829,5.0829,5.0592,5.0491,5.0423,4.9932,4.9729,4.9661,4.9187,4.9018,4.9018,4.9018,4.9018,4.9086,4.9593,4.9729,4.9661,4.9154,4.9713,5.0389,4.9898,5.0304,5.0795,5.0558,5.066,5.0676,4.9932,4.9357,4.9018,4.9018,4.9018,4.8951,4.8698,4.8631,4.8394,4.765,4.7346,0.0,0.0,0.0,0.0,0.0,4.4364,4.4228,0.0,4.3789,0.0,0.0,0.0,0.0,0.0,0.0,0.0,0.0,4.4465,0.0,4.4615,4.4615,4.4716,4.4973,4.5466,4.5974,4.6481,4.7447,4.8563,4.9747,5.0473,5.1217,5.1911,5.1911,5.1911,5.1911,5.1641,5.1251,5.0777,5.0541,5.0135,4.9729,5.3518,5.3518,5.3518,5.3518,5.3518,5.3585,5.3856,5.3923,5.4025,5.4279,5.4312,5.4312,5.4312,5.4312,0.0,5.3551,5.3518,5.2976,5.1708,5.2266,5.1691,4.9492,5.0744,5.0811,4.9424,0.0,0.0,5.0507,5.0777,5.115,5.1607,5.1911,5.2046,5.2046,5.2046,5.2046,5.2046,5.1742,5.1607,5.1573,5.1302,5.1201,5.1167,5.0676,5.0507,5.0439,4.9984,4.9814,4.9814,4.9814,4.9814,4.9932,5.0371,5.071,5.0777,5.0017,5.0491,5.11,5.0642,5.1048,5.1607,5.1607,5.1607,5.1352,5.0338,4.9729,4.9323,4.9052,4.9018,4.9018,4.9018,4.9018,4.8849,4.8394,4.809,4.7582,4.6669,0.0,0.0,0.0,0.0,0.0,0.0,4.4615,0.0,0.0,0.0,0.0,0.0,0.0,0.0,4.4581,4.4615,0.0,4.4615,4.4871,4.5142,4.5447,4.6177,4.7056,4.8052,4.824,4.9172,5.071,5.1183,5.1961,5.2892,5.2892,5.2892,5.2858,5.2604,5.2198,5.1741,5.115,5.0642,5.0236,5.3518,5.3551,0.0,0.0,5.3619,0.0,5.4566,5.4668,5.4905,5.5597,5.5699,5.5699,5.5699,5.5699,5.5158,5.3788,0.0,0.0,0.0,5.1708,5.0998,5.0218,5.0252,5.0252,5.0184,5.0829,5.1235,5.1269,5.2029,5.2367,5.2401,5.3145,5.3518,5.3518,5.3518,5.3518,5.345,5.2706,5.2367,5.2334,5.1641,5.137,5.1336,5.1302,5.1269,5.1269,5.1235,5.1201,5.1201,5.1201,5.1201,5.1201,5.1269,5.1742,5.2164,5.1404,5.1269,5.1336,5.1302,5.181,5.2367,5.2367,5.2334,5.1928,5.0574,5.0184,4.9914,4.9221,4.9052,4.9018,4.9018,4.9018,4.9018,4.9018,4.8428,4.7954,4.7921,0.0,0.0,0.0,0.0,0.0,0.0,4.4615,4.4615,0.0,0.0,0.0,0.0,0.0,4.4615,4.4615,4.4615,4.4601,4.4668,4.5365,4.6109,4.6887,4.7582,4.8665,5.0083,4.939,5.0642,5.3348,5.345,5.4279,5.5564,5.5665,5.5699,5.5631,5.4938,5.4651,5.4397,5.2942,5.2367,5.2097,0.0,0.0,5.4329,5.4329,5.4803,5.5225,5.5395,5.5428,5.5496,5.5665,5.5699,5.5699,5.5699,5.5699,5.5564,5.5192,5.4668,5.3754,5.2401,5.2706,5.2351,5.0998,5.1488,5.1522,5.093,5.11,5.1472,5.2063,5.2841,5.3213,5.3213,5.3416,5.3518,5.3518,5.3518,5.3518,5.3484,5.3315,5.3213,5.3213,5.3044,5.2976,5.2909,5.2266,5.2063,5.1961,5.1404,5.1201,5.1201,5.1201,5.1201,5.1302,5.186,5.2164,5.2164,5.1404,5.2013,5.2841,5.2232,5.2638,5.3213,5.3213,5.2739,5.2198,5.186,5.0913,5.0049,4.988,4.939,4.9018,4.9018,4.9018,4.9018,4.9018,4.8849,4.8529,4.7988,4.7616,0.0,0.0,4.5534,4.521,4.4649,4.4615,4.4615,0.0,0.0,0.0,0.0,4.4615,4.4615,4.4615,4.4615,4.4871,4.5432,4.5602,4.6331,4.765,4.7819,4.8665,5.0083,4.9914,5.0541,5.181,5.301,5.3721,5.4126,5.5225,5.5699,5.5665,5.5496,5.5108,5.4482,5.3551,5.2841,5.2266,5.3991,5.46,5.5108,5.5108,5.5428,5.58,5.6139,5.6206,5.6308,5.6664,5.6697,5.6697,5.6697,5.6697,5.6562,5.624,5.5547,5.46,5.3416,5.345,5.2976,5.1758,5.2097,5.2131,5.1708,5.2046,5.2469,5.2841,5.3281,5.3518,5.3518,5.3518,5.3518,5.3518,5.3518,5.3518,5.3518,5.3518,5.3518,5.3518,5.3518,5.3518,5.345,5.301,5.2841,5.2807,5.2401,5.2249,5.2249,5.2249,5.2249,5.2317,5.2739,5.2841,5.2773,5.2351,5.2824,5.3416,5.2976,5.3179,5.3518,5.3518,5.3179,5.2739,5.2367,5.1691,5.0913,5.0252,4.9763,4.939,4.9052,4.9018,4.9018,4.9018,4.9018,4.8849,4.8462,4.8124,0.0,4.6805,4.6413,4.5906,4.5176,4.5108,4.4973,4.4635,0.0,0.0,4.4615,4.4615,4.4615,4.4615,4.4939,4.5297,4.5703,4.6365,4.7278,4.8394,4.8394,4.8815,4.9593,4.9947,5.0507,5.1235,5.208,5.2841,5.3551,5.4346,5.4905,5.5243,5.5564,5.548,5.4972,5.389,5.3213,5.2739,5.4769,5.5378,5.5868,5.5868,5.5969,5.624,5.6867,5.6968,5.7171,5.7832,5.79,5.79,5.79,5.79,5.7663,5.7036,5.6375,5.5683,5.4803,5.4194,5.3484,5.2672,5.2638,5.2604,5.2469,5.3145,5.3518,5.3518,5.3518,5.3518,5.3518,5.3518,5.3518,5.3518,5.3518,5.3518,5.3518,5.3518,5.3518,5.3518,5.3518,5.3518,5.3518,5.3518,5.3518,5.3518,5.3518,5.3518,5.3518,5.3518,5.3518,5.3518,5.3518,5.3518,5.3518,5.3518,5.3518,5.3518,5.3518,5.3518,5.3518,5.3518,5.3518,5.3315,5.2638,5.2401,5.1894,5.0541,5.0184,4.9864,4.9154,4.9018,4.9018,4.9018,4.9018,4.9018,4.9018,0.0,4.8022,4.7921,4.7361,4.6684,4.594,4.5872,4.5602,4.4973,4.4939,4.4939,4.4939,4.4939,4.4939,4.4939,4.5432,4.5805,4.6041,4.738,4.836,4.9018,4.9018,4.9052,4.9187,4.9796,5.0507,5.1201,5.1438,5.2216,5.3348,5.3687,5.4126,5.4668,5.5547,5.5868,5.5699,5.4312,5.3754,5.345,5.553,5.6122,5.663,5.663,5.7137,5.7595,5.7712,5.7712,5.7764,5.79,5.79,5.79,5.79,5.79,5.7866,5.773,5.7611,5.6968,5.5631,5.5428,5.5023,5.4262,5.4228,5.3957,5.3348,5.345,5.3518,5.3518,5.3518,5.3518,5.3518,5.3518,5.3518,5.3518,5.3518,5.3518,5.3518,5.3518,5.3518,5.3518,5.3518,5.3518,5.3518,5.3518,5.3518,5.3518,5.3518,5.3518,5.3518,5.3518,5.3518,5.3518,5.3518,5.3518,5.3518,5.3518,5.3518,5.3518,5.3518,5.3518,5.3518,5.3518,5.3518,5.3484,5.3348,5.2807,5.2063,5.1201,5.0541,4.9864,4.9154,4.9018,4.9018,4.9018,4.9018,4.9018,4.9018,0.0,4.8597,4.7988,4.7819,4.7447,4.6684,4.6616,4.6583,4.6462,4.6462,4.6462,4.6462,4.6462,4.6462,4.6462,4.5974,4.6297,4.7549,4.8394,4.8883,4.9018,4.9018,4.9323,4.9932,5.0049,5.0507,5.1269,5.2588,5.2909,5.2638,5.4549,5.5074,5.4753,5.6089,5.663,5.6528,5.5665,5.4972,5.4194,5.6274,5.69,5.7374,5.7374,5.7679,5.79,5.79,5.79,5.79,5.79,5.79,5.79,5.79,5.79,5.79,5.79,5.79,5.7629,5.6934,5.6528,5.5936,5.5243,5.5209,5.4837,5.4093,5.3687,5.3518,5.3518,5.3518,5.3518,5.3518,5.3518,5.3518,5.3518,5.3518,5.3518,5.3518,5.3518,5.3518,5.3518,5.3518,5.3518,5.3518,5.3518,5.3518,5.3518,5.3518,5.3518,5.3518,5.3518,5.3518,5.3518,5.3518,5.3518,5.3518,5.3518,5.3518,5.3518,5.3518,5.3518,5.3518,5.3518,5.3518,5.3518,5.3518,5.3213,5.2739,5.1961,5.1217,5.0473,4.9729,4.9255,4.9018,4.9018,4.9018,0.0,0.0,4.9018,4.8883,4.8529,4.8496,4.8191,4.7447,4.738,4.7225,4.6834,4.68,4.68,4.68,4.68,4.6989,4.7394,4.7041,4.7413,4.8462,4.8834,4.9018,4.9018,4.9018,4.9187,4.9526,4.9914,5.027,5.0676,5.1776,5.23,5.2435,5.3906,5.4566,5.4702,5.5784,5.5953,5.5513,5.4803,5.4025,5.3213,5.707,5.7509,5.79,5.79,5.79,5.79,5.79,5.79,5.79,5.79,5.79,5.79,5.79,5.79,5.79,5.79,5.79,5.79,5.79,5.7374,5.6731,5.6003,5.58,5.5327,5.4617,5.4059,5.3687,5.3518,5.3518,5.3518,5.3518,5.3518,5.3518,5.3518,5.3518,5.3518,5.3518,5.3518,5.3518,5.3518,5.3518,5.3518,5.3518,5.3518,5.3518,5.3518,5.3518,5.3518,5.3518,5.3518,5.3518,5.3518,5.3518,5.3518,5.3518,5.3518,5.3518,5.3518,5.3518,5.3518,5.3518,5.3518,5.3518,5.3518,5.3518,5.3518,5.3281,5.2469,5.186,5.1167,5.0286,4.9627,4.9187,4.9052,0.0,0.0,0.0,4.9018,4.9018,4.9018,4.9018,4.8781,4.8225,4.8157,4.7921,4.7361,4.7293,4.7293,4.7293,4.7293,4.7564,4.8157,4.8157,4.8428,4.8984,4.9018,4.9018,4.9018,4.9018,4.9018,4.9018,4.9593,4.9947,5.015,5.071,5.1352,5.2131,5.2909,5.3551,5.416,5.5074,5.5006,5.4262,5.3721,5.2875,5.1961,5.7832,5.7866,5.79,5.79,5.79,5.79,5.79,5.79,5.79,5.79,5.79,5.79,5.79,5.79,5.79,5.79,5.79,5.79,5.79,5.7866,5.7476,5.6765,5.6071,5.5327,5.4617,5.455,5.416,5.3518,5.3518,5.3518,5.3518,5.3518,5.3518,5.3518,5.3518,5.3518,5.3518,5.3518,5.3518,5.3518,5.3518,5.3518,5.3518,5.3518,5.3518,5.3518,5.3518,5.3518,5.3518,5.3518,5.3518,5.3518,5.3518,5.3518,5.3518,5.3518,5.3518,5.3518,5.3518,5.3518,5.3518,5.3518,5.3518,5.3518,5.3518,5.3518,5.3281,5.2469,5.2266,5.1792,5.0338,5.0083,4.9812,4.912,0.0,0.0,4.9018,4.9018,4.9018,4.9018,4.9018,4.8984,4.8917,4.8917,4.8917,4.8849,4.8849,4.8849,4.8849,4.8849,4.8849,4.8917,4.8917,4.8951,4.9018,4.9018,4.9018,4.9018,4.9018,4.9018,4.9018,4.9052,4.9458,5.0117,5.015,5.0608,5.1336,5.2097,5.2435,5.2604,5.4093,5.4228,5.3585,5.3518,5.2554,5.1167,5.79,5.79,5.79,5.79,5.79,5.79,5.79,5.79,5.79,5.79,5.79,5.79,5.79,5.79,5.79,5.79,5.79,5.79,5.79,5.79,5.7764,5.7476,5.6799,5.6258,5.5953,5.5074,5.4465,5.416,5.3721,5.3518,5.3518,5.3518,5.3518,5.3518,5.3518,5.3518,5.3551,5.3991,5.3923,5.3551,5.3991,5.3923,5.3518,5.3518,5.3518,5.3518,5.3518,5.3518,5.3518,5.3518,5.3518,5.3518,5.3518,5.3518,5.3518,5.3518,5.3518,5.3518,5.3518,5.3518,5.3518,5.3518,5.3518,5.3518,5.3518,5.3518,5.3416,5.3112,5.2638,5.2131,5.1555,5.0726,5.0015,4.9729,0.0,4.9018,4.9018,4.9018,4.9018,4.9018,4.9018,4.9018,4.9018,4.9018,4.9018,4.9018,4.9018,4.9018,4.9018,4.9018,4.9018,4.9018,4.9018,4.9018,4.9018,4.9018,4.9018,4.9018,4.9018,4.9018,4.9018,4.9018,4.9154,4.9424,4.9914,5.0236,5.0608,5.1792,5.23,5.2401,5.3484,5.345,5.2706,5.2249,5.142,5.0405,5.79,5.79,5.79,5.79,5.79,5.79,5.79,5.79,5.79,5.79,5.79,5.79,5.79,5.79,5.79,5.79,5.79,5.79,5.79,5.79,5.79,5.79,5.7408,5.7036,5.6799,5.5581,5.4837,5.4617,5.3856,5.3518,5.3518,5.3518,5.3518,5.3518,5.3518,5.3518,5.3551,5.4296,5.4296,5.389,5.4397,5.4313,5.3822,5.3585,5.3518,5.3518,5.3518,5.3518,5.3518,5.3518,5.3518,5.3518,5.3518,5.3518,5.3518,5.3518,5.3518,5.3518,5.3518,5.3518,5.3518,5.3518,5.3518,5.3518,5.3518,5.3518,5.3518,5.3518,5.3078,5.2604,5.2367,5.1454,5.0642,5.0184,4.9661,4.9255,4.9052,4.9018,4.9018,4.9018,4.9018,4.9018,4.9018,4.9018,4.9018,4.9018,4.9018,4.9018,4.9018,4.9018,4.9018,4.9018,4.9018,4.9018,4.9018,4.9018,4.9018,4.9018,4.9018,4.9018,4.9018,4.9018,4.9018,4.9052,4.9526,4.988,5.0184,5.1183,5.1894,5.2367,5.2909,5.2807,5.2198,5.1472,5.0744,5.0013,5.79,5.79,5.79,5.79,5.79,5.79,5.79,5.79,5.79,5.79,5.79,5.79,5.79,5.79,5.79,5.79,5.79,5.79,5.79,5.79,5.79,5.79,5.79,5.7561,5.6833,5.6071,5.5327,5.46,5.3856,5.3518,5.3518,5.3518,5.3518,5.3518,5.3518,5.3518,5.3551,5.4296,5.4617,5.4617,5.46,5.46,5.455,5.3788,5.3518,5.3518,5.3518,5.3518,5.3518,5.3518,5.3518,5.3518,5.3518,5.3518,5.3518,5.3518,5.3518,5.3518,5.3518,5.3518,5.3518,5.3518,5.3518,5.3518,5.3518,5.3518,5.3518,5.3518,5.3518,5.3281,5.2469,5.23,5.1826,5.0353,5.0117,4.983,4.912,4.9018,4.9018,4.9018,4.9018,4.9018,4.9018,4.9018,4.9018,4.9018,4.9018,4.9018,4.9018,4.9018,4.9018,4.9018,4.9018,4.9018,4.9018,4.9018,4.9018,4.9018,4.9018,4.9018,4.9018,4.9018,4.9018,4.9018,4.9018,4.9424,5.0083,5.0117,5.0947,5.2266,5.23,5.23,5.2198,5.1472,5.0744,5.0091,5.79,5.79,5.79,5.79,5.79,5.79,5.79,5.79,5.79,5.79,5.79,5.79,5.79,5.79,5.79,5.79,5.79,5.79,5.79,5.79,5.79,5.79,5.79,5.7798,5.7595,5.6867,5.6122,5.5361,5.4634,5.4025,5.3518,5.3518,5.3518,5.3518,5.3518,5.3518,5.3585,5.4837,5.5074,5.4685,5.5716,5.5818,5.531,5.4532,5.4262,5.4194,5.3687,5.3518,5.3518,5.3518,5.3518,5.3518,5.3518,5.3518,5.3518,5.3518,5.3518,5.3518,5.3518,5.3518,5.3518,5.3518,5.3518,5.3518,5.3518,5.3518,5.3518,5.3518,5.3518,5.345,5.3179,5.2672,5.2164,5.1725,5.0777,5.0015,4.9796,4.9323,4.9018,4.9018,4.9018,4.9018,4.9018,4.9018,4.9018,4.9018,4.9018,4.9018,4.9018,4.9018,4.9018,4.9018,4.9018,4.9018,4.9018,4.9018,4.9018,4.9018,4.9018,4.9018,4.9018,4.9018,4.9018,4.9018,4.9018,4.912,4.9357,4.988,5.0353,5.0845,5.1894,5.23,5.2266,5.2063,5.1522,5.0809,5.79,5.79,5.79,5.79,5.79,5.79,5.79,5.79,5.79,5.79,5.79,5.79,5.79,5.79,5.79,5.79,5.79,5.79,5.79,5.79,5.79,5.79,5.79,5.79,5.79,5.7171,5.6461,5.5699,5.4972,5.4228,5.3518,5.3518,5.3518,5.3518,5.3518,5.3518,5.3619,5.5056,5.5428,5.5141,5.6325,5.6528,5.6037,5.531,5.4837,5.4532,5.4093,5.3754,5.3518,5.3518,5.3518,5.3518,5.3518,5.3518,5.3518,5.3518,5.3518,5.3518,5.3518,5.3518,5.3518,5.3518,5.3518,5.3518,5.3518,5.3518,5.3585,5.3856,5.3687,5.3585,5.389,5.3315,5.2672,5.2367,5.1319,5.0439,5.015,4.9458,4.9018,4.9018,4.9018,4.9018,4.9018,4.9018,4.9018,4.9018,4.9018,4.9018,4.9018,4.9018,4.9018,4.9018,4.9018,4.9018,4.9018,4.9018,4.9018,4.9018,4.9018,4.9018,4.9018,4.9018,4.9018,4.9018,4.9018,4.9018,4.9052,4.9492,4.983,5.0184,5.1082,5.1792,5.2266,5.1961,5.1776,5.1603,5.79,5.79,5.79,5.79,5.79,5.79,5.79,5.79,5.79,5.79,5.79,5.79,5.79,5.79,5.79,5.79,5.79,5.79,5.79,5.79,5.79,5.79,5.79,5.79,5.79,5.7239,5.6494,5.5699,5.504,5.4296,5.3518,5.3518,5.3518,5.3518,5.3518,5.3551,5.3687,5.509,5.5733,5.5868,5.6596,5.69,5.6833,5.6071,5.5378,5.4769,5.4651,5.416,5.3585,5.3518,5.3518,5.3518,5.3518,5.3518,5.3518,5.3518,5.3518,5.3518,5.3518,5.3518,5.3518,5.3518,5.3518,5.3518,5.3518,5.3551,5.3788,5.4363,5.4025,5.3788,5.4397,5.3957,5.3281,5.2536,5.1776,5.11,5.0489,4.9695,4.9221,4.9221,4.9154,4.9086,4.9018,4.9018,4.9018,4.9018,4.9018,4.9018,4.9018,4.9018,4.9052,4.9086,4.9052,4.9052,4.9221,4.9086,4.9018,4.9018,4.9018,4.9018,4.9018,4.9018,4.9018,4.9018,4.9018,4.9018,4.9018,4.9018,4.939,5.0015,5.0067,5.0947,5.2131,5.1505,5.1708,5.2409,5.79,5.79,5.79,5.79,5.79,5.79,5.79,5.79,5.79,5.79,5.79,5.79,5.79,5.79,5.79,5.79,5.79,5.79,5.79,5.79,5.79,5.79,5.79,5.79,5.79,5.773,5.7036,5.5699,5.553,5.4803,5.3518,5.3518,5.3518,5.3518,5.3518,5.3822,5.4431,5.5327,5.6037,5.663,5.734,5.7645,5.7577,5.6833,5.6461,5.6156,5.5006,5.4516,5.4262,5.3687,5.3518,5.3518,5.3518,5.3518,5.3518,5.3518,5.3518,5.3518,5.3518,5.3518,5.3518,5.3518,5.3518,5.3518,5.3518,5.3957,5.4228,5.3822,5.4059,5.4228,5.3822,5.3619,5.345,5.3281,5.257,5.2232,5.2706,5.1589,5.0728,5.0728,5.0202,4.9627,4.9052,4.9018,4.9018,4.9018,4.9018,4.9018,4.9018,4.9018,4.9255,4.983,4.9289,4.9544,5.0694,4.9593,4.9018,4.9018,4.9018,4.9018,4.9018,4.9018,4.9018,4.9018,4.9018,4.9018,4.9018,4.9018,4.9086,4.9289,4.9864,5.0642,5.1472,5.1911,5.2164,5.2409,5.79,5.79,5.8035,5.8355,5.8118,5.8017,5.8355,5.8137,5.79,5.79,5.8186,5.8423,5.8423,5.8423,5.8287,5.7934,5.79,5.79,5.79,5.79,5.79,5.79,5.79,5.79,5.79,5.8254,5.7543,5.5699,5.5699,5.4955,5.3518,5.3518,5.3518,5.3518,5.3856,5.4228,5.4685,5.5784,5.6461,5.6867,5.7577,5.79,5.7866,5.7476,5.7103,5.6697,5.5919,5.5175,5.4482,5.3754,5.3518,5.3518,5.3518,5.3518,5.3518,5.3518,5.3754,5.3957,5.3585,5.3754,5.3923,5.3585,5.3754,5.4025,5.4025,5.4059,5.416,5.4481,5.4296,5.416,5.4481,5.3974,5.3619,5.3957,5.3044,5.257,5.3382,5.2469,5.1573,5.1235,5.0879,5.0202,4.912,4.9018,4.9018,4.9018,4.9018,4.9018,4.9018,4.9018,4.9323,5.0083,4.9729,4.9898,5.0676,5.0254,4.9695,4.9018,4.9357,4.9357,4.9018,4.9357,4.9323,4.9018,4.9018,4.9018,4.9018,4.9018,4.9018,4.9052,4.9424,5.0033,5.0777,5.1522,5.2682,5.3966,5.8051,5.8084,5.8321,5.9047,5.8592,5.8287,5.8912,5.849,5.8084,5.8084,5.8727,5.9182,5.9182,5.9081,5.8761,5.8118,5.7949,5.79,5.79,5.79,5.79,5.79,5.8017,5.8084,5.8084,5.8829,5.81,5.5902,5.5902,5.5124,5.3687,5.3551,5.3585,5.3721,5.4329,5.4753,5.504,5.6292,5.6867,5.7036,5.7645,5.79,5.79,5.79,5.7509,5.6968,5.6833,5.5852,5.4516,5.389,5.3619,5.3518,5.3518,5.3518,5.3518,5.3653,5.4025,5.4296,5.3822,5.4126,5.4431,5.3856,5.4228,5.4769,5.4769,5.4296,5.416,5.5124,5.4549,5.4211,5.5293,5.4617,5.4025,5.4499,5.3518,5.2976,5.3737,5.3179,5.2469,5.1844,5.1438,5.0728,4.9492,4.939,4.9323,4.9187,4.9187,4.912,4.9018,4.912,4.9526,5.027,5.027,5.0405,5.0692,5.1048,5.066,4.956,5.0067,4.9898,4.9187,4.9695,4.9627,4.9187,4.9052,4.9018,4.9018,4.9018,4.9018,4.9018,4.9154,4.956,5.0234,5.1208,5.3244,5.5553,5.8709,5.8844,5.9081,5.981,5.9336,5.8878,5.8979,5.8912,5.8844,5.8844,5.9505,5.9945,5.9945,5.9385,5.8945,5.8844,5.8254,5.79,5.79,5.79,5.79,5.79,5.8524,5.8844,5.8844,5.9573,5.8863,5.6664,5.6664,5.5886,5.4448,5.3788,5.3856,5.4482,5.4583,5.531,5.6528,5.6731,5.7171,5.7764,5.7866,5.79,5.79,5.79,5.7832,5.7663,5.7036,5.5852,5.4583,5.4465,5.4025,5.3518,5.3518,5.3518,5.3619,5.4262,5.4059,5.3788,5.4296,5.4499,5.4583,5.4482,5.5006,5.5564,5.5564,5.5462,5.509,5.4008,5.4651,5.5259,5.4837,5.5108,5.5225,5.4668,5.4397,5.4532,5.5293,5.4769,5.4245,5.416,5.2401,5.1133,5.093,5.0897,5.0626,4.9999,4.9947,4.9661,4.9052,4.9593,5.0304,5.1032,5.1066,5.1674,5.3044,5.181,5.1404,5.186,5.1302,5.0676,4.9932,4.939,4.9424,4.9914,4.9289,4.9018,4.9018,4.9018,4.9018,4.9052,4.9695,5.0015,5.0346,5.2444,5.3841,5.4956,5.9539,5.9588,5.9877,6.0655,6.0148,5.9776,6.0197,5.9911,5.9588,5.9588,6.0283,6.0757,6.0757,6.0486,6.0114,5.9674,5.9336,5.9133,5.9133,5.9133,5.9133,5.9133,5.9438,5.9588,5.9588,6.0385,6.008,5.8626,5.7408,5.6258,5.5209,5.4465,5.4499,5.5243,5.5649,5.619,5.6833,5.7239,5.7577,5.79,5.79,5.79,5.79,5.79,5.79,5.778,5.707,5.6393,5.5683,5.4888,5.4363,5.4126,5.4126,5.4126,5.416,5.4499,5.4668,5.4718,5.46,5.4905,5.5209,5.5209,5.5767,5.6206,5.58,5.6003,5.6003,5.4955,5.4938,5.5243,5.575,5.5784,5.5597,5.5277,5.4871,5.4871,5.5597,5.5428,5.5074,5.4651,5.2942,5.181,5.181,5.1438,5.1066,5.0744,5.0338,4.9981,4.9627,5.0304,5.1048,5.1776,5.181,5.2131,5.2841,5.2588,5.2216,5.1674,5.1776,5.1217,5.0117,5.0202,4.9965,4.9492,4.956,4.9593,4.9593,4.9187,4.9492,5.0186,4.9695,5.0243,5.1599,5.3442,5.4866,5.6034]}]]